Wetterdaten: Mittwoch, 24.07.2019
Datum Zeit Temp. A. Pool Temp. Temp. 5cm Feuchte A. Luftdruck Regen Wind Richtung Richtung Sonnenschein ET UV Solar Taupunkt Windchill Windben Empfang
24.07.2019 00:00 21,8 C 26,7 C 18,9 C 70 % 1016,6 hPa 0,0 l/m 6,6 km/h (2 Bft) SW 214 0 min 0,000 mm 0,0 UV-I 0 W/m 16,1 C 21,7 C 8,0 km/h (2 Bft) 100,00 %
24.07.2019 00:02 21,8 C 26,7 C 18,9 C 70 % 1016,6 hPa 0,0 l/m 5,8 km/h (2 Bft) S-SW 209 0 min 0,000 mm 0,0 UV-I 0 W/m 16,1 C 21,8 C 8,0 km/h (2 Bft) 11,11 %
24.07.2019 00:04 21,8 C 26,7 C 19,4 C 70 % 1016,6 hPa 0,0 l/m 5,7 km/h (1 Bft) S-SW 212 0 min 0,000 mm 0,0 UV-I 0 W/m 16,1 C 21,8 C 8,0 km/h (2 Bft) 87,80 %
24.07.2019 00:06 21,8 C 26,7 C 19,4 C 70 % 1016,5 hPa 0,0 l/m 5,2 km/h (1 Bft) S-SW 212 0 min 0,000 mm 0,0 UV-I 0 W/m 16,1 C 21,8 C 8,0 km/h (2 Bft) 97,62 %
24.07.2019 00:08 21,7 C 26,7 C 19,4 C 70 % 1016,5 hPa 0,0 l/m 4,9 km/h (1 Bft) S-SW 211 0 min 0,000 mm 0,0 UV-I 0 W/m 16,0 C 21,7 C 6,4 km/h (2 Bft) 98,00 %
24.07.2019 00:10 21,6 C 26,7 C 19,4 C 70 % 1016,5 hPa 0,0 l/m 6,0 km/h (2 Bft) S 183 0 min 0,000 mm 0,0 UV-I 0 W/m 15,9 C 21,6 C 8,0 km/h (2 Bft) 98,11 %
24.07.2019 00:12 21,6 C 26,7 C 19,4 C 70 % 1016,5 hPa 0,0 l/m 5,2 km/h (1 Bft) S-SW 197 0 min 0,000 mm 0,0 UV-I 0 W/m 15,9 C 21,6 C 6,4 km/h (2 Bft) 97,56 %
24.07.2019 00:14 21,6 C 26,7 C 20,0 C 70 % 1016,6 hPa 0,0 l/m 5,3 km/h (1 Bft) S-SW 205 0 min 0,000 mm 0,0 UV-I 0 W/m 15,9 C 21,6 C 8,0 km/h (2 Bft) 95,74 %
24.07.2019 00:16 21,6 C 26,7 C 20,0 C 70 % 1016,5 hPa 0,0 l/m 5,0 km/h (1 Bft) S-SW 200 0 min 0,000 mm 0,0 UV-I 0 W/m 15,9 C 21,6 C 6,4 km/h (2 Bft) 94,00 %
24.07.2019 00:18 21,6 C 26,7 C 20,0 C 70 % 1016,5 hPa 0,0 l/m 4,6 km/h (1 Bft) S-SW 211 0 min 0,000 mm 0,0 UV-I 0 W/m 15,9 C 21,6 C 8,0 km/h (2 Bft) 97,87 %
24.07.2019 00:20 21,6 C 26,7 C 20,0 C 70 % 1016,6 hPa 0,0 l/m 4,6 km/h (1 Bft) S-SW 211 0 min 0,000 mm 0,0 UV-I 0 W/m 15,9 C 21,6 C 6,4 km/h (2 Bft) 97,87 %
24.07.2019 00:22 21,6 C 26,7 C 20,0 C 70 % 1016,6 hPa 0,0 l/m 4,5 km/h (1 Bft) S-SW 209 0 min 0,000 mm 0,0 UV-I 0 W/m 15,9 C 21,6 C 6,4 km/h (2 Bft) 97,56 %
24.07.2019 00:24 21,6 C 26,7 C 19,4 C 71 % 1016,6 hPa 0,0 l/m 2,3 km/h (1 Bft) S-SW 209 0 min 0,000 mm 0,0 UV-I 0 W/m 16,1 C 21,6 C 4,8 km/h (1 Bft) 98,00 %
24.07.2019 00:26 21,4 C 26,7 C 19,4 C 71 % 1016,7 hPa 0,0 l/m 1,3 km/h (1 Bft) S-SW 209 0 min 0,000 mm 0,0 UV-I 0 W/m 15,9 C 21,4 C 1,6 km/h (1 Bft) 97,73 %
24.07.2019 00:28 21,2 C 26,7 C 18,9 C 72 % 1016,7 hPa 0,0 l/m 1,3 km/h (1 Bft) S-SW 209 0 min 0,000 mm 0,0 UV-I 0 W/m 15,9 C 21,2 C 3,2 km/h (1 Bft) 100,00 %
24.07.2019 00:30 21,0 C 26,7 C 18,9 C 73 % 1016,7 hPa 0,0 l/m 1,1 km/h (1 Bft) S-SW 209 0 min 0,000 mm 0,0 UV-I 0 W/m 16,0 C 21,0 C 1,6 km/h (1 Bft) 100,00 %
24.07.2019 00:32 20,8 C 26,7 C 18,3 C 73 % 1016,7 hPa 0,0 l/m 1,3 km/h (1 Bft) S-SW 209 0 min 0,000 mm 0,0 UV-I 0 W/m 15,8 C 20,8 C 1,6 km/h (1 Bft) 100,00 %
24.07.2019 00:34 20,8 C 26,7 C 18,3 C 73 % 1016,7 hPa 0,0 l/m 1,9 km/h (1 Bft) S-SW 209 0 min 0,000 mm 0,0 UV-I 0 W/m 15,8 C 20,8 C 3,2 km/h (1 Bft) 100,00 %
24.07.2019 00:36 20,8 C 26,7 C 17,8 C 74 % 1016,7 hPa 0,0 l/m 2,0 km/h (1 Bft) S-SW 209 0 min 0,000 mm 0,0 UV-I 0 W/m 16,0 C 20,8 C 3,2 km/h (1 Bft) 100,00 %
24.07.2019 00:38 20,8 C 26,7 C 17,8 C 74 % 1016,7 hPa 0,0 l/m 1,5 km/h (1 Bft) S-SW 209 0 min 0,000 mm 0,0 UV-I 0 W/m 16,0 C 20,8 C 3,2 km/h (1 Bft) 100,00 %
24.07.2019 00:40 20,8 C 26,7 C 17,8 C 75 % 1016,7 hPa 0,0 l/m 1,7 km/h (1 Bft) S-SW 209 0 min 0,000 mm 0,0 UV-I 0 W/m 16,2 C 20,8 C 3,2 km/h (1 Bft) 100,00 %
24.07.2019 00:42 20,7 C 26,7 C 17,8 C 75 % 1016,7 hPa 0,0 l/m 2,4 km/h (1 Bft) S-SW 209 0 min 0,000 mm 0,0 UV-I 0 W/m 16,1 C 20,7 C 3,2 km/h (1 Bft) 98,00 %
24.07.2019 00:44 20,4 C 26,7 C 17,8 C 76 % 1016,8 hPa 0,0 l/m 2,0 km/h (1 Bft) S-SW 209 0 min 0,000 mm 0,0 UV-I 0 W/m 16,0 C 20,4 C 3,2 km/h (1 Bft) 100,00 %
24.07.2019 00:46 20,3 C 26,7 C 17,8 C 78 % 1016,8 hPa 0,0 l/m 0,6 km/h (0 Bft) S-SW 209 0 min 0,000 mm 0,0 UV-I 0 W/m 16,3 C 20,3 C 1,6 km/h (1 Bft) 94,44 %
24.07.2019 00:48 20,1 C 26,7 C 17,8 C 78 % 1016,8 hPa 0,0 l/m 0,0 km/h (0 Bft) S-SW 209 0 min 0,000 mm 0,0 UV-I 0 W/m 16,1 C 20,1 C 0,0 km/h (0 Bft) 96,00 %
24.07.2019 00:50 19,9 C 26,7 C 17,2 C 78 % 1016,7 hPa 0,0 l/m 0,6 km/h (0 Bft) S-SW 209 0 min 0,000 mm 0,0 UV-I 0 W/m 15,9 C 19,9 C 1,6 km/h (1 Bft) 94,34 %
24.07.2019 00:52 19,9 C 26,7 C 17,2 C 78 % 1016,8 hPa 0,0 l/m 1,5 km/h (1 Bft) S-SW 209 0 min 0,000 mm 0,0 UV-I 0 W/m 15,9 C 19,9 C 3,2 km/h (1 Bft) 92,68 %
24.07.2019 00:54 20,1 C 26,7 C 17,2 C 77 % 1016,8 hPa 0,0 l/m 2,0 km/h (1 Bft) S-SW 209 0 min 0,000 mm 0,0 UV-I 0 W/m 15,9 C 20,1 C 3,2 km/h (1 Bft) 94,34 %
24.07.2019 00:56 20,1 C 26,7 C 17,2 C 77 % 1016,8 hPa 0,0 l/m 3,1 km/h (1 Bft) S-SW 209 0 min 0,000 mm 0,0 UV-I 0 W/m 15,9 C 20,1 C 3,2 km/h (1 Bft) 97,37 %
24.07.2019 00:58 20,2 C 26,7 C 17,2 C 77 % 1016,9 hPa 0,0 l/m 2,6 km/h (1 Bft) S-SW 209 0 min 0,000 mm 0,0 UV-I 0 W/m 16,0 C 20,2 C 3,2 km/h (1 Bft) 94,00 %
24.07.2019 01:00 20,2 C 26,7 C 17,2 C 76 % 1016,8 hPa 0,0 l/m 3,2 km/h (1 Bft) S-SW 209 0 min 0,025 mm 0,0 UV-I 0 W/m 15,8 C 20,2 C 4,8 km/h (1 Bft) 94,00 %
24.07.2019 01:02 20,2 C 26,7 C 17,2 C 76 % 1016,8 hPa 0,0 l/m 2,8 km/h (1 Bft) S-SW 209 0 min 0,000 mm 0,0 UV-I 0 W/m 15,8 C 20,2 C 3,2 km/h (1 Bft) 93,62 %
24.07.2019 01:04 20,2 C 26,7 C 17,2 C 76 % 1016,8 hPa 0,0 l/m 2,8 km/h (1 Bft) S-SW 209 0 min 0,000 mm 0,0 UV-I 0 W/m 15,8 C 20,2 C 3,2 km/h (1 Bft) 95,74 %
24.07.2019 01:06 20,3 C 26,7 C 17,2 C 75 % 1016,8 hPa 0,0 l/m 3,2 km/h (1 Bft) S-SW 209 0 min 0,000 mm 0,0 UV-I 0 W/m 15,7 C 20,3 C 4,8 km/h (1 Bft) 96,00 %
24.07.2019 01:08 20,2 C 26,7 C 17,2 C 77 % 1016,8 hPa 0,0 l/m 2,4 km/h (1 Bft) S-SW 209 0 min 0,000 mm 0,0 UV-I 0 W/m 16,0 C 20,2 C 3,2 km/h (1 Bft) 92,11 %
24.07.2019 01:10 19,9 C 26,7 C 17,8 C 78 % 1016,8 hPa 0,0 l/m 3,4 km/h (1 Bft) S-SW 209 0 min 0,000 mm 0,0 UV-I 0 W/m 15,9 C 19,9 C 4,8 km/h (1 Bft) 95,74 %
24.07.2019 01:12 19,4 C 26,7 C 17,2 C 79 % 1016,9 hPa 0,0 l/m 4,0 km/h (1 Bft) S-SW 209 0 min 0,000 mm 0,0 UV-I 0 W/m 15,7 C 19,4 C 4,8 km/h (1 Bft) 95,74 %
24.07.2019 01:14 19,2 C 26,7 C 17,2 C 80 % 1016,8 hPa 0,0 l/m 3,8 km/h (1 Bft) S-SW 209 0 min 0,000 mm 0,0 UV-I 0 W/m 15,7 C 19,2 C 4,8 km/h (1 Bft) 96,00 %
24.07.2019 01:16 19,1 C 26,7 C 17,2 C 80 % 1016,9 hPa 0,0 l/m 3,7 km/h (1 Bft) S-SW 209 0 min 0,000 mm 0,0 UV-I 0 W/m 15,6 C 19,1 C 4,8 km/h (1 Bft) 92,00 %
24.07.2019 01:18 19,1 C 26,7 C 17,2 C 80 % 1016,8 hPa 0,0 l/m 3,7 km/h (1 Bft) S-SW 209 0 min 0,000 mm 0,0 UV-I 0 W/m 15,6 C 19,1 C 4,8 km/h (1 Bft) 94,87 %
24.07.2019 01:20 19,2 C 26,7 C 17,2 C 79 % 1016,8 hPa 0,0 l/m 3,3 km/h (1 Bft) S-SW 209 0 min 0,000 mm 0,0 UV-I 0 W/m 15,5 C 19,2 C 4,8 km/h (1 Bft) 93,62 %
24.07.2019 01:22 19,3 C 26,7 C 17,2 C 79 % 1016,8 hPa 0,0 l/m 2,6 km/h (1 Bft) S-SW 209 0 min 0,000 mm 0,0 UV-I 0 W/m 15,6 C 19,3 C 3,2 km/h (1 Bft) 98,11 %
24.07.2019 01:24 19,2 C 26,7 C 17,2 C 80 % 1016,8 hPa 0,0 l/m 2,7 km/h (1 Bft) S-SW 209 0 min 0,000 mm 0,0 UV-I 0 W/m 15,7 C 19,2 C 3,2 km/h (1 Bft) 97,56 %
24.07.2019 01:26 19,3 C 26,7 C 17,2 C 79 % 1016,8 hPa 0,0 l/m 3,6 km/h (1 Bft) S-SW 209 0 min 0,000 mm 0,0 UV-I 0 W/m 15,6 C 19,3 C 4,8 km/h (1 Bft) 97,87 %
24.07.2019 01:28 19,5 C 26,7 C 17,8 C 78 % 1016,8 hPa 0,0 l/m 4,3 km/h (1 Bft) S-SW 209 0 min 0,000 mm 0,0 UV-I 0 W/m 15,6 C 19,5 C 4,8 km/h (1 Bft) 94,00 %
24.07.2019 01:30 19,6 C 26,7 C 17,8 C 79 % 1016,9 hPa 0,0 l/m 4,8 km/h (1 Bft) S-SW 210 0 min 0,000 mm 0,0 UV-I 0 W/m 15,9 C 19,6 C 6,4 km/h (2 Bft) 98,00 %
24.07.2019 01:32 19,3 C 26,7 C 17,8 C 80 % 1016,9 hPa 0,0 l/m 3,5 km/h (1 Bft) S-SW 210 0 min 0,000 mm 0,0 UV-I 0 W/m 15,8 C 19,3 C 4,8 km/h (1 Bft) 95,74 %
24.07.2019 01:34 19,1 C 26,1 C 17,8 C 81 % 1016,9 hPa 0,0 l/m 2,3 km/h (1 Bft) S-SW 210 0 min 0,000 mm 0,0 UV-I 0 W/m 15,8 C 19,1 C 3,2 km/h (1 Bft) 94,00 %
24.07.2019 01:36 18,8 C 26,1 C 17,8 C 81 % 1016,9 hPa 0,0 l/m 2,4 km/h (1 Bft) S-SW 210 0 min 0,000 mm 0,0 UV-I 0 W/m 15,5 C 18,8 C 3,2 km/h (1 Bft) 97,37 %
24.07.2019 01:38 18,7 C 26,1 C 17,8 C 82 % 1016,9 hPa 0,0 l/m 2,1 km/h (1 Bft) S-SW 210 0 min 0,000 mm 0,0 UV-I 0 W/m 15,6 C 18,7 C 3,2 km/h (1 Bft) 90,74 %
24.07.2019 01:40 18,6 C 26,1 C 17,2 C 82 % 1016,9 hPa 0,0 l/m 3,1 km/h (1 Bft) S-SW 210 0 min 0,000 mm 0,0 UV-I 0 W/m 15,5 C 18,6 C 4,8 km/h (1 Bft) 97,37 %
24.07.2019 01:42 18,5 C 26,1 C 17,2 C 83 % 1016,9 hPa 0,0 l/m 3,2 km/h (1 Bft) S-SW 210 0 min 0,000 mm 0,0 UV-I 0 W/m 15,6 C 18,5 C 4,8 km/h (1 Bft) 93,62 %
24.07.2019 01:44 18,6 C 26,1 C 17,2 C 83 % 1016,9 hPa 0,0 l/m 3,3 km/h (1 Bft) S-SW 210 0 min 0,000 mm 0,0 UV-I 0 W/m 15,7 C 18,6 C 4,8 km/h (1 Bft) 95,74 %
24.07.2019 01:46 18,6 C 26,1 C 17,2 C 82 % 1016,8 hPa 0,0 l/m 2,6 km/h (1 Bft) S-SW 210 0 min 0,000 mm 0,0 UV-I 0 W/m 15,5 C 18,6 C 4,8 km/h (1 Bft) 95,74 %
24.07.2019 01:48 18,8 C 26,1 C 17,2 C 82 % 1016,8 hPa 0,0 l/m 3,8 km/h (1 Bft) S-SW 210 0 min 0,000 mm 0,0 UV-I 0 W/m 15,7 C 18,8 C 4,8 km/h (1 Bft) 98,11 %
24.07.2019 01:50 18,9 C 26,1 C 17,2 C 81 % 1016,8 hPa 0,0 l/m 4,2 km/h (1 Bft) S-SW 209 0 min 0,000 mm 0,0 UV-I 0 W/m 15,6 C 18,9 C 4,8 km/h (1 Bft) 98,00 %
24.07.2019 01:52 18,8 C 26,1 C 17,2 C 81 % 1016,7 hPa 0,0 l/m 4,1 km/h (1 Bft) S-SW 209 0 min 0,000 mm 0,0 UV-I 0 W/m 15,5 C 18,8 C 4,8 km/h (1 Bft) 94,74 %
24.07.2019 01:54 18,7 C 26,1 C 17,2 C 82 % 1016,7 hPa 0,0 l/m 3,7 km/h (1 Bft) S-SW 209 0 min 0,000 mm 0,0 UV-I 0 W/m 15,6 C 18,7 C 4,8 km/h (1 Bft) 98,21 %
24.07.2019 01:56 18,8 C 26,1 C 17,2 C 81 % 1016,7 hPa 0,0 l/m 3,3 km/h (1 Bft) S-SW 209 0 min 0,000 mm 0,0 UV-I 0 W/m 15,5 C 18,8 C 4,8 km/h (1 Bft) 100,00 %
24.07.2019 01:58 18,8 C 26,1 C 17,2 C 81 % 1016,7 hPa 0,0 l/m 2,6 km/h (1 Bft) S-SW 209 0 min 0,000 mm 0,0 UV-I 0 W/m 15,5 C 18,8 C 3,2 km/h (1 Bft) 100,00 %
24.07.2019 02:00 18,8 C 26,1 C 17,2 C 81 % 1016,7 hPa 0,0 l/m 1,5 km/h (1 Bft) S-SW 209 0 min 0,000 mm 0,0 UV-I 0 W/m 15,5 C 18,8 C 3,2 km/h (1 Bft) 100,00 %
24.07.2019 02:02 18,9 C 26,1 C 17,2 C 81 % 1016,7 hPa 0,0 l/m 2,1 km/h (1 Bft) S-SW 209 0 min 0,026 mm 0,0 UV-I 0 W/m 15,6 C 18,9 C 3,2 km/h (1 Bft) 100,00 %
24.07.2019 02:04 18,8 C 26,1 C 17,2 C 81 % 1016,6 hPa 0,0 l/m 3,0 km/h (1 Bft) S-SW 209 0 min 0,000 mm 0,0 UV-I 0 W/m 15,5 C 18,8 C 4,8 km/h (1 Bft) 100,00 %
24.07.2019 02:06 18,8 C 26,1 C 17,2 C 82 % 1016,7 hPa 0,0 l/m 2,9 km/h (1 Bft) S-SW 209 0 min 0,000 mm 0,0 UV-I 0 W/m 15,7 C 18,8 C 4,8 km/h (1 Bft) 100,00 %
24.07.2019 02:08 18,8 C 26,1 C 17,2 C 82 % 1016,6 hPa 0,0 l/m 2,9 km/h (1 Bft) S-SW 209 0 min 0,000 mm 0,0 UV-I 0 W/m 15,7 C 18,8 C 4,8 km/h (1 Bft) 100,00 %
24.07.2019 02:10 18,8 C 26,1 C 17,2 C 81 % 1016,6 hPa 0,0 l/m 4,0 km/h (1 Bft) S-SW 209 0 min 0,000 mm 0,0 UV-I 0 W/m 15,5 C 18,8 C 4,8 km/h (1 Bft) 100,00 %
24.07.2019 02:12 18,8 C 26,1 C 17,2 C 81 % 1016,5 hPa 0,0 l/m 3,2 km/h (1 Bft) S-SW 209 0 min 0,000 mm 0,0 UV-I 0 W/m 15,5 C 18,8 C 4,8 km/h (1 Bft) 100,00 %
24.07.2019 02:14 18,8 C 26,1 C 17,2 C 80 % 1016,5 hPa 0,0 l/m 3,2 km/h (1 Bft) S-SW 209 0 min 0,000 mm 0,0 UV-I 0 W/m 15,3 C 18,8 C 4,8 km/h (1 Bft) 100,00 %
24.07.2019 02:16 18,8 C 26,1 C 16,7 C 79 % 1016,5 hPa 0,0 l/m 2,9 km/h (1 Bft) S-SW 209 0 min 0,000 mm 0,0 UV-I 0 W/m 15,1 C 18,8 C 3,2 km/h (1 Bft) 100,00 %
24.07.2019 02:18 19,0 C 26,1 C 16,7 C 79 % 1016,4 hPa 0,0 l/m 2,6 km/h (1 Bft) S-SW 209 0 min 0,000 mm 0,0 UV-I 0 W/m 15,3 C 19,0 C 3,2 km/h (1 Bft) 100,00 %
24.07.2019 02:20 19,1 C 26,1 C 16,7 C 79 % 1016,4 hPa 0,0 l/m 2,9 km/h (1 Bft) S-SW 209 0 min 0,000 mm 0,0 UV-I 0 W/m 15,4 C 19,1 C 3,2 km/h (1 Bft) 100,00 %
24.07.2019 02:22 19,1 C 26,1 C 17,2 C 79 % 1016,4 hPa 0,0 l/m 3,1 km/h (1 Bft) S-SW 209 0 min 0,000 mm 0,0 UV-I 0 W/m 15,4 C 19,1 C 4,8 km/h (1 Bft) 100,00 %
24.07.2019 02:24 19,0 C 26,1 C 17,2 C 80 % 1016,3 hPa 0,0 l/m 2,5 km/h (1 Bft) S-SW 209 0 min 0,000 mm 0,0 UV-I 0 W/m 15,5 C 19,0 C 3,2 km/h (1 Bft) 100,00 %
24.07.2019 02:26 18,8 C 26,1 C 17,2 C 80 % 1016,3 hPa 0,0 l/m 2,3 km/h (1 Bft) S-SW 209 0 min 0,000 mm 0,0 UV-I 0 W/m 15,3 C 18,8 C 3,2 km/h (1 Bft) 97,87 %
24.07.2019 02:28 18,7 C 26,1 C 17,2 C 81 % 1016,3 hPa 0,0 l/m 1,5 km/h (1 Bft) S-SW 209 0 min 0,000 mm 0,0 UV-I 0 W/m 15,4 C 18,7 C 3,2 km/h (1 Bft) 100,00 %
24.07.2019 02:30 18,6 C 26,1 C 16,7 C 82 % 1016,3 hPa 0,0 l/m 1,9 km/h (1 Bft) S-SW 209 0 min 0,000 mm 0,0 UV-I 0 W/m 15,5 C 18,6 C 3,2 km/h (1 Bft) 100,00 %
24.07.2019 02:32 18,6 C 26,1 C 16,7 C 82 % 1016,3 hPa 0,0 l/m 0,4 km/h (0 Bft) S-SW 209 0 min 0,000 mm 0,0 UV-I 0 W/m 15,5 C 18,6 C 1,6 km/h (1 Bft) 100,00 %
24.07.2019 02:34 18,5 C 26,1 C 16,7 C 82 % 1016,3 hPa 0,0 l/m 0,0 km/h (0 Bft) S-SW 209 0 min 0,000 mm 0,0 UV-I 0 W/m 15,4 C 18,5 C 0,0 km/h (0 Bft) 100,00 %
24.07.2019 02:36 18,3 C 26,1 C 16,7 C 82 % 1016,3 hPa 0,0 l/m 0,0 km/h (0 Bft) S-SW 209 0 min 0,000 mm 0,0 UV-I 0 W/m 15,2 C 18,3 C 0,0 km/h (0 Bft) 100,00 %
24.07.2019 02:38 18,2 C 26,1 C 16,7 C 83 % 1016,4 hPa 0,0 l/m 0,0 km/h (0 Bft) S-SW 209 0 min 0,000 mm 0,0 UV-I 0 W/m 15,3 C 18,2 C 0,0 km/h (0 Bft) 100,00 %
24.07.2019 02:40 18,1 C 26,1 C 16,7 C 83 % 1016,4 hPa 0,0 l/m 0,0 km/h (0 Bft) S-SW 209 0 min 0,000 mm 0,0 UV-I 0 W/m 15,2 C 18,1 C 0,0 km/h (0 Bft) 100,00 %
24.07.2019 02:42 18,2 C 26,1 C 16,1 C 83 % 1016,4 hPa 0,0 l/m 0,0 km/h (0 Bft) S-SW 209 0 min 0,000 mm 0,0 UV-I 0 W/m 15,3 C 18,2 C 0,0 km/h (0 Bft) 100,00 %
24.07.2019 02:44 18,2 C 26,1 C 16,1 C 83 % 1016,5 hPa 0,0 l/m 0,0 km/h (0 Bft) S-SW 209 0 min 0,000 mm 0,0 UV-I 0 W/m 15,3 C 18,2 C 0,0 km/h (0 Bft) 98,00 %
24.07.2019 02:46 18,1 C 26,1 C 16,1 C 83 % 1016,5 hPa 0,0 l/m 0,0 km/h (0 Bft) S-SW 209 0 min 0,000 mm 0,0 UV-I 0 W/m 15,2 C 18,1 C 0,0 km/h (0 Bft) 100,00 %
24.07.2019 02:48 17,9 C 26,1 C 16,1 C 84 % 1016,5 hPa 0,0 l/m 1,7 km/h (1 Bft) S-SW 209 0 min 0,000 mm 0,0 UV-I 0 W/m 15,2 C 17,9 C 4,8 km/h (1 Bft) 100,00 %
24.07.2019 02:50 17,8 C 26,1 C 16,7 C 84 % 1016,4 hPa 0,0 l/m 3,7 km/h (1 Bft) S-SW 209 0 min 0,000 mm 0,0 UV-I 0 W/m 15,1 C 17,8 C 4,8 km/h (1 Bft) 100,00 %
24.07.2019 02:52 17,7 C 26,1 C 16,7 C 85 % 1016,4 hPa 0,0 l/m 3,1 km/h (1 Bft) S-SW 209 0 min 0,000 mm 0,0 UV-I 0 W/m 15,1 C 17,7 C 4,8 km/h (1 Bft) 98,39 %
24.07.2019 02:54 17,6 C 26,1 C 16,1 C 86 % 1016,4 hPa 0,0 l/m 1,4 km/h (1 Bft) S-SW 209 0 min 0,000 mm 0,0 UV-I 0 W/m 15,2 C 17,6 C 3,2 km/h (1 Bft) 97,87 %
24.07.2019 02:56 17,6 C 26,1 C 16,1 C 86 % 1016,4 hPa 0,0 l/m 1,2 km/h (1 Bft) S-SW 209 0 min 0,000 mm 0,0 UV-I 0 W/m 15,2 C 17,6 C 1,6 km/h (1 Bft) 97,87 %
24.07.2019 02:58 17,7 C 26,1 C 16,1 C 86 % 1016,3 hPa 0,0 l/m 0,4 km/h (0 Bft) S-SW 209 0 min 0,000 mm 0,0 UV-I 0 W/m 15,3 C 17,7 C 1,6 km/h (1 Bft) 93,62 %
24.07.2019 03:00 17,7 C 26,1 C 16,1 C 86 % 1016,3 hPa 0,0 l/m 0,5 km/h (0 Bft) S-SW 209 0 min 0,000 mm 0,0 UV-I 0 W/m 15,3 C 17,7 C 1,6 km/h (1 Bft) 94,29 %
24.07.2019 03:02 17,7 C 26,1 C 16,1 C 86 % 1016,3 hPa 0,0 l/m 0,6 km/h (0 Bft) S-SW 209 0 min 0,000 mm 0,0 UV-I 0 W/m 15,3 C 17,7 C 1,6 km/h (1 Bft) 92,45 %
24.07.2019 03:04 17,7 C 26,1 C 15,6 C 86 % 1016,3 hPa 0,0 l/m 0,0 km/h (0 Bft) S-SW 209 0 min 0,000 mm 0,0 UV-I 0 W/m 15,3 C 17,7 C 0,0 km/h (0 Bft) 91,49 %
24.07.2019 03:06 17,7 C 26,1 C 15,6 C 86 % 1016,3 hPa 0,0 l/m 0,0 km/h (0 Bft) S-SW 209 0 min 0,000 mm 0,0 UV-I 0 W/m 15,3 C 17,7 C 0,0 km/h (0 Bft) 96,00 %
24.07.2019 03:08 17,8 C 26,1 C 15,6 C 86 % 1016,3 hPa 0,0 l/m 0,0 km/h (0 Bft) S-SW 209 0 min 0,000 mm 0,0 UV-I 0 W/m 15,4 C 17,8 C 0,0 km/h (0 Bft) 95,74 %
24.07.2019 03:10 17,7 C 26,1 C 16,1 C 86 % 1016,2 hPa 0,0 l/m 0,5 km/h (0 Bft) S-SW 209 0 min 0,000 mm 0,0 UV-I 0 W/m 15,3 C 17,7 C 1,6 km/h (1 Bft) 95,74 %
24.07.2019 03:12 17,7 C 26,1 C 15,6 C 86 % 1016,1 hPa 0,0 l/m 0,0 km/h (0 Bft) S-SW 209 0 min 0,000 mm 0,0 UV-I 0 W/m 15,3 C 17,7 C 0,0 km/h (0 Bft) 94,44 %
24.07.2019 03:14 17,7 C 26,1 C 15,6 C 86 % 1016,2 hPa 0,0 l/m 0,7 km/h (0 Bft) S-SW 209 0 min 0,000 mm 0,0 UV-I 0 W/m 15,3 C 17,7 C 1,6 km/h (1 Bft) 96,23 %
24.07.2019 03:16 17,6 C 26,1 C 16,1 C 85 % 1016,2 hPa 0,0 l/m 0,8 km/h (0 Bft) S-SW 209 0 min 0,000 mm 0,0 UV-I 0 W/m 15,0 C 17,6 C 1,6 km/h (1 Bft) 96,23 %
24.07.2019 03:18 17,5 C 26,1 C 15,6 C 85 % 1016,1 hPa 0,0 l/m 1,5 km/h (1 Bft) S-SW 209 0 min 0,000 mm 0,0 UV-I 0 W/m 14,9 C 17,5 C 3,2 km/h (1 Bft) 93,62 %
24.07.2019 03:20 17,5 C 26,1 C 15,6 C 86 % 1016,1 hPa 0,0 l/m 1,1 km/h (1 Bft) S-SW 209 0 min 0,000 mm 0,0 UV-I 0 W/m 15,1 C 17,5 C 1,6 km/h (1 Bft) 97,37 %
24.07.2019 03:22 17,5 C 26,1 C 15,6 C 85 % 1016,0 hPa 0,0 l/m 1,0 km/h (0 Bft) S-SW 209 0 min 0,000 mm 0,0 UV-I 0 W/m 14,9 C 17,5 C 3,2 km/h (1 Bft) 94,00 %
24.07.2019 03:24 17,6 C 26,1 C 16,1 C 85 % 1016,0 hPa 0,0 l/m 4,2 km/h (1 Bft) S-SW 209 0 min 0,000 mm 0,0 UV-I 0 W/m 15,0 C 17,6 C 6,4 km/h (2 Bft) 100,00 %
24.07.2019 03:26 17,5 C 26,1 C 16,1 C 86 % 1016,0 hPa 0,0 l/m 4,1 km/h (1 Bft) S-SW 209 0 min 0,000 mm 0,0 UV-I 0 W/m 15,1 C 17,5 C 6,4 km/h (2 Bft) 100,00 %
24.07.2019 03:28 17,5 C 26,1 C 16,1 C 86 % 1015,9 hPa 0,0 l/m 3,2 km/h (1 Bft) S-SW 209 0 min 0,000 mm 0,0 UV-I 0 W/m 15,1 C 17,5 C 4,8 km/h (1 Bft) 100,00 %
24.07.2019 03:30 17,4 C 26,1 C 16,1 C 86 % 1016,0 hPa 0,0 l/m 4,1 km/h (1 Bft) S-SW 209 0 min 0,000 mm 0,0 UV-I 0 W/m 15,0 C 17,4 C 4,8 km/h (1 Bft) 100,00 %
24.07.2019 03:32 17,4 C 26,1 C 16,1 C 86 % 1015,9 hPa 0,0 l/m 5,2 km/h (1 Bft) S-SW 212 0 min 0,000 mm 0,0 UV-I 0 W/m 15,0 C 17,4 C 6,4 km/h (2 Bft) 100,00 %
24.07.2019 03:34 17,4 C 26,1 C 16,1 C 86 % 1015,9 hPa 0,0 l/m 4,3 km/h (1 Bft) SW 218 0 min 0,000 mm 0,0 UV-I 0 W/m 15,0 C 17,4 C 6,4 km/h (2 Bft) 96,15 %
24.07.2019 03:36 17,3 C 26,1 C 16,1 C 86 % 1015,9 hPa 0,0 l/m 3,7 km/h (1 Bft) SW 218 0 min 0,000 mm 0,0 UV-I 0 W/m 14,9 C 17,3 C 4,8 km/h (1 Bft) 100,00 %
24.07.2019 03:38 17,3 C 26,1 C 16,1 C 86 % 1015,9 hPa 0,0 l/m 2,4 km/h (1 Bft) SW 218 0 min 0,000 mm 0,0 UV-I 0 W/m 14,9 C 17,3 C 4,8 km/h (1 Bft) 98,00 %
24.07.2019 03:40 17,4 C 26,1 C 16,1 C 86 % 1015,9 hPa 0,0 l/m 2,1 km/h (1 Bft) SW 218 0 min 0,000 mm 0,0 UV-I 0 W/m 15,0 C 17,4 C 3,2 km/h (1 Bft) 100,00 %
24.07.2019 03:42 17,5 C 26,1 C 16,1 C 86 % 1015,9 hPa 0,0 l/m 3,1 km/h (1 Bft) SW 218 0 min 0,000 mm 0,0 UV-I 0 W/m 15,1 C 17,5 C 4,8 km/h (1 Bft) 100,00 %
24.07.2019 03:44 17,7 C 26,1 C 16,1 C 85 % 1015,8 hPa 0,0 l/m 3,4 km/h (1 Bft) SW 218 0 min 0,000 mm 0,0 UV-I 0 W/m 15,1 C 17,7 C 4,8 km/h (1 Bft) 97,87 %
24.07.2019 03:46 17,8 C 26,1 C 16,1 C 84 % 1015,8 hPa 0,0 l/m 1,9 km/h (1 Bft) SW 218 0 min 0,000 mm 0,0 UV-I 0 W/m 15,1 C 17,8 C 3,2 km/h (1 Bft) 100,00 %
24.07.2019 03:48 17,8 C 26,1 C 16,1 C 83 % 1015,8 hPa 0,0 l/m 2,7 km/h (1 Bft) SW 218 0 min 0,000 mm 0,0 UV-I 0 W/m 14,9 C 17,8 C 3,2 km/h (1 Bft) 100,00 %
24.07.2019 03:50 17,8 C 26,1 C 16,1 C 84 % 1015,8 hPa 0,0 l/m 2,4 km/h (1 Bft) SW 218 0 min 0,000 mm 0,0 UV-I 0 W/m 15,1 C 17,8 C 3,2 km/h (1 Bft) 100,00 %
24.07.2019 03:52 17,7 C 26,1 C 15,6 C 84 % 1015,8 hPa 0,0 l/m 1,6 km/h (1 Bft) SW 218 0 min 0,000 mm 0,0 UV-I 0 W/m 15,0 C 17,7 C 3,2 km/h (1 Bft) 100,00 %
24.07.2019 03:54 17,7 C 26,1 C 15,6 C 84 % 1015,8 hPa 0,0 l/m 2,2 km/h (1 Bft) SW 218 0 min 0,000 mm 0,0 UV-I 0 W/m 15,0 C 17,7 C 3,2 km/h (1 Bft) 100,00 %
24.07.2019 03:56 17,6 C 26,1 C 15,6 C 85 % 1015,8 hPa 0,0 l/m 2,1 km/h (1 Bft) SW 218 0 min 0,000 mm 0,0 UV-I 0 W/m 15,0 C 17,6 C 3,2 km/h (1 Bft) 97,87 %
24.07.2019 03:58 17,5 C 26,1 C 15,6 C 85 % 1015,8 hPa 0,0 l/m 1,4 km/h (1 Bft) SW 218 0 min 0,000 mm 0,0 UV-I 0 W/m 14,9 C 17,5 C 3,2 km/h (1 Bft) 94,29 %
24.07.2019 04:00 17,4 C 26,1 C 15,6 C 85 % 1015,8 hPa 0,0 l/m 0,7 km/h (0 Bft) SW 218 0 min 0,000 mm 0,0 UV-I 0 W/m 14,8 C 17,4 C 1,6 km/h (1 Bft) 100,00 %
24.07.2019 04:02 17,3 C 26,1 C 15,6 C 85 % 1015,8 hPa 0,0 l/m 0,0 km/h (0 Bft) SW 218 0 min 0,000 mm 0,0 UV-I 0 W/m 14,8 C 17,3 C 0,0 km/h (0 Bft) 100,00 %
24.07.2019 04:04 17,4 C 26,1 C 15,6 C 85 % 1015,7 hPa 0,0 l/m 0,2 km/h (0 Bft) SW 218 0 min 0,000 mm 0,0 UV-I 0 W/m 14,8 C 17,4 C 1,6 km/h (1 Bft) 100,00 %
24.07.2019 04:06 17,3 C 26,1 C 15,0 C 85 % 1015,8 hPa 0,0 l/m 0,6 km/h (0 Bft) SW 218 0 min 0,000 mm 0,0 UV-I 0 W/m 14,8 C 17,3 C 1,6 km/h (1 Bft) 100,00 %
24.07.2019 04:08 17,4 C 26,1 C 15,0 C 85 % 1015,8 hPa 0,0 l/m 0,6 km/h (0 Bft) SW 218 0 min 0,000 mm 0,0 UV-I 0 W/m 14,8 C 17,4 C 1,6 km/h (1 Bft) 100,00 %
24.07.2019 04:10 17,4 C 26,1 C 15,0 C 85 % 1015,7 hPa 0,0 l/m 0,0 km/h (0 Bft) SW 218 0 min 0,000 mm 0,0 UV-I 0 W/m 14,8 C 17,4 C 0,0 km/h (0 Bft) 100,00 %
24.07.2019 04:12 17,4 C 26,1 C 15,0 C 85 % 1015,7 hPa 0,0 l/m 0,0 km/h (0 Bft) SW 218 0 min 0,000 mm 0,0 UV-I 0 W/m 14,8 C 17,4 C 0,0 km/h (0 Bft) 100,00 %
24.07.2019 04:14 17,4 C 26,1 C 15,0 C 85 % 1015,7 hPa 0,0 l/m 0,0 km/h (0 Bft) SW 218 0 min 0,000 mm 0,0 UV-I 0 W/m 14,8 C 17,4 C 0,0 km/h (0 Bft) 100,00 %
24.07.2019 04:16 17,4 C 26,1 C 15,0 C 85 % 1015,7 hPa 0,0 l/m 1,2 km/h (1 Bft) SW 218 0 min 0,000 mm 0,0 UV-I 0 W/m 14,8 C 17,4 C 3,2 km/h (1 Bft) 98,00 %
24.07.2019 04:18 17,6 C 26,1 C 15,0 C 85 % 1015,7 hPa 0,0 l/m 1,8 km/h (1 Bft) SW 218 0 min 0,000 mm 0,0 UV-I 0 W/m 15,0 C 17,6 C 3,2 km/h (1 Bft) 98,00 %
24.07.2019 04:20 17,7 C 26,1 C 15,0 C 85 % 1015,7 hPa 0,0 l/m 0,0 km/h (0 Bft) SW 218 0 min 0,000 mm 0,0 UV-I 0 W/m 15,1 C 17,7 C 1,6 km/h (1 Bft) 97,73 %
24.07.2019 04:22 17,5 C 26,1 C 15,0 C 85 % 1015,8 hPa 0,0 l/m 0,3 km/h (0 Bft) SW 218 0 min 0,000 mm 0,0 UV-I 0 W/m 14,9 C 17,5 C 1,6 km/h (1 Bft) 97,87 %
24.07.2019 04:24 17,4 C 26,1 C 15,0 C 86 % 1015,7 hPa 0,0 l/m 1,1 km/h (1 Bft) SW 218 0 min 0,000 mm 0,0 UV-I 0 W/m 15,0 C 17,4 C 1,6 km/h (1 Bft) 96,00 %
24.07.2019 04:26 17,3 C 26,1 C 15,0 C 86 % 1015,8 hPa 0,0 l/m 1,0 km/h (0 Bft) SW 218 0 min 0,000 mm 0,0 UV-I 0 W/m 14,9 C 17,3 C 1,6 km/h (1 Bft) 97,22 %
24.07.2019 04:28 17,2 C 26,1 C 15,0 C 86 % 1015,8 hPa 0,0 l/m 1,2 km/h (1 Bft) SW 218 0 min 0,000 mm 0,0 UV-I 0 W/m 14,8 C 17,2 C 1,6 km/h (1 Bft) 94,00 %
24.07.2019 04:30 17,1 C 26,1 C 15,6 C 87 % 1015,8 hPa 0,0 l/m 1,1 km/h (1 Bft) SW 218 0 min 0,000 mm 0,0 UV-I 0 W/m 14,9 C 17,1 C 1,6 km/h (1 Bft) 94,00 %
24.07.2019 04:32 16,9 C 26,1 C 15,6 C 87 % 1015,8 hPa 0,0 l/m 0,2 km/h (0 Bft) SW 218 0 min 0,000 mm 0,0 UV-I 0 W/m 14,7 C 16,9 C 1,6 km/h (1 Bft) 95,12 %
24.07.2019 04:34 16,9 C 26,1 C 15,6 C 88 % 1015,7 hPa 0,0 l/m 0,0 km/h (0 Bft) SW 218 0 min 0,000 mm 0,0 UV-I 0 W/m 14,9 C 16,9 C 0,0 km/h (0 Bft) 96,23 %
24.07.2019 04:36 16,8 C 26,1 C 15,6 C 87 % 1015,7 hPa 0,0 l/m 0,1 km/h (0 Bft) SW 218 0 min 0,000 mm 0,0 UV-I 0 W/m 14,6 C 16,8 C 1,6 km/h (1 Bft) 94,74 %
24.07.2019 04:38 16,6 C 26,1 C 15,6 C 87 % 1015,8 hPa 0,0 l/m 1,4 km/h (1 Bft) SW 218 0 min 0,000 mm 0,0 UV-I 0 W/m 14,4 C 16,6 C 3,2 km/h (1 Bft) 96,43 %
24.07.2019 04:40 16,6 C 26,1 C 15,0 C 89 % 1015,7 hPa 0,0 l/m 2,2 km/h (1 Bft) SW 218 0 min 0,000 mm 0,0 UV-I 0 W/m 14,8 C 16,6 C 3,2 km/h (1 Bft) 95,45 %
24.07.2019 04:42 16,6 C 26,1 C 15,0 C 88 % 1015,7 hPa 0,0 l/m 2,4 km/h (1 Bft) SW 217 0 min 0,000 mm 0,0 UV-I 0 W/m 14,6 C 16,6 C 3,2 km/h (1 Bft) 95,74 %
24.07.2019 04:44 16,8 C 26,1 C 15,0 C 88 % 1015,7 hPa 0,0 l/m 3,2 km/h (1 Bft) SW 217 0 min 0,000 mm 0,0 UV-I 0 W/m 14,8 C 16,8 C 4,8 km/h (1 Bft) 97,37 %
24.07.2019 04:46 17,0 C 26,1 C 15,0 C 88 % 1015,7 hPa 0,0 l/m 3,1 km/h (1 Bft) SW 217 0 min 0,000 mm 0,0 UV-I 0 W/m 15,0 C 17,0 C 4,8 km/h (1 Bft) 96,61 %
24.07.2019 04:48 17,3 C 26,1 C 15,0 C 87 % 1015,7 hPa 0,0 l/m 2,5 km/h (1 Bft) SW 217 0 min 0,000 mm 0,0 UV-I 0 W/m 15,1 C 17,3 C 3,2 km/h (1 Bft) 94,00 %
24.07.2019 04:50 17,4 C 26,1 C 15,0 C 86 % 1015,8 hPa 0,0 l/m 2,3 km/h (1 Bft) SW 217 0 min 0,000 mm 0,0 UV-I 0 W/m 15,0 C 17,4 C 3,2 km/h (1 Bft) 100,00 %
24.07.2019 04:52 17,5 C 26,1 C 15,0 C 85 % 1015,8 hPa 0,0 l/m 0,8 km/h (0 Bft) SW 217 0 min 0,000 mm 0,0 UV-I 0 W/m 14,9 C 17,5 C 3,2 km/h (1 Bft) 96,43 %
24.07.2019 04:54 17,3 C 26,1 C 15,0 C 85 % 1015,8 hPa 0,0 l/m 0,0 km/h (0 Bft) SW 217 0 min 0,000 mm 0,0 UV-I 0 W/m 14,8 C 17,3 C 0,0 km/h (0 Bft) 95,74 %
24.07.2019 04:56 17,1 C 26,1 C 15,0 C 86 % 1015,8 hPa 0,0 l/m 0,0 km/h (0 Bft) SW 217 0 min 0,000 mm 0,0 UV-I 0 W/m 14,7 C 17,1 C 0,0 km/h (0 Bft) 95,74 %
24.07.2019 04:58 17,0 C 26,1 C 14,4 C 87 % 1015,9 hPa 0,0 l/m 0,0 km/h (0 Bft) SW 217 0 min 0,000 mm 0,0 UV-I 0 W/m 14,8 C 17,0 C 0,0 km/h (0 Bft) 93,62 %
24.07.2019 05:00 16,9 C 26,1 C 14,4 C 87 % 1015,9 hPa 0,0 l/m 1,0 km/h (0 Bft) SW 217 0 min 0,000 mm 0,0 UV-I 0 W/m 14,7 C 16,9 C 3,2 km/h (1 Bft) 95,74 %
24.07.2019 05:02 16,8 C 26,1 C 15,0 C 87 % 1015,9 hPa 0,0 l/m 1,7 km/h (1 Bft) SW 217 0 min 0,000 mm 0,0 UV-I 0 W/m 14,6 C 16,8 C 3,2 km/h (1 Bft) 93,62 %
24.07.2019 05:04 16,7 C 26,1 C 15,0 C 87 % 1016,0 hPa 0,0 l/m 2,1 km/h (1 Bft) SW 217 0 min 0,000 mm 0,0 UV-I 0 W/m 14,5 C 16,7 C 3,2 km/h (1 Bft) 95,24 %
24.07.2019 05:06 16,6 C 26,1 C 15,0 C 87 % 1016,0 hPa 0,0 l/m 0,8 km/h (0 Bft) SW 217 0 min 0,000 mm 0,0 UV-I 0 W/m 14,4 C 16,6 C 1,6 km/h (1 Bft) 91,49 %
24.07.2019 05:08 16,5 C 26,1 C 14,4 C 88 % 1016,0 hPa 0,0 l/m 1,0 km/h (0 Bft) SW 217 0 min 0,000 mm 0,0 UV-I 0 W/m 14,5 C 16,5 C 1,6 km/h (1 Bft) 95,74 %
24.07.2019 05:10 16,5 C 26,1 C 14,4 C 88 % 1016,0 hPa 0,0 l/m 0,2 km/h (0 Bft) SW 217 0 min 0,000 mm 0,0 UV-I 2 W/m 14,5 C 16,5 C 1,6 km/h (1 Bft) 95,74 %
24.07.2019 05:12 16,6 C 26,1 C 14,4 C 88 % 1016,0 hPa 0,0 l/m 0,0 km/h (0 Bft) SW 217 0 min 0,000 mm 0,0 UV-I 5 W/m 14,6 C 16,6 C 0,0 km/h (0 Bft) 95,74 %
24.07.2019 05:14 16,4 C 26,1 C 14,4 C 88 % 1016,0 hPa 0,0 l/m 0,4 km/h (0 Bft) SW 217 0 min 0,000 mm 0,0 UV-I 5 W/m 14,4 C 16,4 C 1,6 km/h (1 Bft) 97,87 %
24.07.2019 05:16 16,4 C 26,1 C 14,4 C 88 % 1016,0 hPa 0,0 l/m 0,4 km/h (0 Bft) SW 217 0 min 0,000 mm 0,0 UV-I 5 W/m 14,4 C 16,4 C 1,6 km/h (1 Bft) 97,14 %
24.07.2019 05:18 16,4 C 26,1 C 14,4 C 88 % 1016,1 hPa 0,0 l/m 0,0 km/h (0 Bft) SW 217 0 min 0,000 mm 0,0 UV-I 5 W/m 14,4 C 16,4 C 0,0 km/h (0 Bft) 98,31 %
24.07.2019 05:20 16,4 C 26,1 C 14,4 C 89 % 1016,0 hPa 0,0 l/m 0,5 km/h (0 Bft) SW 217 0 min 0,000 mm 0,0 UV-I 7 W/m 14,6 C 16,4 C 1,6 km/h (1 Bft) 95,74 %
24.07.2019 05:22 16,4 C 26,1 C 14,4 C 88 % 1016,1 hPa 0,0 l/m 1,0 km/h (0 Bft) SW 217 0 min 0,000 mm 0,0 UV-I 7 W/m 14,4 C 16,4 C 1,6 km/h (1 Bft) 97,87 %
24.07.2019 05:24 16,4 C 26,1 C 14,4 C 89 % 1016,1 hPa 0,0 l/m 0,5 km/h (0 Bft) SW 217 0 min 0,000 mm 0,0 UV-I 7 W/m 14,6 C 16,4 C 1,6 km/h (1 Bft) 96,00 %
24.07.2019 05:26 16,4 C 26,1 C 14,4 C 89 % 1016,1 hPa 0,0 l/m 0,7 km/h (0 Bft) SW 217 0 min 0,000 mm 0,0 UV-I 7 W/m 14,6 C 16,4 C 1,6 km/h (1 Bft) 94,74 %
24.07.2019 05:28 16,4 C 26,1 C 14,4 C 89 % 1016,0 hPa 0,0 l/m 1,0 km/h (0 Bft) SW 217 0 min 0,000 mm 0,0 UV-I 9 W/m 14,6 C 16,4 C 1,6 km/h (1 Bft) 98,00 %
24.07.2019 05:30 16,4 C 26,1 C 14,4 C 88 % 1016,0 hPa 0,0 l/m 1,5 km/h (1 Bft) SW 217 0 min 0,000 mm 0,0 UV-I 9 W/m 14,4 C 16,4 C 3,2 km/h (1 Bft) 100,00 %
24.07.2019 05:32 16,4 C 26,1 C 15,0 C 88 % 1016,0 hPa 0,0 l/m 1,2 km/h (1 Bft) SW 217 0 min 0,000 mm 0,0 UV-I 11 W/m 14,4 C 16,4 C 3,2 km/h (1 Bft) 100,00 %
24.07.2019 05:34 16,2 C 26,1 C 15,0 C 88 % 1016,0 hPa 0,0 l/m 1,6 km/h (1 Bft) SW 217 0 min 0,000 mm 0,0 UV-I 11 W/m 14,2 C 16,2 C 3,2 km/h (1 Bft) 97,87 %
24.07.2019 05:36 16,2 C 26,1 C 15,0 C 89 % 1016,0 hPa 0,0 l/m 2,8 km/h (1 Bft) SW 217 0 min 0,000 mm 0,0 UV-I 12 W/m 14,4 C 16,2 C 4,8 km/h (1 Bft) 100,00 %
24.07.2019 05:38 16,3 C 26,1 C 15,0 C 89 % 1016,1 hPa 0,0 l/m 2,3 km/h (1 Bft) SW 217 0 min 0,000 mm 0,0 UV-I 13 W/m 14,5 C 16,3 C 3,2 km/h (1 Bft) 98,11 %
24.07.2019 05:40 16,3 C 26,1 C 15,0 C 89 % 1016,0 hPa 0,0 l/m 1,7 km/h (1 Bft) SW 217 0 min 0,000 mm 0,0 UV-I 14 W/m 14,5 C 16,3 C 3,2 km/h (1 Bft) 100,00 %
24.07.2019 05:42 16,3 C 26,1 C 15,0 C 89 % 1015,9 hPa 0,0 l/m 1,2 km/h (1 Bft) SW 217 2 min 0,000 mm 0,0 UV-I 15 W/m 14,5 C 16,3 C 3,2 km/h (1 Bft) 100,00 %
24.07.2019 05:44 16,3 C 26,1 C 15,0 C 89 % 1015,9 hPa 0,0 l/m 1,4 km/h (1 Bft) SW 217 2 min 0,000 mm 0,0 UV-I 18 W/m 14,5 C 16,3 C 3,2 km/h (1 Bft) 100,00 %
24.07.2019 05:46 16,2 C 26,1 C 15,0 C 89 % 1015,9 hPa 0,0 l/m 3,0 km/h (1 Bft) S 179 2 min 0,000 mm 0,0 UV-I 22 W/m 14,4 C 16,2 C 4,8 km/h (1 Bft) 100,00 %
24.07.2019 05:48 16,2 C 26,1 C 15,0 C 90 % 1015,8 hPa 0,0 l/m 2,6 km/h (1 Bft) S 179 2 min 0,000 mm 0,0 UV-I 26 W/m 14,6 C 16,2 C 4,8 km/h (1 Bft) 100,00 %
24.07.2019 05:50 16,3 C 26,1 C 15,0 C 89 % 1015,9 hPa 0,0 l/m 2,4 km/h (1 Bft) S 179 2 min 0,000 mm 0,0 UV-I 28 W/m 14,5 C 16,3 C 3,2 km/h (1 Bft) 98,00 %
24.07.2019 05:52 16,4 C 26,1 C 15,0 C 89 % 1015,9 hPa 0,0 l/m 2,4 km/h (1 Bft) S 179 2 min 0,000 mm 0,0 UV-I 30 W/m 14,6 C 16,4 C 4,8 km/h (1 Bft) 97,87 %
24.07.2019 05:54 16,4 C 25,6 C 15,0 C 89 % 1015,9 hPa 0,0 l/m 2,3 km/h (1 Bft) S 179 2 min 0,000 mm 0,0 UV-I 33 W/m 14,6 C 16,4 C 3,2 km/h (1 Bft) 98,11 %
24.07.2019 05:56 16,4 C 25,6 C 15,0 C 89 % 1015,9 hPa 0,0 l/m 1,2 km/h (1 Bft) S 179 2 min 0,000 mm 0,0 UV-I 36 W/m 14,6 C 16,4 C 3,2 km/h (1 Bft) 97,56 %
24.07.2019 05:58 16,3 C 25,6 C 15,0 C 89 % 1015,9 hPa 0,0 l/m 0,2 km/h (0 Bft) S 179 2 min 0,000 mm 0,0 UV-I 39 W/m 14,5 C 16,3 C 1,6 km/h (1 Bft) 97,87 %
24.07.2019 06:00 16,3 C 26,1 C 15,0 C 89 % 1015,9 hPa 0,0 l/m 0,1 km/h (0 Bft) S 179 2 min 0,000 mm 0,0 UV-I 43 W/m 14,5 C 16,3 C 1,6 km/h (1 Bft) 97,56 %
24.07.2019 06:02 16,2 C 26,1 C 15,0 C 89 % 1015,9 hPa 0,0 l/m 0,0 km/h (0 Bft) S 179 2 min 0,000 mm 0,0 UV-I 46 W/m 14,4 C 16,2 C 0,0 km/h (0 Bft) 97,87 %
24.07.2019 06:04 16,2 C 25,6 C 15,0 C 90 % 1015,9 hPa 0,0 l/m 0,0 km/h (0 Bft) S 179 2 min 0,000 mm 0,0 UV-I 49 W/m 14,6 C 16,2 C 0,0 km/h (0 Bft) 96,00 %
24.07.2019 06:06 16,3 C 25,6 C 15,0 C 90 % 1015,9 hPa 0,0 l/m 0,9 km/h (0 Bft) S 179 2 min 0,000 mm 0,0 UV-I 52 W/m 14,7 C 16,3 C 3,2 km/h (1 Bft) 97,87 %
24.07.2019 06:08 16,4 C 25,6 C 15,0 C 89 % 1015,9 hPa 0,0 l/m 0,0 km/h (0 Bft) S 179 2 min 0,000 mm 0,0 UV-I 56 W/m 14,6 C 16,4 C 0,0 km/h (0 Bft) 98,11 %
24.07.2019 06:10 16,5 C 25,6 C 15,0 C 89 % 1015,9 hPa 0,0 l/m 0,0 km/h (0 Bft) S 179 2 min 0,000 mm 0,0 UV-I 61 W/m 14,7 C 16,5 C 0,0 km/h (0 Bft) 95,74 %
24.07.2019 06:12 16,6 C 25,6 C 15,0 C 89 % 1015,9 hPa 0,0 l/m 0,0 km/h (0 Bft) S 179 2 min 0,000 mm 0,0 UV-I 65 W/m 14,8 C 16,6 C 0,0 km/h (0 Bft) 97,37 %
24.07.2019 06:14 16,6 C 25,6 C 15,0 C 89 % 1016,0 hPa 0,0 l/m 0,0 km/h (0 Bft) S 179 2 min 0,000 mm 0,0 UV-I 68 W/m 14,8 C 16,6 C 0,0 km/h (0 Bft) 95,74 %
24.07.2019 06:16 16,6 C 25,6 C 15,0 C 89 % 1016,0 hPa 0,0 l/m 0,0 km/h (0 Bft) S 179 2 min 0,000 mm 0,0 UV-I 71 W/m 14,8 C 16,6 C 0,0 km/h (0 Bft) 100,00 %
24.07.2019 06:18 16,7 C 25,6 C 15,0 C 88 % 1016,1 hPa 0,0 l/m 0,0 km/h (0 Bft) S 179 2 min 0,000 mm 0,0 UV-I 72 W/m 14,7 C 16,7 C 0,0 km/h (0 Bft) 94,74 %
24.07.2019 06:20 16,6 C 25,6 C 15,6 C 89 % 1016,1 hPa 0,0 l/m 0,0 km/h (0 Bft) S 179 2 min 0,000 mm 0,0 UV-I 75 W/m 14,8 C 16,6 C 0,0 km/h (0 Bft) 100,00 %
24.07.2019 06:22 16,5 C 25,6 C 15,6 C 89 % 1016,1 hPa 0,0 l/m 1,6 km/h (1 Bft) SW 231 2 min 0,000 mm 0,0 UV-I 84 W/m 14,7 C 16,5 C 3,2 km/h (1 Bft) 100,00 %
24.07.2019 06:24 16,4 C 25,6 C 15,6 C 89 % 1016,1 hPa 0,0 l/m 1,7 km/h (1 Bft) SW 231 2 min 0,000 mm 0,0 UV-I 88 W/m 14,6 C 16,4 C 3,2 km/h (1 Bft) 98,00 %
24.07.2019 06:26 16,4 C 25,6 C 15,6 C 89 % 1016,2 hPa 0,0 l/m 1,4 km/h (1 Bft) SW 231 2 min 0,000 mm 0,0 UV-I 92 W/m 14,6 C 16,4 C 3,2 km/h (1 Bft) 100,00 %
24.07.2019 06:28 16,4 C 25,6 C 15,6 C 90 % 1016,2 hPa 0,0 l/m 1,0 km/h (0 Bft) SW 231 2 min 0,000 mm 0,0 UV-I 98 W/m 14,8 C 16,4 C 1,6 km/h (1 Bft) 97,87 %
24.07.2019 06:30 16,4 C 25,6 C 15,6 C 90 % 1016,1 hPa 0,0 l/m 0,9 km/h (0 Bft) SW 231 2 min 0,000 mm 0,0 UV-I 102 W/m 14,8 C 16,4 C 1,6 km/h (1 Bft) 100,00 %
24.07.2019 06:32 16,6 C 25,6 C 15,6 C 90 % 1016,2 hPa 0,0 l/m 1,0 km/h (0 Bft) SW 231 2 min 0,000 mm 0,0 UV-I 106 W/m 15,0 C 16,6 C 1,6 km/h (1 Bft) 100,00 %
24.07.2019 06:34 16,7 C 25,6 C 15,6 C 90 % 1016,1 hPa 0,0 l/m 1,1 km/h (1 Bft) SW 231 2 min 0,000 mm 0,0 UV-I 111 W/m 15,0 C 16,7 C 1,6 km/h (1 Bft) 100,00 %
24.07.2019 06:36 16,8 C 25,6 C 15,6 C 90 % 1016,1 hPa 0,0 l/m 1,2 km/h (1 Bft) SW 231 2 min 0,000 mm 0,0 UV-I 114 W/m 15,1 C 16,8 C 1,6 km/h (1 Bft) 100,00 %
24.07.2019 06:38 17,0 C 25,6 C 16,1 C 89 % 1016,1 hPa 0,0 l/m 0,9 km/h (0 Bft) SW 231 2 min 0,000 mm 0,0 UV-I 119 W/m 15,2 C 17,0 C 1,6 km/h (1 Bft) 100,00 %
24.07.2019 06:40 17,1 C 25,6 C 16,1 C 89 % 1016,1 hPa 0,0 l/m 1,4 km/h (1 Bft) SW 231 2 min 0,000 mm 0,0 UV-I 125 W/m 15,3 C 17,1 C 1,6 km/h (1 Bft) 98,00 %
24.07.2019 06:42 17,3 C 25,6 C 16,1 C 88 % 1016,1 hPa 0,0 l/m 1,8 km/h (1 Bft) SW 231 2 min 0,000 mm 0,0 UV-I 129 W/m 15,3 C 17,3 C 3,2 km/h (1 Bft) 100,00 %
24.07.2019 06:44 17,4 C 25,6 C 16,1 C 88 % 1016,1 hPa 0,0 l/m 1,2 km/h (1 Bft) SW 231 2 min 0,000 mm 0,0 UV-I 133 W/m 15,4 C 17,4 C 3,2 km/h (1 Bft) 100,00 %
24.07.2019 06:46 17,5 C 25,6 C 16,1 C 87 % 1016,1 hPa 0,0 l/m 0,7 km/h (0 Bft) SW 231 2 min 0,000 mm 0,0 UV-I 139 W/m 15,3 C 17,5 C 1,6 km/h (1 Bft) 100,00 %
24.07.2019 06:48 17,6 C 25,6 C 16,7 C 87 % 1016,0 hPa 0,0 l/m 0,8 km/h (0 Bft) SW 231 2 min 0,000 mm 0,0 UV-I 142 W/m 15,4 C 17,6 C 1,6 km/h (1 Bft) 100,00 %
24.07.2019 06:50 17,7 C 25,6 C 16,7 C 87 % 1016,1 hPa 0,0 l/m 2,3 km/h (1 Bft) SW 233 2 min 0,000 mm 0,0 UV-I 147 W/m 15,5 C 17,7 C 4,8 km/h (1 Bft) 95,74 %
24.07.2019 06:52 17,8 C 25,6 C 16,7 C 86 % 1016,1 hPa 0,0 l/m 2,5 km/h (1 Bft) SW 233 2 min 0,000 mm 0,0 UV-I 153 W/m 15,4 C 17,8 C 3,2 km/h (1 Bft) 100,00 %
24.07.2019 06:54 17,9 C 25,6 C 16,7 C 86 % 1016,1 hPa 0,0 l/m 2,5 km/h (1 Bft) SW 233 2 min 0,000 mm 0,0 UV-I 157 W/m 15,5 C 17,9 C 3,2 km/h (1 Bft) 100,00 %
24.07.2019 06:56 18,1 C 25,6 C 16,7 C 86 % 1016,1 hPa 0,0 l/m 2,5 km/h (1 Bft) SW 233 2 min 0,000 mm 0,0 UV-I 162 W/m 15,7 C 18,1 C 3,2 km/h (1 Bft) 100,00 %
24.07.2019 06:58 18,2 C 25,6 C 17,2 C 86 % 1016,1 hPa 0,0 l/m 3,3 km/h (1 Bft) N 355 2 min 0,000 mm 0,0 UV-I 166 W/m 15,8 C 18,2 C 4,8 km/h (1 Bft) 97,37 %
24.07.2019 07:00 18,4 C 25,6 C 17,2 C 85 % 1016,1 hPa 0,0 l/m 2,4 km/h (1 Bft) N 355 2 min 0,051 mm 0,0 UV-I 173 W/m 15,8 C 18,4 C 3,2 km/h (1 Bft) 100,00 %
24.07.2019 07:02 18,6 C 25,6 C 17,8 C 85 % 1016,2 hPa 0,0 l/m 3,1 km/h (1 Bft) N 355 2 min 0,000 mm 0,0 UV-I 177 W/m 16,0 C 18,6 C 4,8 km/h (1 Bft) 100,00 %
24.07.2019 07:04 18,7 C 25,6 C 17,8 C 85 % 1016,2 hPa 0,0 l/m 3,5 km/h (1 Bft) N-NO 20 2 min 0,000 mm 0,0 UV-I 183 W/m 16,1 C 18,7 C 4,8 km/h (1 Bft) 100,00 %
24.07.2019 07:06 18,9 C 25,6 C 17,8 C 84 % 1016,2 hPa 0,0 l/m 4,2 km/h (1 Bft) NO 40 2 min 0,000 mm 0,0 UV-I 188 W/m 16,1 C 18,9 C 6,4 km/h (2 Bft) 100,00 %
24.07.2019 07:08 19,0 C 25,6 C 18,3 C 84 % 1016,2 hPa 0,0 l/m 5,1 km/h (1 Bft) O-NO 64 2 min 0,000 mm 0,0 UV-I 193 W/m 16,2 C 19,0 C 6,4 km/h (2 Bft) 100,00 %
24.07.2019 07:10 19,1 C 25,6 C 18,3 C 83 % 1016,2 hPa 0,0 l/m 6,1 km/h (2 Bft) O-NO 59 2 min 0,000 mm 0,0 UV-I 198 W/m 16,1 C 19,1 C 11,3 km/h (2 Bft) 100,00 %
24.07.2019 07:12 19,2 C 25,6 C 18,3 C 82 % 1016,2 hPa 0,0 l/m 6,3 km/h (2 Bft) NO 46 2 min 0,000 mm 0,0 UV-I 204 W/m 16,0 C 19,2 C 11,3 km/h (2 Bft) 98,11 %
24.07.2019 07:14 19,3 C 25,6 C 18,3 C 81 % 1016,1 hPa 0,0 l/m 4,7 km/h (1 Bft) O-NO 66 2 min 0,000 mm 0,0 UV-I 209 W/m 16,0 C 19,3 C 8,0 km/h (2 Bft) 92,11 %
24.07.2019 07:16 19,3 C 25,6 C 18,9 C 81 % 1016,2 hPa 0,0 l/m 6,6 km/h (2 Bft) O-NO 69 2 min 0,000 mm 0,0 UV-I 214 W/m 16,0 C 19,2 C 12,9 km/h (3 Bft) 95,74 %
24.07.2019 07:18 19,3 C 25,6 C 18,9 C 80 % 1016,2 hPa 0,0 l/m 5,2 km/h (1 Bft) O 89 2 min 0,000 mm 0,0 UV-I 220 W/m 15,8 C 19,3 C 11,3 km/h (2 Bft) 94,00 %
24.07.2019 07:20 19,4 C 25,6 C 18,9 C 80 % 1016,2 hPa 0,0 l/m 6,0 km/h (2 Bft) O-NO 75 2 min 0,000 mm 0,4 UV-I 225 W/m 15,9 C 19,4 C 11,3 km/h (2 Bft) 96,00 %
24.07.2019 07:22 19,4 C 25,6 C 18,9 C 81 % 1016,2 hPa 0,0 l/m 7,6 km/h (2 Bft) O 85 2 min 0,000 mm 0,5 UV-I 231 W/m 16,1 C 18,9 C 11,3 km/h (2 Bft) 95,12 %
24.07.2019 07:24 19,5 C 25,6 C 18,9 C 80 % 1016,2 hPa 0,0 l/m 6,6 km/h (2 Bft) O 82 2 min 0,000 mm 0,5 UV-I 236 W/m 16,0 C 19,4 C 11,3 km/h (2 Bft) 91,49 %
24.07.2019 07:26 19,5 C 25,6 C 18,9 C 81 % 1016,2 hPa 0,0 l/m 6,9 km/h (2 Bft) O 100 2 min 0,000 mm 0,5 UV-I 242 W/m 16,1 C 19,3 C 12,9 km/h (3 Bft) 95,74 %
24.07.2019 07:28 19,6 C 25,6 C 18,9 C 80 % 1016,2 hPa 0,0 l/m 6,6 km/h (2 Bft) O 83 2 min 0,000 mm 0,5 UV-I 248 W/m 16,1 C 19,5 C 9,7 km/h (2 Bft) 94,34 %
24.07.2019 07:30 19,6 C 25,6 C 18,9 C 81 % 1016,2 hPa 0,0 l/m 5,6 km/h (1 Bft) O 82 2 min 0,000 mm 0,5 UV-I 254 W/m 16,2 C 19,6 C 8,0 km/h (2 Bft) 92,68 %
24.07.2019 07:32 19,7 C 25,6 C 18,9 C 80 % 1016,2 hPa 0,0 l/m 8,0 km/h (2 Bft) O-SO 102 2 min 0,000 mm 0,6 UV-I 259 W/m 16,1 C 19,0 C 12,9 km/h (3 Bft) 94,34 %
24.07.2019 07:34 19,8 C 25,6 C 19,4 C 80 % 1016,2 hPa 0,0 l/m 7,0 km/h (2 Bft) O-NO 59 2 min 0,000 mm 0,6 UV-I 264 W/m 16,2 C 19,6 C 12,9 km/h (3 Bft) 92,31 %
24.07.2019 07:36 19,8 C 25,6 C 19,4 C 80 % 1016,2 hPa 0,0 l/m 7,4 km/h (2 Bft) O-SO 113 2 min 0,000 mm 0,6 UV-I 270 W/m 16,2 C 19,4 C 12,9 km/h (3 Bft) 94,00 %
24.07.2019 07:38 19,9 C 25,6 C 19,4 C 79 % 1016,1 hPa 0,0 l/m 6,8 km/h (2 Bft) O 101 2 min 0,000 mm 0,6 UV-I 275 W/m 16,1 C 19,7 C 11,3 km/h (2 Bft) 88,00 %
24.07.2019 07:40 19,9 C 25,6 C 19,4 C 79 % 1016,1 hPa 0,0 l/m 7,9 km/h (2 Bft) O-SO 117 2 min 0,000 mm 0,7 UV-I 281 W/m 16,1 C 19,3 C 12,9 km/h (3 Bft) 100,00 %
24.07.2019 07:42 20,0 C 25,6 C 19,4 C 79 % 1016,1 hPa 0,0 l/m 6,6 km/h (2 Bft) O-SO 114 2 min 0,000 mm 0,7 UV-I 287 W/m 16,2 C 19,9 C 14,5 km/h (3 Bft) 97,56 %
24.07.2019 07:44 20,1 C 25,6 C 19,4 C 78 % 1016,1 hPa 0,0 l/m 6,2 km/h (2 Bft) O 91 2 min 0,000 mm 0,7 UV-I 292 W/m 16,1 C 20,1 C 12,9 km/h (3 Bft) 92,00 %
24.07.2019 07:46 20,2 C 25,6 C 19,4 C 78 % 1016,1 hPa 0,0 l/m 11,7 km/h (2 Bft) O-SO 117 2 min 0,000 mm 0,7 UV-I 298 W/m 16,2 C 18,3 C 16,1 km/h (3 Bft) 100,00 %
24.07.2019 07:48 20,3 C 25,6 C 19,4 C 78 % 1016,1 hPa 0,0 l/m 8,2 km/h (2 Bft) O 89 2 min 0,000 mm 0,8 UV-I 305 W/m 16,3 C 19,6 C 14,5 km/h (3 Bft) 96,77 %
24.07.2019 07:50 20,3 C 25,6 C 19,4 C 78 % 1016,1 hPa 0,0 l/m 8,8 km/h (2 Bft) NO 53 2 min 0,000 mm 0,8 UV-I 310 W/m 16,3 C 19,4 C 14,5 km/h (3 Bft) 100,00 %
24.07.2019 07:52 20,4 C 25,6 C 20,0 C 78 % 1016,1 hPa 0,0 l/m 11,9 km/h (2 Bft) O 88 2 min 0,000 mm 0,8 UV-I 316 W/m 16,4 C 18,5 C 19,3 km/h (3 Bft) 97,14 %
24.07.2019 07:54 20,4 C 25,6 C 20,0 C 78 % 1016,1 hPa 0,0 l/m 9,2 km/h (2 Bft) O-SO 104 2 min 0,000 mm 0,8 UV-I 322 W/m 16,4 C 19,3 C 12,9 km/h (3 Bft) 98,33 %
24.07.2019 07:56 20,5 C 25,6 C 20,0 C 78 % 1016,1 hPa 0,0 l/m 12,5 km/h (3 Bft) O-NO 63 2 min 0,000 mm 0,9 UV-I 328 W/m 16,5 C 18,5 C 17,7 km/h (3 Bft) 97,56 %
24.07.2019 07:58 20,6 C 25,6 C 20,0 C 77 % 1016,1 hPa 0,0 l/m 11,4 km/h (2 Bft) O 98 2 min 0,000 mm 0,9 UV-I 334 W/m 16,4 C 18,9 C 16,1 km/h (3 Bft) 98,21 %
24.07.2019 08:00 20,6 C 25,6 C 20,0 C 77 % 1016,1 hPa 0,0 l/m 13,3 km/h (3 Bft) O 83 2 min 0,177 mm 0,9 UV-I 340 W/m 16,4 C 18,4 C 17,7 km/h (3 Bft) 92,68 %
24.07.2019 08:02 20,6 C 25,6 C 20,0 C 77 % 1016,1 hPa 0,0 l/m 11,1 km/h (2 Bft) O 97 2 min 0,000 mm 1,0 UV-I 345 W/m 16,4 C 19,0 C 17,7 km/h (3 Bft) 97,56 %
24.07.2019 08:04 20,7 C 25,6 C 20,0 C 78 % 1016,1 hPa 0,0 l/m 8,9 km/h (2 Bft) O 80 2 min 0,000 mm 1,0 UV-I 350 W/m 16,7 C 19,8 C 12,9 km/h (3 Bft) 96,00 %
24.07.2019 08:06 20,7 C 25,6 C 20,0 C 77 % 1016,1 hPa 0,0 l/m 12,8 km/h (3 Bft) O-SO 107 2 min 0,000 mm 1,0 UV-I 357 W/m 16,5 C 18,6 C 17,7 km/h (3 Bft) 98,00 %
24.07.2019 08:08 20,8 C 25,6 C 20,0 C 77 % 1016,0 hPa 0,0 l/m 7,5 km/h (2 Bft) O-SO 113 2 min 0,000 mm 1,0 UV-I 363 W/m 16,6 C 20,4 C 12,9 km/h (3 Bft) 97,44 %
24.07.2019 08:10 20,9 C 25,6 C 20,6 C 77 % 1016,0 hPa 0,0 l/m 13,4 km/h (3 Bft) O 90 2 min 0,000 mm 1,1 UV-I 368 W/m 16,7 C 18,7 C 17,7 km/h (3 Bft) 98,08 %
24.07.2019 08:12 21,0 C 25,6 C 20,6 C 76 % 1016,1 hPa 0,0 l/m 13,0 km/h (3 Bft) O 90 2 min 0,000 mm 1,1 UV-I 373 W/m 16,6 C 18,9 C 17,7 km/h (3 Bft) 97,44 %
24.07.2019 08:14 21,1 C 26,1 C 20,6 C 76 % 1016,1 hPa 0,0 l/m 13,8 km/h (3 Bft) O 88 2 min 0,000 mm 1,1 UV-I 380 W/m 16,7 C 18,9 C 17,7 km/h (3 Bft) 98,11 %
24.07.2019 08:16 21,1 C 25,6 C 20,6 C 76 % 1016,1 hPa 0,0 l/m 14,6 km/h (3 Bft) O 100 2 min 0,000 mm 1,2 UV-I 386 W/m 16,7 C 18,7 C 20,9 km/h (4 Bft) 98,11 %
24.07.2019 08:18 21,1 C 25,6 C 20,6 C 76 % 1016,1 hPa 0,0 l/m 14,1 km/h (3 Bft) O-NO 78 2 min 0,000 mm 1,2 UV-I 391 W/m 16,7 C 18,8 C 16,1 km/h (3 Bft) 98,00 %
24.07.2019 08:20 21,1 C 25,6 C 20,6 C 76 % 1016,1 hPa 0,0 l/m 13,2 km/h (3 Bft) O 98 2 min 0,000 mm 1,2 UV-I 397 W/m 16,7 C 19,0 C 17,7 km/h (3 Bft) 97,56 %
24.07.2019 08:22 21,1 C 25,6 C 20,6 C 76 % 1016,1 hPa 0,0 l/m 13,7 km/h (3 Bft) O-SO 102 2 min 0,000 mm 1,3 UV-I 402 W/m 16,7 C 18,9 C 19,3 km/h (3 Bft) 98,00 %
24.07.2019 08:24 21,2 C 25,6 C 20,6 C 76 % 1016,1 hPa 0,0 l/m 12,2 km/h (2 Bft) O 93 2 min 0,000 mm 1,3 UV-I 408 W/m 16,8 C 19,4 C 16,1 km/h (3 Bft) 96,00 %
24.07.2019 08:26 21,3 C 25,6 C 20,6 C 76 % 1016,1 hPa 0,0 l/m 12,7 km/h (3 Bft) O 91 2 min 0,000 mm 1,3 UV-I 412 W/m 16,9 C 19,4 C 17,7 km/h (3 Bft) 97,37 %
24.07.2019 08:28 21,3 C 25,6 C 21,1 C 75 % 1016,1 hPa 0,0 l/m 9,2 km/h (2 Bft) O-SO 105 2 min 0,000 mm 1,4 UV-I 418 W/m 16,7 C 20,3 C 17,7 km/h (3 Bft) 100,00 %
24.07.2019 08:30 21,5 C 25,6 C 21,1 C 76 % 1016,0 hPa 0,0 l/m 5,9 km/h (2 Bft) O 82 2 min 0,000 mm 1,4 UV-I 425 W/m 17,1 C 21,5 C 9,7 km/h (2 Bft) 100,00 %
24.07.2019 08:32 21,7 C 25,6 C 21,1 C 75 % 1016,1 hPa 0,0 l/m 10,3 km/h (2 Bft) O-NO 62 2 min 0,000 mm 1,4 UV-I 429 W/m 17,1 C 20,4 C 16,1 km/h (3 Bft) 100,00 %
24.07.2019 08:34 21,7 C 25,6 C 21,1 C 74 % 1016,1 hPa 0,0 l/m 10,4 km/h (2 Bft) O 98 2 min 0,000 mm 1,5 UV-I 435 W/m 16,9 C 20,4 C 17,7 km/h (3 Bft) 95,74 %
24.07.2019 08:36 21,8 C 25,6 C 21,1 C 74 % 1016,1 hPa 0,0 l/m 11,1 km/h (2 Bft) O-NO 66 2 min 0,000 mm 1,5 UV-I 441 W/m 17,0 C 20,3 C 17,7 km/h (3 Bft) 100,00 %
24.07.2019 08:38 21,8 C 25,6 C 21,1 C 74 % 1016,1 hPa 0,0 l/m 8,6 km/h (2 Bft) O-NO 69 2 min 0,000 mm 1,5 UV-I 447 W/m 17,0 C 21,0 C 12,9 km/h (3 Bft) 100,00 %
24.07.2019 08:40 21,8 C 25,6 C 21,7 C 74 % 1016,1 hPa 0,0 l/m 8,8 km/h (2 Bft) O-SO 107 2 min 0,000 mm 1,6 UV-I 452 W/m 17,0 C 21,0 C 12,9 km/h (3 Bft) 100,00 %
24.07.2019 08:42 21,9 C 26,1 C 21,7 C 74 % 1016,2 hPa 0,0 l/m 8,8 km/h (2 Bft) O 80 2 min 0,000 mm 1,6 UV-I 458 W/m 17,0 C 21,1 C 12,9 km/h (3 Bft) 100,00 %
24.07.2019 08:44 22,1 C 26,1 C 22,2 C 73 % 1016,2 hPa 0,0 l/m 8,0 km/h (2 Bft) O-SO 103 2 min 0,000 mm 1,7 UV-I 463 W/m 17,0 C 21,6 C 12,9 km/h (3 Bft) 97,56 %
24.07.2019 08:46 22,1 C 25,6 C 22,2 C 73 % 1016,2 hPa 0,0 l/m 7,1 km/h (2 Bft) O-SO 102 2 min 0,000 mm 1,7 UV-I 469 W/m 17,0 C 21,9 C 11,3 km/h (2 Bft) 97,87 %
24.07.2019 08:48 22,2 C 25,6 C 22,2 C 73 % 1016,1 hPa 0,0 l/m 8,4 km/h (2 Bft) O-NO 77 2 min 0,000 mm 1,7 UV-I 474 W/m 17,1 C 21,5 C 14,5 km/h (3 Bft) 98,00 %
24.07.2019 08:50 22,2 C 25,6 C 22,2 C 73 % 1016,1 hPa 0,0 l/m 11,2 km/h (2 Bft) O-NO 66 2 min 0,000 mm 1,8 UV-I 478 W/m 17,1 C 20,8 C 14,5 km/h (3 Bft) 98,11 %
24.07.2019 08:52 22,3 C 26,1 C 22,8 C 73 % 1016,1 hPa 0,0 l/m 8,8 km/h (2 Bft) O-NO 67 2 min 0,000 mm 1,8 UV-I 483 W/m 17,2 C 21,5 C 12,9 km/h (3 Bft) 97,73 %
24.07.2019 08:54 22,6 C 26,1 C 23,3 C 74 % 1016,2 hPa 0,0 l/m 10,1 km/h (2 Bft) O 82 2 min 0,000 mm 1,8 UV-I 489 W/m 17,7 C 21,5 C 14,5 km/h (3 Bft) 97,92 %
24.07.2019 08:56 22,7 C 26,1 C 23,9 C 73 % 1016,1 hPa 0,0 l/m 7,6 km/h (2 Bft) O 98 2 min 0,000 mm 1,9 UV-I 494 W/m 17,6 C 22,3 C 12,9 km/h (3 Bft) 97,37 %
24.07.2019 08:58 22,7 C 26,1 C 23,9 C 72 % 1016,1 hPa 0,0 l/m 8,1 km/h (2 Bft) NO 43 2 min 0,000 mm 1,9 UV-I 499 W/m 17,4 C 22,2 C 14,5 km/h (3 Bft) 98,11 %
24.07.2019 09:00 22,8 C 26,1 C 25,0 C 73 % 1016,1 hPa 0,0 l/m 7,6 km/h (2 Bft) O 80 2 min 0,280 mm 2,0 UV-I 505 W/m 17,7 C 22,4 C 9,7 km/h (2 Bft) 96,00 %
24.07.2019 09:02 23,0 C 26,1 C 25,6 C 73 % 1016,1 hPa 0,0 l/m 8,1 km/h (2 Bft) NO 37 2 min 0,000 mm 2,0 UV-I 510 W/m 17,9 C 22,5 C 11,3 km/h (2 Bft) 97,37 %
24.07.2019 09:04 23,1 C 26,1 C 26,7 C 73 % 1016,1 hPa 0,0 l/m 11,0 km/h (2 Bft) O-NO 74 2 min 0,000 mm 2,1 UV-I 515 W/m 18,0 C 21,8 C 16,1 km/h (3 Bft) 94,64 %
24.07.2019 09:06 23,2 C 26,1 C 28,9 C 71 % 1016,1 hPa 0,0 l/m 7,2 km/h (2 Bft) NO 56 2 min 0,000 mm 2,1 UV-I 521 W/m 17,6 C 23,0 C 12,9 km/h (3 Bft) 95,12 %
24.07.2019 09:08 23,3 C 26,1 C 30,0 C 72 % 1016,1 hPa 0,0 l/m 8,4 km/h (2 Bft) N-NO 22 2 min 0,000 mm 2,2 UV-I 526 W/m 18,0 C 22,7 C 14,5 km/h (3 Bft) 92,00 %
24.07.2019 09:10 23,4 C 26,1 C 31,1 C 71 % 1016,1 hPa 0,0 l/m 10,2 km/h (2 Bft) N-NO 32 2 min 0,000 mm 2,2 UV-I 530 W/m 17,8 C 22,3 C 17,7 km/h (3 Bft) 97,37 %
24.07.2019 09:12 23,4 C 26,1 C 31,1 C 71 % 1016,0 hPa 0,0 l/m 9,3 km/h (2 Bft) O-NO 59 2 min 0,000 mm 2,2 UV-I 530 W/m 17,8 C 22,6 C 14,5 km/h (3 Bft) 98,21 %
24.07.2019 09:14 23,4 C 26,1 C 32,2 C 71 % 1016,0 hPa 0,0 l/m 11,1 km/h (2 Bft) NO 36 2 min 0,000 mm 2,3 UV-I 541 W/m 17,8 C 22,1 C 16,1 km/h (3 Bft) 97,87 %
24.07.2019 09:16 23,6 C 26,1 C 32,2 C 70 % 1016,1 hPa 0,0 l/m 9,5 km/h (2 Bft) O-NO 74 2 min 0,000 mm 2,3 UV-I 546 W/m 17,8 C 22,7 C 16,1 km/h (3 Bft) 98,00 %
24.07.2019 09:18 23,7 C 26,1 C 33,3 C 72 % 1016,1 hPa 0,0 l/m 7,6 km/h (2 Bft) NO 42 2 min 0,000 mm 2,3 UV-I 549 W/m 18,3 C 23,3 C 12,9 km/h (3 Bft) 92,11 %
24.07.2019 09:20 23,7 C 26,1 C 32,8 C 71 % 1016,1 hPa 0,0 l/m 8,7 km/h (2 Bft) N-NO 26 2 min 0,000 mm 2,4 UV-I 555 W/m 18,1 C 23,0 C 12,9 km/h (3 Bft) 98,21 %
24.07.2019 09:22 23,7 C 26,1 C 32,8 C 70 % 1016,1 hPa 0,0 l/m 6,8 km/h (2 Bft) N-NO 30 2 min 0,000 mm 2,4 UV-I 561 W/m 17,9 C 23,6 C 9,7 km/h (2 Bft) 97,37 %
24.07.2019 09:24 23,7 C 26,1 C 33,9 C 70 % 1016,1 hPa 0,0 l/m 6,3 km/h (2 Bft) O-NO 67 2 min 0,000 mm 2,5 UV-I 566 W/m 17,9 C 23,7 C 11,3 km/h (2 Bft) 96,00 %
24.07.2019 09:26 23,8 C 26,1 C 33,9 C 69 % 1016,1 hPa 0,0 l/m 8,4 km/h (2 Bft) NO 48 2 min 0,000 mm 2,5 UV-I 571 W/m 17,8 C 23,2 C 12,9 km/h (3 Bft) 95,74 %
24.07.2019 09:28 23,8 C 26,1 C 35,0 C 69 % 1016,0 hPa 0,0 l/m 5,9 km/h (2 Bft) O-SO 106 2 min 0,000 mm 2,6 UV-I 576 W/m 17,8 C 23,8 C 11,3 km/h (2 Bft) 98,00 %
24.07.2019 09:30 23,8 C 26,1 C 35,0 C 70 % 1016,0 hPa 0,0 l/m 8,7 km/h (2 Bft) NO 53 2 min 0,000 mm 2,6 UV-I 580 W/m 18,0 C 23,2 C 12,9 km/h (3 Bft) 97,87 %
24.07.2019 09:32 23,9 C 26,1 C 35,0 C 69 % 1016,0 hPa 0,0 l/m 7,6 km/h (2 Bft) O 94 2 min 0,000 mm 2,7 UV-I 585 W/m 17,9 C 23,6 C 11,3 km/h (2 Bft) 97,44 %
24.07.2019 09:34 23,9 C 26,1 C 35,6 C 68 % 1016,0 hPa 0,0 l/m 5,9 km/h (2 Bft) O-NO 61 2 min 0,000 mm 2,7 UV-I 590 W/m 17,6 C 23,9 C 9,7 km/h (2 Bft) 96,00 %
24.07.2019 09:36 23,9 C 26,1 C 35,6 C 70 % 1016,0 hPa 0,0 l/m 6,9 km/h (2 Bft) O-NO 57 2 min 0,000 mm 2,8 UV-I 596 W/m 18,1 C 23,8 C 9,7 km/h (2 Bft) 97,87 %
24.07.2019 09:38 24,0 C 26,1 C 35,6 C 69 % 1016,0 hPa 0,0 l/m 9,9 km/h (2 Bft) NO 55 2 min 0,000 mm 2,8 UV-I 600 W/m 18,0 C 23,1 C 16,1 km/h (3 Bft) 100,00 %
24.07.2019 09:40 24,1 C 26,1 C 36,1 C 68 % 1016,0 hPa 0,0 l/m 6,6 km/h (2 Bft) O 81 2 min 0,000 mm 2,9 UV-I 606 W/m 17,8 C 24,1 C 11,3 km/h (2 Bft) 100,00 %
24.07.2019 09:42 24,1 C 26,1 C 36,7 C 69 % 1016,0 hPa 0,0 l/m 8,5 km/h (2 Bft) O-NO 60 2 min 0,000 mm 2,9 UV-I 612 W/m 18,0 C 23,5 C 16,1 km/h (3 Bft) 100,00 %
24.07.2019 09:44 24,3 C 26,1 C 36,7 C 67 % 1015,9 hPa 0,0 l/m 7,8 km/h (2 Bft) O-NO 67 2 min 0,000 mm 3,0 UV-I 615 W/m 17,8 C 23,9 C 14,5 km/h (3 Bft) 100,00 %
24.07.2019 09:46 24,2 C 26,1 C 36,7 C 66 % 1015,9 hPa 0,0 l/m 9,4 km/h (2 Bft) O 84 2 min 0,000 mm 3,0 UV-I 621 W/m 17,4 C 23,4 C 12,9 km/h (3 Bft) 100,00 %
24.07.2019 09:48 24,3 C 26,1 C 37,2 C 67 % 1015,9 hPa 0,0 l/m 6,7 km/h (2 Bft) NO 38 2 min 0,000 mm 3,1 UV-I 625 W/m 17,8 C 24,2 C 9,7 km/h (2 Bft) 100,00 %
24.07.2019 09:50 24,5 C 26,1 C 37,8 C 67 % 1015,9 hPa 0,0 l/m 8,2 km/h (2 Bft) O-NO 77 2 min 0,000 mm 3,1 UV-I 629 W/m 18,0 C 24,0 C 11,3 km/h (2 Bft) 100,00 %
24.07.2019 09:52 24,4 C 26,1 C 37,8 C 65 % 1015,9 hPa 0,0 l/m 5,4 km/h (1 Bft) NO 36 2 min 0,000 mm 3,1 UV-I 634 W/m 17,4 C 24,4 C 11,3 km/h (2 Bft) 100,00 %
24.07.2019 09:54 24,6 C 26,1 C 37,8 C 69 % 1015,9 hPa 0,0 l/m 8,3 km/h (2 Bft) NO 46 2 min 0,000 mm 3,2 UV-I 638 W/m 18,5 C 24,1 C 12,9 km/h (3 Bft) 97,87 %
24.07.2019 09:56 24,7 C 26,1 C 37,8 C 66 % 1015,9 hPa 0,0 l/m 5,3 km/h (1 Bft) O 87 2 min 0,000 mm 3,2 UV-I 642 W/m 17,9 C 24,7 C 12,9 km/h (3 Bft) 100,00 %
24.07.2019 09:58 24,7 C 26,1 C 38,3 C 66 % 1015,9 hPa 0,0 l/m 7,0 km/h (2 Bft) N-NO 32 2 min 0,000 mm 3,3 UV-I 648 W/m 17,9 C 24,5 C 9,7 km/h (2 Bft) 100,00 %
24.07.2019 10:00 24,9 C 26,1 C 37,8 C 67 % 1015,9 hPa 0,0 l/m 8,0 km/h (2 Bft) O-NO 74 2 min 0,406 mm 3,3 UV-I 653 W/m 18,3 C 24,5 C 11,3 km/h (2 Bft) 100,00 %
24.07.2019 10:02 25,1 C 26,1 C 37,8 C 66 % 1015,9 hPa 0,0 l/m 6,5 km/h (2 Bft) O-NO 69 2 min 0,000 mm 3,0 UV-I 657 W/m 18,3 C 25,1 C 9,7 km/h (2 Bft) 100,00 %
24.07.2019 10:04 25,2 C 26,1 C 37,2 C 66 % 1015,9 hPa 0,0 l/m 7,4 km/h (2 Bft) O-NO 61 2 min 0,000 mm 3,4 UV-I 660 W/m 18,4 C 25,0 C 12,9 km/h (3 Bft) 96,23 %
24.07.2019 10:06 25,0 C 26,1 C 37,2 C 66 % 1016,0 hPa 0,0 l/m 4,1 km/h (1 Bft) O 98 2 min 0,000 mm 3,5 UV-I 666 W/m 18,2 C 25,0 C 8,0 km/h (2 Bft) 100,00 %
24.07.2019 10:08 25,1 C 26,1 C 37,8 C 64 % 1015,9 hPa 0,0 l/m 8,2 km/h (2 Bft) O 90 2 min 0,000 mm 3,6 UV-I 671 W/m 17,8 C 24,7 C 11,3 km/h (2 Bft) 100,00 %
24.07.2019 10:10 25,1 C 26,1 C 37,8 C 64 % 1015,9 hPa 0,0 l/m 5,6 km/h (1 Bft) O 94 2 min 0,000 mm 3,6 UV-I 674 W/m 17,8 C 25,1 C 12,9 km/h (3 Bft) 100,00 %
24.07.2019 10:12 25,1 C 26,1 C 38,3 C 64 % 1015,9 hPa 0,0 l/m 7,8 km/h (2 Bft) O-SO 103 2 min 0,000 mm 3,7 UV-I 679 W/m 17,8 C 24,8 C 12,9 km/h (3 Bft) 100,00 %
24.07.2019 10:14 25,1 C 26,1 C 38,9 C 63 % 1015,9 hPa 0,0 l/m 8,8 km/h (2 Bft) O 94 2 min 0,000 mm 3,7 UV-I 683 W/m 17,5 C 24,5 C 14,5 km/h (3 Bft) 100,00 %
24.07.2019 10:16 25,0 C 26,1 C 38,9 C 63 % 1015,8 hPa 0,0 l/m 3,0 km/h (1 Bft) O 98 2 min 0,000 mm 3,8 UV-I 687 W/m 17,5 C 25,0 C 6,4 km/h (2 Bft) 100,00 %
24.07.2019 10:18 25,2 C 26,1 C 39,4 C 66 % 1015,9 hPa 0,0 l/m 5,9 km/h (2 Bft) O-NO 71 2 min 0,000 mm 3,8 UV-I 690 W/m 18,4 C 25,2 C 9,7 km/h (2 Bft) 97,37 %
24.07.2019 10:20 25,4 C 26,1 C 38,9 C 66 % 1015,9 hPa 0,0 l/m 7,6 km/h (2 Bft) N-NO 29 2 min 0,000 mm 3,8 UV-I 695 W/m 18,6 C 25,1 C 12,9 km/h (3 Bft) 97,56 %
24.07.2019 10:22 25,7 C 26,1 C 38,9 C 63 % 1015,9 hPa 0,0 l/m 6,4 km/h (2 Bft) O-NO 76 2 min 0,000 mm 3,7 UV-I 700 W/m 18,1 C 25,7 C 11,3 km/h (2 Bft) 97,87 %
24.07.2019 10:24 25,9 C 26,1 C 39,4 C 67 % 1015,9 hPa 0,0 l/m 7,5 km/h (2 Bft) O-NO 68 2 min 0,000 mm 3,8 UV-I 702 W/m 19,3 C 25,7 C 9,7 km/h (2 Bft) 98,11 %
24.07.2019 10:26 26,1 C 26,1 C 38,9 C 63 % 1015,9 hPa 0,0 l/m 6,4 km/h (2 Bft) O 94 2 min 0,000 mm 4,0 UV-I 706 W/m 18,5 C 26,1 C 9,7 km/h (2 Bft) 95,74 %
24.07.2019 10:28 25,8 C 26,1 C 38,9 C 62 % 1015,9 hPa 0,0 l/m 4,3 km/h (1 Bft) NO 39 2 min 0,000 mm 4,1 UV-I 709 W/m 18,0 C 25,8 C 9,7 km/h (2 Bft) 98,11 %
24.07.2019 10:30 25,8 C 26,1 C 38,9 C 62 % 1015,9 hPa 0,0 l/m 7,0 km/h (2 Bft) O 82 2 min 0,000 mm 4,1 UV-I 714 W/m 18,0 C 25,7 C 11,3 km/h (2 Bft) 97,87 %
24.07.2019 10:32 25,8 C 26,1 C 38,9 C 65 % 1015,9 hPa 0,0 l/m 8,8 km/h (2 Bft) O 86 2 min 0,000 mm 4,1 UV-I 717 W/m 18,7 C 25,3 C 12,9 km/h (3 Bft) 100,00 %
24.07.2019 10:34 26,0 C 26,1 C 38,9 C 65 % 1015,9 hPa 0,0 l/m 8,3 km/h (2 Bft) N-NO 28 2 min 0,000 mm 4,2 UV-I 720 W/m 18,9 C 25,6 C 14,5 km/h (3 Bft) 95,52 %
24.07.2019 10:36 26,2 C 26,1 C 38,9 C 63 % 1015,9 hPa 0,0 l/m 8,3 km/h (2 Bft) NO 52 2 min 0,000 mm 4,2 UV-I 724 W/m 18,6 C 25,8 C 12,9 km/h (3 Bft) 97,56 %
24.07.2019 10:38 26,2 C 26,1 C 39,4 C 64 % 1015,8 hPa 0,0 l/m 7,0 km/h (2 Bft) O 81 2 min 0,000 mm 4,2 UV-I 726 W/m 18,8 C 26,1 C 11,3 km/h (2 Bft) 98,00 %
24.07.2019 10:40 26,1 C 26,1 C 40,0 C 62 % 1015,8 hPa 0,0 l/m 3,2 km/h (1 Bft) O-NO 65 2 min 0,000 mm 4,3 UV-I 731 W/m 18,2 C 26,1 C 9,7 km/h (2 Bft) 95,74 %
24.07.2019 10:42 26,1 C 26,1 C 40,0 C 63 % 1015,8 hPa 0,0 l/m 5,8 km/h (2 Bft) O 83 2 min 0,000 mm 4,4 UV-I 732 W/m 18,5 C 26,1 C 8,0 km/h (2 Bft) 97,87 %
24.07.2019 10:44 26,3 C 26,1 C 40,0 C 65 % 1015,7 hPa 0,0 l/m 9,0 km/h (2 Bft) O-NO 78 2 min 0,000 mm 4,4 UV-I 740 W/m 19,2 C 25,8 C 14,5 km/h (3 Bft) 97,92 %
24.07.2019 10:46 26,3 C 26,1 C 39,4 C 62 % 1015,7 hPa 0,0 l/m 4,3 km/h (1 Bft) O-NO 68 2 min 0,000 mm 4,5 UV-I 743 W/m 18,4 C 26,3 C 9,7 km/h (2 Bft) 100,00 %
24.07.2019 10:48 26,3 C 26,1 C 40,0 C 65 % 1015,7 hPa 0,0 l/m 6,1 km/h (2 Bft) O-NO 58 2 min 0,000 mm 4,5 UV-I 746 W/m 19,2 C 26,3 C 14,5 km/h (3 Bft) 97,87 %
24.07.2019 10:50 26,6 C 26,1 C 40,0 C 65 % 1015,7 hPa 0,0 l/m 7,6 km/h (2 Bft) O 87 2 min 0,000 mm 4,6 UV-I 751 W/m 19,5 C 26,4 C 11,3 km/h (2 Bft) 100,00 %
24.07.2019 10:52 26,6 C 26,1 C 40,0 C 62 % 1015,7 hPa 0,0 l/m 8,1 km/h (2 Bft) O-NO 78 2 min 0,000 mm 4,6 UV-I 751 W/m 18,7 C 26,3 C 12,9 km/h (3 Bft) 100,00 %
24.07.2019 10:54 26,6 C 26,1 C 40,0 C 60 % 1015,7 hPa 0,0 l/m 3,4 km/h (1 Bft) NO 44 2 min 0,000 mm 4,7 UV-I 753 W/m 18,2 C 26,6 C 9,7 km/h (2 Bft) 100,00 %
24.07.2019 10:56 26,6 C 26,1 C 38,9 C 62 % 1015,7 hPa 0,0 l/m 9,3 km/h (2 Bft) NO 46 2 min 0,000 mm 4,7 UV-I 761 W/m 18,7 C 26,0 C 14,5 km/h (3 Bft) 98,00 %
24.07.2019 10:58 26,7 C 26,1 C 38,3 C 61 % 1015,7 hPa 0,0 l/m 8,7 km/h (2 Bft) NO 39 2 min 0,000 mm 4,8 UV-I 762 W/m 18,5 C 26,3 C 14,5 km/h (3 Bft) 100,00 %
24.07.2019 11:00 26,8 C 26,1 C 37,8 C 61 % 1015,7 hPa 0,0 l/m 9,5 km/h (2 Bft) O-NO 67 2 min 0,000 mm 4,8 UV-I 766 W/m 18,6 C 26,2 C 12,9 km/h (3 Bft) 100,00 %
24.07.2019 11:02 26,7 C 26,1 C 38,9 C 60 % 1015,7 hPa 0,0 l/m 6,1 km/h (2 Bft) O 93 2 min 0,483 mm 4,8 UV-I 766 W/m 18,3 C 26,7 C 9,7 km/h (2 Bft) 96,00 %
24.07.2019 11:04 26,7 C 26,1 C 38,9 C 60 % 1015,7 hPa 0,0 l/m 5,7 km/h (1 Bft) N 355 2 min 0,000 mm 4,9 UV-I 773 W/m 18,3 C 26,7 C 9,7 km/h (2 Bft) 97,56 %
24.07.2019 11:06 26,9 C 26,1 C 39,4 C 63 % 1015,7 hPa 0,0 l/m 7,6 km/h (2 Bft) O-NO 65 2 min 0,000 mm 5,0 UV-I 778 W/m 19,2 C 26,7 C 11,3 km/h (2 Bft) 96,00 %
24.07.2019 11:08 27,2 C 26,1 C 39,4 C 60 % 1015,7 hPa 0,0 l/m 10,6 km/h (2 Bft) NO 45 2 min 0,000 mm 5,0 UV-I 780 W/m 18,7 C 26,5 C 14,5 km/h (3 Bft) 98,00 %
24.07.2019 11:10 27,4 C 26,1 C 39,4 C 62 % 1015,7 hPa 0,0 l/m 10,1 km/h (2 Bft) O-NO 69 2 min 0,000 mm 5,0 UV-I 785 W/m 19,5 C 26,8 C 14,5 km/h (3 Bft) 94,29 %
24.07.2019 11:12 27,4 C 26,1 C 40,6 C 60 % 1015,7 hPa 0,0 l/m 5,4 km/h (1 Bft) NO 48 2 min 0,000 mm 4,8 UV-I 787 W/m 18,9 C 27,4 C 9,7 km/h (2 Bft) 98,11 %
24.07.2019 11:14 27,4 C 26,1 C 39,4 C 61 % 1015,6 hPa 0,0 l/m 10,0 km/h (2 Bft) O 90 2 min 0,000 mm 5,1 UV-I 790 W/m 19,2 C 26,8 C 14,5 km/h (3 Bft) 98,00 %
24.07.2019 11:16 27,4 C 26,1 C 40,6 C 59 % 1015,5 hPa 0,0 l/m 5,5 km/h (1 Bft) N-NO 32 2 min 0,000 mm 4,2 UV-I 791 W/m 18,7 C 27,4 C 9,7 km/h (2 Bft) 97,87 %
24.07.2019 11:18 27,5 C 26,1 C 39,4 C 58 % 1015,5 hPa 0,0 l/m 9,6 km/h (2 Bft) NO 54 2 min 0,000 mm 5,2 UV-I 795 W/m 18,5 C 27,0 C 14,5 km/h (3 Bft) 97,56 %
24.07.2019 11:20 27,6 C 26,1 C 40,0 C 59 % 1015,6 hPa 0,0 l/m 10,5 km/h (2 Bft) O-NO 71 2 min 0,000 mm 5,3 UV-I 796 W/m 18,8 C 27,0 C 17,7 km/h (3 Bft) 97,78 %
24.07.2019 11:22 27,7 C 26,1 C 40,0 C 59 % 1015,5 hPa 0,0 l/m 9,2 km/h (2 Bft) O 100 2 min 0,000 mm 5,3 UV-I 800 W/m 18,9 C 27,3 C 14,5 km/h (3 Bft) 97,87 %
24.07.2019 11:24 27,7 C 26,1 C 40,6 C 58 % 1015,5 hPa 0,0 l/m 6,7 km/h (2 Bft) O-SO 122 2 min 0,000 mm 5,1 UV-I 805 W/m 18,7 C 27,7 C 11,3 km/h (2 Bft) 98,00 %
24.07.2019 11:26 27,7 C 26,1 C 41,7 C 57 % 1015,5 hPa 0,0 l/m 6,5 km/h (2 Bft) NO 47 2 min 0,000 mm 4,9 UV-I 804 W/m 18,4 C 27,7 C 11,3 km/h (2 Bft) 95,45 %
24.07.2019 11:28 27,8 C 26,1 C 41,1 C 58 % 1015,5 hPa 0,0 l/m 7,9 km/h (2 Bft) NO 56 2 min 0,000 mm 5,4 UV-I 808 W/m 18,8 C 27,6 C 9,7 km/h (2 Bft) 95,45 %
24.07.2019 11:30 28,1 C 26,1 C 41,7 C 57 % 1015,5 hPa 0,0 l/m 7,2 km/h (2 Bft) O-NO 74 2 min 0,000 mm 5,4 UV-I 809 W/m 18,8 C 28,0 C 9,7 km/h (2 Bft) 94,74 %
24.07.2019 11:32 28,1 C 26,1 C 42,2 C 57 % 1015,5 hPa 0,0 l/m 6,8 km/h (2 Bft) O 82 2 min 0,000 mm 5,5 UV-I 791 W/m 18,8 C 28,0 C 12,9 km/h (3 Bft) 94,12 %
24.07.2019 11:34 28,1 C 26,1 C 42,8 C 58 % 1015,6 hPa 0,0 l/m 4,8 km/h (1 Bft) N-NO 31 2 min 0,000 mm 5,6 UV-I 810 W/m 19,0 C 28,1 C 9,7 km/h (2 Bft) 97,37 %
24.07.2019 11:36 28,2 C 26,1 C 41,7 C 56 % 1015,5 hPa 0,0 l/m 10,9 km/h (2 Bft) NO 34 2 min 0,000 mm 5,6 UV-I 819 W/m 18,6 C 27,6 C 14,5 km/h (3 Bft) 94,00 %
24.07.2019 11:38 28,4 C 26,1 C 41,7 C 55 % 1015,5 hPa 0,0 l/m 8,3 km/h (2 Bft) O-NO 58 2 min 0,000 mm 5,6 UV-I 820 W/m 18,5 C 28,1 C 11,3 km/h (2 Bft) 98,00 %
24.07.2019 11:40 28,4 C 26,1 C 41,7 C 56 % 1015,5 hPa 0,0 l/m 9,8 km/h (2 Bft) NO 49 2 min 0,000 mm 5,7 UV-I 823 W/m 18,8 C 27,9 C 14,5 km/h (3 Bft) 95,74 %
24.07.2019 11:42 28,5 C 26,1 C 41,7 C 57 % 1015,5 hPa 0,0 l/m 7,6 km/h (2 Bft) O-NO 71 2 min 0,000 mm 5,7 UV-I 826 W/m 19,1 C 28,3 C 9,7 km/h (2 Bft) 95,74 %
24.07.2019 11:44 28,5 C 26,1 C 40,6 C 55 % 1015,4 hPa 0,0 l/m 9,4 km/h (2 Bft) O-NO 62 2 min 0,000 mm 5,7 UV-I 828 W/m 18,6 C 28,1 C 14,5 km/h (3 Bft) 95,12 %
24.07.2019 11:46 28,7 C 26,1 C 41,7 C 54 % 1015,4 hPa 0,0 l/m 10,6 km/h (2 Bft) O 93 2 min 0,000 mm 5,8 UV-I 828 W/m 18,5 C 28,2 C 16,1 km/h (3 Bft) 97,87 %
24.07.2019 11:48 28,7 C 26,1 C 41,1 C 52 % 1015,4 hPa 0,0 l/m 11,2 km/h (2 Bft) O 97 2 min 0,000 mm 5,8 UV-I 834 W/m 17,8 C 28,1 C 16,1 km/h (3 Bft) 97,87 %
24.07.2019 11:50 28,5 C 26,1 C 41,7 C 53 % 1015,4 hPa 0,0 l/m 8,4 km/h (2 Bft) O-SO 108 2 min 0,000 mm 5,8 UV-I 833 W/m 18,0 C 28,2 C 14,5 km/h (3 Bft) 98,00 %
24.07.2019 11:52 28,5 C 26,1 C 42,2 C 57 % 1015,4 hPa 0,0 l/m 7,9 km/h (2 Bft) N-NO 27 2 min 0,000 mm 5,9 UV-I 836 W/m 19,1 C 28,3 C 11,3 km/h (2 Bft) 96,00 %
24.07.2019 11:54 28,7 C 26,1 C 42,2 C 56 % 1015,4 hPa 0,0 l/m 7,0 km/h (2 Bft) NO 49 2 min 0,000 mm 5,9 UV-I 838 W/m 19,0 C 28,6 C 8,0 km/h (2 Bft) 97,87 %
24.07.2019 11:56 28,9 C 26,1 C 42,2 C 55 % 1015,4 hPa 0,0 l/m 7,7 km/h (2 Bft) NO 50 2 min 0,000 mm 5,9 UV-I 838 W/m 18,9 C 28,7 C 11,3 km/h (2 Bft) 91,49 %
24.07.2019 11:58 29,0 C 26,1 C 41,7 C 56 % 1015,4 hPa 0,0 l/m 9,4 km/h (2 Bft) O-NO 60 2 min 0,000 mm 5,9 UV-I 841 W/m 19,3 C 28,6 C 16,1 km/h (3 Bft) 97,44 %
24.07.2019 12:00 29,0 C 26,1 C 41,7 C 53 % 1015,4 hPa 0,0 l/m 9,8 km/h (2 Bft) O-SO 111 2 min 0,584 mm 6,0 UV-I 842 W/m 18,4 C 28,6 C 16,1 km/h (3 Bft) 93,62 %
24.07.2019 12:02 29,1 C 26,7 C 42,8 C 55 % 1015,4 hPa 0,0 l/m 7,1 km/h (2 Bft) N-NO 23 2 min 0,000 mm 6,0 UV-I 844 W/m 19,1 C 29,0 C 14,5 km/h (3 Bft) 97,37 %
24.07.2019 12:04 29,3 C 26,7 C 41,7 C 56 % 1015,4 hPa 0,0 l/m 8,7 km/h (2 Bft) N-NO 26 2 min 0,000 mm 5,9 UV-I 843 W/m 19,6 C 29,0 C 12,9 km/h (3 Bft) 95,16 %
24.07.2019 12:06 29,4 C 26,1 C 42,2 C 56 % 1015,3 hPa 0,0 l/m 9,7 km/h (2 Bft) NO 48 2 min 0,000 mm 6,0 UV-I 845 W/m 19,7 C 29,1 C 17,7 km/h (3 Bft) 94,74 %
24.07.2019 12:08 29,5 C 26,7 C 41,7 C 57 % 1015,4 hPa 0,0 l/m 10,6 km/h (2 Bft) NO 46 2 min 0,000 mm 6,0 UV-I 847 W/m 20,1 C 29,1 C 14,5 km/h (3 Bft) 96,23 %
24.07.2019 12:10 29,6 C 26,7 C 41,7 C 53 % 1015,4 hPa 0,0 l/m 8,5 km/h (2 Bft) NO 53 2 min 0,000 mm 6,1 UV-I 850 W/m 19,0 C 29,4 C 14,5 km/h (3 Bft) 92,11 %
24.07.2019 12:12 29,6 C 26,7 C 43,3 C 54 % 1015,4 hPa 0,0 l/m 6,3 km/h (2 Bft) O 83 2 min 0,000 mm 6,1 UV-I 852 W/m 19,3 C 29,6 C 11,3 km/h (2 Bft) 96,00 %
24.07.2019 12:14 29,6 C 26,7 C 43,3 C 53 % 1015,4 hPa 0,0 l/m 8,3 km/h (2 Bft) O-NO 63 2 min 0,000 mm 6,1 UV-I 852 W/m 19,0 C 29,4 C 12,9 km/h (3 Bft) 96,23 %
24.07.2019 12:16 29,4 C 26,7 C 41,7 C 52 % 1015,3 hPa 0,0 l/m 8,9 km/h (2 Bft) O-NO 57 2 min 0,000 mm 6,2 UV-I 850 W/m 18,5 C 29,1 C 14,5 km/h (3 Bft) 95,45 %
24.07.2019 12:18 29,4 C 26,7 C 41,1 C 56 % 1015,3 hPa 0,0 l/m 8,5 km/h (2 Bft) O-NO 63 2 min 0,000 mm 6,2 UV-I 850 W/m 19,7 C 29,2 C 12,9 km/h (3 Bft) 94,00 %
24.07.2019 12:20 29,6 C 26,7 C 40,6 C 53 % 1015,3 hPa 0,0 l/m 14,7 km/h (3 Bft) NO 56 2 min 0,000 mm 6,2 UV-I 852 W/m 19,0 C 28,9 C 20,9 km/h (4 Bft) 97,56 %
24.07.2019 12:22 29,7 C 26,7 C 41,1 C 57 % 1015,3 hPa 0,0 l/m 10,3 km/h (2 Bft) NO 46 2 min 0,000 mm 6,2 UV-I 856 W/m 20,2 C 29,3 C 14,5 km/h (3 Bft) 97,73 %
24.07.2019 12:24 29,9 C 26,7 C 42,2 C 56 % 1015,3 hPa 0,0 l/m 9,6 km/h (2 Bft) O-NO 73 2 min 0,000 mm 6,3 UV-I 859 W/m 20,1 C 29,6 C 14,5 km/h (3 Bft) 94,12 %
24.07.2019 12:26 30,0 C 26,7 C 42,8 C 52 % 1015,3 hPa 0,0 l/m 10,2 km/h (2 Bft) N-NO 26 2 min 0,000 mm 6,3 UV-I 862 W/m 19,0 C 29,7 C 14,5 km/h (3 Bft) 97,87 %
24.07.2019 12:28 30,2 C 26,7 C 41,7 C 51 % 1015,3 hPa 0,0 l/m 9,9 km/h (2 Bft) O-NO 69 2 min 0,000 mm 6,3 UV-I 858 W/m 18,9 C 29,9 C 16,1 km/h (3 Bft) 98,11 %
24.07.2019 12:30 30,0 C 26,7 C 42,8 C 52 % 1015,3 hPa 0,0 l/m 7,1 km/h (2 Bft) O-NO 57 2 min 0,000 mm 6,3 UV-I 861 W/m 19,0 C 29,9 C 16,1 km/h (3 Bft) 100,00 %
24.07.2019 12:32 29,9 C 26,7 C 42,8 C 50 % 1015,3 hPa 0,0 l/m 13,3 km/h (3 Bft) O-NO 62 2 min 0,000 mm 6,3 UV-I 861 W/m 18,3 C 29,3 C 19,3 km/h (3 Bft) 100,00 %
24.07.2019 12:34 29,9 C 26,7 C 42,2 C 50 % 1015,2 hPa 0,0 l/m 12,8 km/h (3 Bft) O 94 2 min 0,000 mm 6,4 UV-I 862 W/m 18,3 C 29,4 C 17,7 km/h (3 Bft) 97,56 %
24.07.2019 12:36 29,9 C 26,7 C 42,8 C 49 % 1015,3 hPa 0,0 l/m 9,3 km/h (2 Bft) O-NO 61 2 min 0,000 mm 6,4 UV-I 867 W/m 18,0 C 29,6 C 14,5 km/h (3 Bft) 100,00 %
24.07.2019 12:38 29,8 C 26,7 C 43,3 C 53 % 1015,3 hPa 0,0 l/m 9,7 km/h (2 Bft) O 92 2 min 0,000 mm 6,4 UV-I 868 W/m 19,2 C 29,5 C 14,5 km/h (3 Bft) 100,00 %
24.07.2019 12:40 29,8 C 26,7 C 43,3 C 49 % 1015,3 hPa 0,0 l/m 5,3 km/h (1 Bft) O 79 2 min 0,000 mm 6,4 UV-I 868 W/m 17,9 C 29,8 C 11,3 km/h (2 Bft) 100,00 %
24.07.2019 12:42 29,9 C 26,7 C 42,8 C 48 % 1015,3 hPa 0,0 l/m 7,6 km/h (2 Bft) O-NO 64 2 min 0,000 mm 6,4 UV-I 866 W/m 17,7 C 29,8 C 14,5 km/h (3 Bft) 100,00 %
24.07.2019 12:44 29,9 C 26,7 C 42,8 C 52 % 1015,2 hPa 0,0 l/m 11,6 km/h (2 Bft) O 79 2 min 0,000 mm 6,5 UV-I 870 W/m 19,0 C 29,5 C 16,1 km/h (3 Bft) 100,00 %
24.07.2019 12:46 29,9 C 26,7 C 43,3 C 49 % 1015,3 hPa 0,0 l/m 6,2 km/h (2 Bft) O-SO 116 2 min 0,000 mm 6,2 UV-I 871 W/m 18,0 C 29,9 C 11,3 km/h (2 Bft) 97,37 %
24.07.2019 12:48 30,0 C 26,7 C 43,9 C 48 % 1015,2 hPa 0,0 l/m 4,9 km/h (1 Bft) O-NO 72 2 min 0,000 mm 6,5 UV-I 869 W/m 17,8 C 30,0 C 9,7 km/h (2 Bft) 100,00 %
24.07.2019 12:50 30,1 C 26,7 C 43,3 C 47 % 1015,2 hPa 0,0 l/m 11,1 km/h (2 Bft) O-NO 63 2 min 0,000 mm 6,5 UV-I 872 W/m 17,5 C 29,7 C 14,5 km/h (3 Bft) 100,00 %
24.07.2019 12:52 30,1 C 26,7 C 43,9 C 45 % 1015,3 hPa 0,0 l/m 6,4 km/h (2 Bft) O 89 2 min 0,000 mm 6,5 UV-I 875 W/m 16,8 C 30,1 C 12,9 km/h (3 Bft) 97,56 %
24.07.2019 12:54 30,2 C 26,7 C 45,0 C 48 % 1015,3 hPa 0,0 l/m 5,2 km/h (1 Bft) O-NO 77 2 min 0,000 mm 6,5 UV-I 871 W/m 17,9 C 30,2 C 8,0 km/h (2 Bft) 98,00 %
24.07.2019 12:56 30,3 C 26,7 C 45,0 C 47 % 1015,2 hPa 0,0 l/m 11,8 km/h (2 Bft) O-SO 117 2 min 0,000 mm 6,6 UV-I 871 W/m 17,7 C 29,9 C 16,1 km/h (3 Bft) 100,00 %
24.07.2019 12:58 30,3 C 26,7 C 45,0 C 45 % 1015,2 hPa 0,0 l/m 6,9 km/h (2 Bft) O-NO 76 2 min 0,000 mm 6,5 UV-I 873 W/m 17,0 C 30,3 C 11,3 km/h (2 Bft) 97,87 %
24.07.2019 13:00 30,4 C 26,7 C 45,0 C 45 % 1015,3 hPa 0,0 l/m 4,8 km/h (1 Bft) O-SO 107 2 min 0,635 mm 6,6 UV-I 874 W/m 17,1 C 30,4 C 9,7 km/h (2 Bft) 100,00 %
24.07.2019 13:02 30,4 C 26,7 C 44,4 C 44 % 1015,2 hPa 0,0 l/m 8,9 km/h (2 Bft) O-SO 119 2 min 0,000 mm 6,5 UV-I 871 W/m 16,7 C 30,2 C 16,1 km/h (3 Bft) 100,00 %
24.07.2019 13:04 30,4 C 26,7 C 43,9 C 44 % 1015,2 hPa 0,0 l/m 8,6 km/h (2 Bft) O 96 2 min 0,000 mm 6,6 UV-I 875 W/m 16,7 C 30,2 C 14,5 km/h (3 Bft) 100,00 %
24.07.2019 13:06 30,4 C 26,7 C 43,9 C 45 % 1015,2 hPa 0,0 l/m 7,3 km/h (2 Bft) O 95 2 min 0,000 mm 6,6 UV-I 876 W/m 17,1 C 30,3 C 12,9 km/h (3 Bft) 100,00 %
24.07.2019 13:08 30,5 C 26,7 C 44,4 C 50 % 1015,2 hPa 0,0 l/m 9,3 km/h (2 Bft) NO 47 2 min 0,000 mm 6,5 UV-I 876 W/m 18,9 C 30,3 C 16,1 km/h (3 Bft) 98,21 %
24.07.2019 13:10 30,5 C 26,7 C 43,9 C 41 % 1015,2 hPa 0,0 l/m 6,8 km/h (2 Bft) O-SO 119 2 min 0,000 mm 6,6 UV-I 874 W/m 15,7 C 30,5 C 12,9 km/h (3 Bft) 97,37 %
24.07.2019 13:12 30,4 C 26,7 C 43,9 C 44 % 1015,2 hPa 0,0 l/m 7,6 km/h (2 Bft) O 97 2 min 0,000 mm 6,6 UV-I 873 W/m 16,7 C 30,3 C 14,5 km/h (3 Bft) 94,00 %
24.07.2019 13:14 30,4 C 26,7 C 43,9 C 45 % 1015,2 hPa 0,0 l/m 14,1 km/h (3 Bft) O 92 2 min 0,000 mm 6,6 UV-I 871 W/m 17,1 C 29,9 C 17,7 km/h (3 Bft) 98,00 %
24.07.2019 13:16 30,5 C 26,7 C 45,0 C 41 % 1015,2 hPa 0,0 l/m 11,1 km/h (2 Bft) O-SO 103 2 min 0,000 mm 6,6 UV-I 872 W/m 15,7 C 30,2 C 14,5 km/h (3 Bft) 97,44 %
24.07.2019 13:18 30,6 C 26,7 C 45,0 C 42 % 1015,1 hPa 0,0 l/m 8,5 km/h (2 Bft) O 92 2 min 0,000 mm 6,6 UV-I 874 W/m 16,2 C 30,4 C 12,9 km/h (3 Bft) 96,23 %
24.07.2019 13:20 30,8 C 26,7 C 45,0 C 42 % 1015,1 hPa 0,0 l/m 11,7 km/h (2 Bft) O 100 2 min 0,000 mm 6,6 UV-I 874 W/m 16,4 C 30,5 C 19,3 km/h (3 Bft) 97,56 %
24.07.2019 13:22 30,8 C 26,7 C 45,0 C 41 % 1015,1 hPa 0,0 l/m 10,0 km/h (2 Bft) O-SO 107 2 min 0,000 mm 6,6 UV-I 873 W/m 16,0 C 30,6 C 16,1 km/h (3 Bft) 96,00 %
24.07.2019 13:24 30,7 C 26,7 C 44,4 C 43 % 1015,2 hPa 0,0 l/m 8,7 km/h (2 Bft) O-NO 76 2 min 0,000 mm 6,5 UV-I 870 W/m 16,7 C 30,5 C 17,7 km/h (3 Bft) 97,73 %
24.07.2019 13:26 30,7 C 26,7 C 43,9 C 45 % 1015,2 hPa 0,0 l/m 9,6 km/h (2 Bft) O 87 2 min 0,000 mm 6,5 UV-I 871 W/m 17,4 C 30,5 C 14,5 km/h (3 Bft) 96,23 %
24.07.2019 13:28 30,7 C 26,7 C 43,9 C 42 % 1015,2 hPa 0,0 l/m 8,4 km/h (2 Bft) O 88 2 min 0,000 mm 6,5 UV-I 871 W/m 16,3 C 30,6 C 14,5 km/h (3 Bft) 97,87 %
24.07.2019 13:30 30,7 C 26,7 C 43,9 C 40 % 1015,2 hPa 0,0 l/m 8,4 km/h (2 Bft) O 99 2 min 0,000 mm 6,5 UV-I 871 W/m 15,5 C 30,6 C 14,5 km/h (3 Bft) 97,73 %
24.07.2019 13:32 30,7 C 27,2 C 44,4 C 43 % 1015,2 hPa 0,0 l/m 5,0 km/h (1 Bft) NO 54 2 min 0,000 mm 6,5 UV-I 870 W/m 16,7 C 30,7 C 9,7 km/h (2 Bft) 98,11 %
24.07.2019 13:34 30,7 C 27,2 C 43,9 C 41 % 1015,2 hPa 0,0 l/m 9,9 km/h (2 Bft) O 83 2 min 0,000 mm 6,5 UV-I 872 W/m 15,9 C 30,5 C 17,7 km/h (3 Bft) 97,14 %
24.07.2019 13:36 30,7 C 27,2 C 44,4 C 44 % 1015,2 hPa 0,0 l/m 10,7 km/h (2 Bft) O 101 2 min 0,000 mm 6,5 UV-I 869 W/m 17,0 C 30,4 C 16,1 km/h (3 Bft) 98,21 %
24.07.2019 13:38 30,7 C 27,2 C 44,4 C 43 % 1015,2 hPa 0,0 l/m 4,5 km/h (1 Bft) NO 52 2 min 0,000 mm 6,5 UV-I 870 W/m 16,7 C 30,7 C 11,3 km/h (2 Bft) 92,68 %
24.07.2019 13:40 30,8 C 27,2 C 45,0 C 46 % 1015,2 hPa 0,0 l/m 6,0 km/h (2 Bft) NO 54 2 min 0,000 mm 6,5 UV-I 868 W/m 17,8 C 30,8 C 9,7 km/h (2 Bft) 98,00 %
24.07.2019 13:42 31,0 C 27,2 C 45,0 C 40 % 1015,2 hPa 0,0 l/m 9,2 km/h (2 Bft) NO 42 2 min 0,000 mm 6,4 UV-I 866 W/m 15,8 C 30,8 C 12,9 km/h (3 Bft) 100,00 %
24.07.2019 13:44 31,1 C 27,2 C 43,9 C 39 % 1015,2 hPa 0,0 l/m 6,9 km/h (2 Bft) O-NO 75 2 min 0,000 mm 6,4 UV-I 864 W/m 15,5 C 31,1 C 14,5 km/h (3 Bft) 100,00 %
24.07.2019 13:46 31,1 C 27,2 C 43,9 C 41 % 1015,2 hPa 0,0 l/m 8,9 km/h (2 Bft) NO 36 2 min 0,000 mm 6,4 UV-I 861 W/m 16,3 C 31,0 C 16,1 km/h (3 Bft) 100,00 %
24.07.2019 13:48 31,4 C 27,2 C 45,0 C 42 % 1015,2 hPa 0,0 l/m 6,4 km/h (2 Bft) NO 44 2 min 0,000 mm 6,3 UV-I 858 W/m 16,9 C 31,4 C 9,7 km/h (2 Bft) 98,00 %
24.07.2019 13:50 31,5 C 27,2 C 44,4 C 39 % 1015,2 hPa 0,0 l/m 5,8 km/h (2 Bft) O-NO 69 2 min 0,000 mm 6,3 UV-I 856 W/m 15,8 C 31,5 C 12,9 km/h (3 Bft) 95,74 %
24.07.2019 13:52 31,4 C 27,2 C 45,0 C 39 % 1015,1 hPa 0,0 l/m 7,3 km/h (2 Bft) O 92 2 min 0,000 mm 6,2 UV-I 851 W/m 15,7 C 31,4 C 14,5 km/h (3 Bft) 98,00 %
24.07.2019 13:54 31,5 C 27,2 C 43,9 C 39 % 1015,1 hPa 0,0 l/m 10,5 km/h (2 Bft) O-NO 76 2 min 0,000 mm 6,3 UV-I 852 W/m 15,8 C 31,3 C 17,7 km/h (3 Bft) 97,22 %
24.07.2019 13:56 31,4 C 27,2 C 43,9 C 37 % 1015,1 hPa 0,0 l/m 13,3 km/h (3 Bft) O-SO 111 2 min 0,000 mm 6,3 UV-I 855 W/m 14,9 C 31,1 C 17,7 km/h (3 Bft) 98,00 %
24.07.2019 13:58 31,4 C 27,2 C 43,9 C 40 % 1015,0 hPa 0,0 l/m 7,5 km/h (2 Bft) SO 139 2 min 0,000 mm 6,3 UV-I 855 W/m 16,1 C 31,3 C 14,5 km/h (3 Bft) 96,00 %
24.07.2019 14:00 31,6 C 27,2 C 45,0 C 35 % 1015,0 hPa 0,0 l/m 4,6 km/h (1 Bft) O 82 2 min 0,000 mm 6,2 UV-I 851 W/m 14,2 C 31,6 C 6,4 km/h (2 Bft) 95,74 %
24.07.2019 14:02 31,6 C 27,2 C 45,0 C 37 % 1015,1 hPa 0,0 l/m 8,7 km/h (2 Bft) NO 48 2 min 0,660 mm 6,2 UV-I 847 W/m 15,1 C 31,5 C 12,9 km/h (3 Bft) 97,73 %
24.07.2019 14:04 31,7 C 27,2 C 45,6 C 37 % 1015,1 hPa 0,0 l/m 5,6 km/h (1 Bft) O-SO 111 2 min 0,000 mm 6,2 UV-I 847 W/m 15,2 C 31,7 C 12,9 km/h (3 Bft) 97,37 %
24.07.2019 14:06 31,8 C 27,2 C 45,0 C 37 % 1015,1 hPa 0,0 l/m 5,3 km/h (1 Bft) O-NO 65 2 min 0,000 mm 6,2 UV-I 850 W/m 15,3 C 31,8 C 8,0 km/h (2 Bft) 98,46 %
24.07.2019 14:08 31,8 C 27,2 C 45,0 C 33 % 1015,1 hPa 0,0 l/m 8,8 km/h (2 Bft) O-NO 72 2 min 0,000 mm 6,2 UV-I 851 W/m 13,5 C 31,7 C 12,9 km/h (3 Bft) 94,74 %
24.07.2019 14:10 31,8 C 27,2 C 44,4 C 34 % 1015,1 hPa 0,0 l/m 8,7 km/h (2 Bft) O-NO 67 2 min 0,000 mm 6,2 UV-I 847 W/m 14,0 C 31,7 C 12,9 km/h (3 Bft) 94,34 %
24.07.2019 14:12 31,7 C 27,2 C 45,0 C 37 % 1015,1 hPa 0,0 l/m 8,2 km/h (2 Bft) O 86 2 min 0,000 mm 6,1 UV-I 845 W/m 15,2 C 31,6 C 14,5 km/h (3 Bft) 94,74 %
24.07.2019 14:14 31,6 C 27,2 C 45,0 C 37 % 1015,1 hPa 0,0 l/m 3,6 km/h (1 Bft) NO 34 2 min 0,000 mm 6,0 UV-I 841 W/m 15,1 C 31,6 C 9,7 km/h (2 Bft) 96,00 %
24.07.2019 14:16 31,6 C 27,2 C 43,3 C 35 % 1015,1 hPa 0,0 l/m 8,7 km/h (2 Bft) NO 46 2 min 0,000 mm 6,0 UV-I 839 W/m 14,2 C 31,5 C 12,9 km/h (3 Bft) 97,87 %
24.07.2019 14:18 31,6 C 27,2 C 43,9 C 35 % 1015,1 hPa 0,0 l/m 8,3 km/h (2 Bft) O-NO 57 2 min 0,000 mm 6,0 UV-I 838 W/m 14,2 C 31,5 C 14,5 km/h (3 Bft) 98,11 %
24.07.2019 14:20 31,7 C 27,2 C 42,8 C 36 % 1015,1 hPa 0,0 l/m 10,3 km/h (2 Bft) O-NO 57 2 min 0,000 mm 6,0 UV-I 836 W/m 14,8 C 31,6 C 17,7 km/h (3 Bft) 100,00 %
24.07.2019 14:22 31,8 C 27,2 C 42,2 C 35 % 1015,1 hPa 0,0 l/m 10,7 km/h (2 Bft) N 11 2 min 0,000 mm 6,0 UV-I 835 W/m 14,4 C 31,7 C 14,5 km/h (3 Bft) 98,00 %
24.07.2019 14:24 31,9 C 27,2 C 42,8 C 36 % 1015,1 hPa 0,0 l/m 8,5 km/h (2 Bft) O-NO 67 2 min 0,000 mm 5,9 UV-I 832 W/m 14,9 C 31,8 C 14,5 km/h (3 Bft) 100,00 %
24.07.2019 14:26 31,9 C 27,2 C 42,8 C 33 % 1015,0 hPa 0,0 l/m 7,4 km/h (2 Bft) NO 52 2 min 0,000 mm 5,9 UV-I 831 W/m 13,6 C 31,9 C 14,5 km/h (3 Bft) 95,74 %
24.07.2019 14:28 31,8 C 27,2 C 42,8 C 34 % 1015,0 hPa 0,0 l/m 6,3 km/h (2 Bft) NO 52 2 min 0,000 mm 5,9 UV-I 830 W/m 14,0 C 31,8 C 8,0 km/h (2 Bft) 98,00 %
24.07.2019 14:30 31,8 C 27,2 C 43,3 C 35 % 1015,0 hPa 0,0 l/m 2,9 km/h (1 Bft) NO 52 2 min 0,000 mm 5,6 UV-I 827 W/m 14,4 C 31,8 C 6,4 km/h (2 Bft) 97,56 %
24.07.2019 14:32 31,7 C 27,2 C 43,9 C 32 % 1015,0 hPa 0,0 l/m 5,9 km/h (2 Bft) N-NO 22 2 min 0,000 mm 5,6 UV-I 825 W/m 12,9 C 31,7 C 11,3 km/h (2 Bft) 98,00 %
24.07.2019 14:34 31,7 C 27,2 C 44,4 C 33 % 1015,0 hPa 0,0 l/m 4,5 km/h (1 Bft) NW 316 2 min 0,000 mm 5,8 UV-I 822 W/m 13,4 C 31,7 C 6,4 km/h (2 Bft) 98,00 %
24.07.2019 14:36 31,8 C 27,2 C 45,6 C 32 % 1014,9 hPa 0,0 l/m 5,6 km/h (1 Bft) W 269 2 min 0,000 mm 5,7 UV-I 818 W/m 13,0 C 31,8 C 6,4 km/h (2 Bft) 97,44 %
24.07.2019 14:38 31,9 C 27,2 C 46,1 C 34 % 1014,9 hPa 0,0 l/m 3,1 km/h (1 Bft) N 10 2 min 0,000 mm 5,7 UV-I 816 W/m 14,1 C 31,9 C 4,8 km/h (1 Bft) 97,37 %
24.07.2019 14:40 32,0 C 27,2 C 46,1 C 33 % 1014,9 hPa 0,0 l/m 3,3 km/h (1 Bft) S-SO 147 2 min 0,000 mm 5,7 UV-I 814 W/m 13,7 C 32,0 C 6,4 km/h (2 Bft) 98,11 %
24.07.2019 14:42 32,2 C 27,2 C 46,1 C 32 % 1014,9 hPa 0,0 l/m 6,3 km/h (2 Bft) O-SO 117 2 min 0,000 mm 5,6 UV-I 810 W/m 13,4 C 32,2 C 14,5 km/h (3 Bft) 98,00 %
24.07.2019 14:44 32,1 C 27,2 C 46,1 C 32 % 1014,8 hPa 0,0 l/m 6,2 km/h (2 Bft) O 92 2 min 0,000 mm 5,6 UV-I 807 W/m 13,3 C 32,1 C 12,9 km/h (3 Bft) 98,00 %
24.07.2019 14:46 31,9 C 27,2 C 45,6 C 33 % 1014,8 hPa 0,0 l/m 2,9 km/h (1 Bft) O-SO 119 2 min 0,000 mm 5,5 UV-I 806 W/m 13,6 C 31,9 C 6,4 km/h (2 Bft) 95,74 %
24.07.2019 14:48 31,8 C 27,2 C 45,6 C 35 % 1014,8 hPa 0,0 l/m 6,9 km/h (2 Bft) O-NO 68 2 min 0,000 mm 4,7 UV-I 803 W/m 14,4 C 31,8 C 12,9 km/h (3 Bft) 100,00 %
24.07.2019 14:50 31,9 C 27,2 C 45,0 C 34 % 1014,8 hPa 0,0 l/m 4,6 km/h (1 Bft) N-NO 28 2 min 0,000 mm 5,5 UV-I 800 W/m 14,1 C 31,9 C 8,0 km/h (2 Bft) 96,23 %
24.07.2019 14:52 31,9 C 27,2 C 45,6 C 34 % 1014,8 hPa 0,0 l/m 3,9 km/h (1 Bft) O-SO 110 2 min 0,000 mm 5,4 UV-I 797 W/m 14,1 C 31,9 C 11,3 km/h (2 Bft) 98,00 %
24.07.2019 14:54 31,9 C 27,2 C 45,6 C 32 % 1014,9 hPa 0,0 l/m 4,2 km/h (1 Bft) O 98 2 min 0,000 mm 5,4 UV-I 795 W/m 13,1 C 31,9 C 11,3 km/h (2 Bft) 97,87 %
24.07.2019 14:56 31,8 C 27,2 C 45,6 C 33 % 1014,8 hPa 0,0 l/m 5,1 km/h (1 Bft) SW 223 2 min 0,000 mm 5,4 UV-I 793 W/m 13,5 C 31,8 C 8,0 km/h (2 Bft) 97,56 %
24.07.2019 14:58 31,9 C 27,2 C 45,6 C 32 % 1014,8 hPa 0,0 l/m 3,6 km/h (1 Bft) SW 227 2 min 0,000 mm 5,3 UV-I 793 W/m 13,1 C 31,9 C 6,4 km/h (2 Bft) 100,00 %
24.07.2019 15:00 31,9 C 27,2 C 46,1 C 33 % 1014,8 hPa 0,0 l/m 1,7 km/h (1 Bft) SW 227 2 min 0,000 mm 5,3 UV-I 789 W/m 13,6 C 31,9 C 3,2 km/h (1 Bft) 95,74 %
24.07.2019 15:02 31,9 C 27,2 C 46,1 C 35 % 1014,8 hPa 0,0 l/m 2,8 km/h (1 Bft) O-NO 73 2 min 0,635 mm 5,2 UV-I 783 W/m 14,5 C 31,9 C 8,0 km/h (2 Bft) 100,00 %
24.07.2019 15:04 32,0 C 27,2 C 46,1 C 33 % 1014,8 hPa 0,0 l/m 6,0 km/h (2 Bft) N-NO 20 2 min 0,000 mm 5,2 UV-I 781 W/m 13,7 C 32,0 C 8,0 km/h (2 Bft) 97,87 %
24.07.2019 15:06 32,1 C 27,2 C 45,0 C 31 % 1014,8 hPa 0,0 l/m 4,9 km/h (1 Bft) NO 37 2 min 0,000 mm 5,1 UV-I 779 W/m 12,8 C 32,1 C 8,0 km/h (2 Bft) 97,87 %
24.07.2019 15:08 32,2 C 27,2 C 45,0 C 32 % 1014,8 hPa 0,0 l/m 7,4 km/h (2 Bft) N-NO 20 2 min 0,000 mm 5,1 UV-I 774 W/m 13,4 C 32,2 C 9,7 km/h (2 Bft) 98,00 %
24.07.2019 15:10 32,2 C 27,2 C 44,4 C 29 % 1014,8 hPa 0,0 l/m 3,5 km/h (1 Bft) N-NO 15 2 min 0,000 mm 5,0 UV-I 771 W/m 11,9 C 32,2 C 4,8 km/h (1 Bft) 94,87 %
24.07.2019 15:12 32,1 C 27,2 C 44,4 C 29 % 1014,8 hPa 0,0 l/m 4,3 km/h (1 Bft) S-SW 213 2 min 0,000 mm 5,0 UV-I 767 W/m 11,8 C 32,1 C 6,4 km/h (2 Bft) 96,00 %
24.07.2019 15:14 31,9 C 27,2 C 44,4 C 31 % 1014,7 hPa 0,0 l/m 4,6 km/h (1 Bft) S 181 2 min 0,000 mm 5,0 UV-I 764 W/m 12,6 C 31,9 C 8,0 km/h (2 Bft) 98,00 %
24.07.2019 15:16 31,9 C 27,2 C 44,4 C 29 % 1014,8 hPa 0,0 l/m 3,0 km/h (1 Bft) S-SW 207 2 min 0,000 mm 4,9 UV-I 762 W/m 11,6 C 31,9 C 6,4 km/h (2 Bft) 98,00 %
24.07.2019 15:18 32,1 C 27,2 C 45,6 C 31 % 1014,7 hPa 0,0 l/m 2,2 km/h (1 Bft) S-SW 211 2 min 0,000 mm 4,9 UV-I 757 W/m 12,8 C 32,1 C 3,2 km/h (1 Bft) 97,56 %
24.07.2019 15:20 32,2 C 27,2 C 45,6 C 31 % 1014,7 hPa 0,0 l/m 2,7 km/h (1 Bft) N-NO 13 2 min 0,000 mm 4,8 UV-I 752 W/m 12,9 C 32,2 C 6,4 km/h (2 Bft) 98,11 %
24.07.2019 15:22 32,3 C 27,2 C 45,0 C 31 % 1014,7 hPa 0,0 l/m 5,4 km/h (1 Bft) N-NW 340 2 min 0,000 mm 4,8 UV-I 749 W/m 13,0 C 32,3 C 8,0 km/h (2 Bft) 97,56 %
24.07.2019 15:24 32,5 C 27,2 C 45,0 C 29 % 1014,7 hPa 0,0 l/m 6,2 km/h (2 Bft) N-NO 30 2 min 0,000 mm 4,7 UV-I 745 W/m 12,1 C 32,5 C 8,0 km/h (2 Bft) 98,11 %
24.07.2019 15:26 32,6 C 27,2 C 43,9 C 31 % 1014,7 hPa 0,0 l/m 9,3 km/h (2 Bft) NO 34 2 min 0,000 mm 4,7 UV-I 744 W/m 13,2 C 32,6 C 12,9 km/h (3 Bft) 97,37 %
24.07.2019 15:28 32,7 C 27,2 C 43,9 C 29 % 1014,7 hPa 0,0 l/m 7,4 km/h (2 Bft) NO 47 2 min 0,000 mm 4,7 UV-I 741 W/m 12,3 C 32,7 C 11,3 km/h (2 Bft) 94,00 %
24.07.2019 15:30 32,7 C 27,2 C 43,9 C 31 % 1014,7 hPa 0,0 l/m 8,3 km/h (2 Bft) NO 34 2 min 0,000 mm 4,6 UV-I 739 W/m 13,3 C 32,7 C 11,3 km/h (2 Bft) 98,00 %
24.07.2019 15:32 32,7 C 27,8 C 43,3 C 29 % 1014,7 hPa 0,0 l/m 3,6 km/h (1 Bft) NO 44 2 min 0,000 mm 4,6 UV-I 734 W/m 12,3 C 32,7 C 8,0 km/h (2 Bft) 97,87 %
24.07.2019 15:34 32,6 C 27,8 C 43,3 C 30 % 1014,7 hPa 0,0 l/m 3,6 km/h (1 Bft) NO 49 2 min 0,000 mm 4,5 UV-I 731 W/m 12,7 C 32,6 C 6,4 km/h (2 Bft) 97,37 %
24.07.2019 15:36 32,6 C 27,8 C 42,8 C 29 % 1014,7 hPa 0,0 l/m 5,7 km/h (1 Bft) NO 34 2 min 0,000 mm 4,5 UV-I 723 W/m 12,2 C 32,6 C 8,0 km/h (2 Bft) 98,11 %
24.07.2019 15:38 32,6 C 27,8 C 42,8 C 29 % 1014,7 hPa 0,0 l/m 5,3 km/h (1 Bft) N-NO 12 2 min 0,000 mm 4,4 UV-I 721 W/m 12,2 C 32,6 C 9,7 km/h (2 Bft) 97,37 %
24.07.2019 15:40 32,5 C 27,8 C 43,3 C 27 % 1014,7 hPa 0,0 l/m 3,1 km/h (1 Bft) N-NO 26 2 min 0,000 mm 4,4 UV-I 719 W/m 11,1 C 32,5 C 6,4 km/h (2 Bft) 96,00 %
24.07.2019 15:42 32,5 C 27,8 C 43,9 C 28 % 1014,6 hPa 0,0 l/m 2,5 km/h (1 Bft) N-NO 29 2 min 0,000 mm 4,3 UV-I 716 W/m 11,6 C 32,5 C 3,2 km/h (1 Bft) 98,11 %
24.07.2019 15:44 32,5 C 27,8 C 43,9 C 31 % 1014,6 hPa 0,0 l/m 6,4 km/h (2 Bft) O-NO 57 2 min 0,000 mm 4,3 UV-I 711 W/m 13,2 C 32,5 C 9,7 km/h (2 Bft) 98,00 %
24.07.2019 15:46 32,6 C 27,8 C 43,3 C 30 % 1014,6 hPa 0,0 l/m 9,6 km/h (2 Bft) N-NO 16 2 min 0,000 mm 4,2 UV-I 708 W/m 12,7 C 32,6 C 12,9 km/h (3 Bft) 97,44 %
24.07.2019 15:48 32,7 C 27,8 C 43,3 C 30 % 1014,6 hPa 0,0 l/m 6,8 km/h (2 Bft) W-NW 294 2 min 0,000 mm 4,2 UV-I 704 W/m 12,8 C 32,7 C 11,3 km/h (2 Bft) 94,34 %
24.07.2019 15:50 32,8 C 27,8 C 43,9 C 29 % 1014,6 hPa 0,0 l/m 4,1 km/h (1 Bft) NO 35 2 min 0,000 mm 4,1 UV-I 700 W/m 12,4 C 32,8 C 8,0 km/h (2 Bft) 96,00 %
24.07.2019 15:52 32,8 C 27,8 C 43,3 C 30 % 1014,6 hPa 0,0 l/m 5,0 km/h (1 Bft) NO 40 2 min 0,000 mm 4,1 UV-I 698 W/m 12,9 C 32,8 C 8,0 km/h (2 Bft) 97,14 %
24.07.2019 15:54 32,9 C 27,8 C 44,4 C 32 % 1014,6 hPa 0,0 l/m 3,6 km/h (1 Bft) N 351 2 min 0,000 mm 4,0 UV-I 693 W/m 14,0 C 32,9 C 6,4 km/h (2 Bft) 96,00 %
24.07.2019 15:56 32,9 C 27,8 C 43,9 C 29 % 1014,6 hPa 0,0 l/m 5,3 km/h (1 Bft) N 10 2 min 0,000 mm 4,0 UV-I 688 W/m 12,5 C 32,9 C 8,0 km/h (2 Bft) 97,87 %
24.07.2019 15:58 32,8 C 27,8 C 44,4 C 26 % 1014,6 hPa 0,0 l/m 3,7 km/h (1 Bft) N-NO 15 2 min 0,000 mm 3,9 UV-I 684 W/m 10,7 C 32,8 C 6,4 km/h (2 Bft) 97,87 %
24.07.2019 16:00 32,8 C 27,8 C 43,9 C 28 % 1014,6 hPa 0,0 l/m 5,2 km/h (1 Bft) N-NW 342 2 min 0,585 mm 3,9 UV-I 681 W/m 11,9 C 32,8 C 8,0 km/h (2 Bft) 95,74 %
24.07.2019 16:02 32,8 C 27,8 C 44,4 C 27 % 1014,6 hPa 0,0 l/m 1,2 km/h (1 Bft) N-NW 342 2 min 0,000 mm 3,9 UV-I 679 W/m 11,3 C 32,8 C 3,2 km/h (1 Bft) 96,00 %
24.07.2019 16:04 32,7 C 27,8 C 43,9 C 28 % 1014,5 hPa 0,0 l/m 3,6 km/h (1 Bft) W-NW 292 2 min 0,000 mm 3,8 UV-I 674 W/m 11,8 C 32,7 C 6,4 km/h (2 Bft) 96,00 %
24.07.2019 16:06 32,7 C 27,8 C 43,9 C 27 % 1014,5 hPa 0,0 l/m 3,6 km/h (1 Bft) W-NW 290 2 min 0,000 mm 3,8 UV-I 671 W/m 11,2 C 32,7 C 6,4 km/h (2 Bft) 100,00 %
24.07.2019 16:08 32,6 C 27,8 C 44,4 C 27 % 1014,5 hPa 0,0 l/m 4,6 km/h (1 Bft) W 281 2 min 0,000 mm 3,7 UV-I 665 W/m 11,1 C 32,6 C 6,4 km/h (2 Bft) 96,23 %
24.07.2019 16:10 32,6 C 27,8 C 44,4 C 27 % 1014,5 hPa 0,0 l/m 3,9 km/h (1 Bft) NW 318 2 min 0,000 mm 3,7 UV-I 662 W/m 11,1 C 32,6 C 6,4 km/h (2 Bft) 97,87 %
24.07.2019 16:12 32,6 C 27,8 C 44,4 C 28 % 1014,6 hPa 0,0 l/m 4,6 km/h (1 Bft) N-NW 332 2 min 0,000 mm 3,6 UV-I 658 W/m 11,7 C 32,6 C 6,4 km/h (2 Bft) 98,00 %
24.07.2019 16:14 32,7 C 27,8 C 44,4 C 27 % 1014,5 hPa 0,0 l/m 5,2 km/h (1 Bft) W 275 2 min 0,000 mm 3,6 UV-I 653 W/m 11,2 C 32,7 C 6,4 km/h (2 Bft) 97,56 %
24.07.2019 16:16 32,7 C 27,8 C 44,4 C 29 % 1014,5 hPa 0,0 l/m 3,3 km/h (1 Bft) W-NW 288 2 min 0,000 mm 3,5 UV-I 650 W/m 12,3 C 32,7 C 4,8 km/h (1 Bft) 100,00 %
24.07.2019 16:18 32,6 C 27,8 C 45,0 C 30 % 1014,5 hPa 0,0 l/m 2,2 km/h (1 Bft) W-NW 295 2 min 0,000 mm 3,5 UV-I 630 W/m 12,7 C 32,6 C 4,8 km/h (1 Bft) 100,00 %
24.07.2019 16:20 32,7 C 27,8 C 45,0 C 28 % 1014,5 hPa 0,0 l/m 2,5 km/h (1 Bft) W-SW 247 2 min 0,000 mm 3,4 UV-I 641 W/m 11,8 C 32,7 C 4,8 km/h (1 Bft) 100,00 %
24.07.2019 16:22 32,7 C 27,8 C 44,4 C 27 % 1014,5 hPa 0,0 l/m 5,1 km/h (1 Bft) NW 304 2 min 0,000 mm 3,4 UV-I 637 W/m 11,2 C 32,7 C 8,0 km/h (2 Bft) 100,00 %
24.07.2019 16:24 32,7 C 27,8 C 44,4 C 27 % 1014,5 hPa 0,0 l/m 4,1 km/h (1 Bft) W 269 2 min 0,000 mm 3,3 UV-I 633 W/m 11,2 C 32,7 C 6,4 km/h (2 Bft) 98,51 %
24.07.2019 16:26 32,7 C 27,8 C 44,4 C 25 % 1014,5 hPa 0,0 l/m 4,3 km/h (1 Bft) W 275 2 min 0,000 mm 3,3 UV-I 628 W/m 10,1 C 32,7 C 6,4 km/h (2 Bft) 100,00 %
24.07.2019 16:28 32,6 C 27,8 C 44,4 C 26 % 1014,5 hPa 0,0 l/m 3,5 km/h (1 Bft) W 272 2 min 0,000 mm 3,2 UV-I 623 W/m 10,6 C 32,6 C 4,8 km/h (1 Bft) 100,00 %
24.07.2019 16:30 32,6 C 27,8 C 45,0 C 27 % 1014,4 hPa 0,0 l/m 3,2 km/h (1 Bft) W 271 2 min 0,000 mm 3,2 UV-I 618 W/m 11,1 C 32,6 C 4,8 km/h (1 Bft) 98,00 %
24.07.2019 16:32 32,6 C 27,8 C 45,0 C 28 % 1014,4 hPa 0,0 l/m 3,9 km/h (1 Bft) W 271 2 min 0,000 mm 3,1 UV-I 613 W/m 11,7 C 32,6 C 9,7 km/h (2 Bft) 97,56 %
24.07.2019 16:34 32,7 C 27,8 C 45,0 C 28 % 1014,4 hPa 0,0 l/m 3,7 km/h (1 Bft) W 271 2 min 0,000 mm 3,1 UV-I 610 W/m 11,8 C 32,7 C 4,8 km/h (1 Bft) 100,00 %
24.07.2019 16:36 32,8 C 27,8 C 46,1 C 30 % 1014,3 hPa 0,0 l/m 2,3 km/h (1 Bft) W-NW 286 2 min 0,000 mm 3,0 UV-I 603 W/m 12,9 C 32,8 C 3,2 km/h (1 Bft) 98,21 %
24.07.2019 16:38 32,8 C 27,8 C 46,1 C 28 % 1014,3 hPa 0,0 l/m 1,9 km/h (1 Bft) W-NW 287 2 min 0,000 mm 3,0 UV-I 598 W/m 11,9 C 32,8 C 3,2 km/h (1 Bft) 100,00 %
24.07.2019 16:40 32,9 C 27,8 C 46,1 C 28 % 1014,3 hPa 0,0 l/m 3,7 km/h (1 Bft) NW 317 2 min 0,000 mm 2,9 UV-I 591 W/m 11,9 C 32,9 C 4,8 km/h (1 Bft) 98,00 %
24.07.2019 16:42 32,9 C 27,8 C 45,6 C 26 % 1014,2 hPa 0,0 l/m 3,7 km/h (1 Bft) NW 312 2 min 0,000 mm 2,9 UV-I 584 W/m 10,8 C 32,9 C 6,4 km/h (2 Bft) 94,74 %
24.07.2019 16:44 32,8 C 27,8 C 45,6 C 26 % 1014,2 hPa 0,0 l/m 1,9 km/h (1 Bft) NW 307 2 min 0,000 mm 2,8 UV-I 578 W/m 10,7 C 32,8 C 4,8 km/h (1 Bft) 95,74 %
24.07.2019 16:46 32,9 C 27,8 C 45,6 C 27 % 1014,2 hPa 0,0 l/m 2,2 km/h (1 Bft) N-NW 328 2 min 0,000 mm 2,8 UV-I 574 W/m 11,4 C 32,9 C 4,8 km/h (1 Bft) 98,00 %
24.07.2019 16:48 33,1 C 27,8 C 45,6 C 28 % 1014,2 hPa 0,0 l/m 3,0 km/h (1 Bft) N-NW 345 2 min 0,000 mm 2,7 UV-I 570 W/m 12,1 C 33,1 C 4,8 km/h (1 Bft) 96,23 %
24.07.2019 16:50 33,1 C 27,8 C 45,0 C 27 % 1014,2 hPa 0,0 l/m 5,3 km/h (1 Bft) W-SW 250 2 min 0,000 mm 2,7 UV-I 566 W/m 11,6 C 33,1 C 8,0 km/h (2 Bft) 100,00 %
24.07.2019 16:52 33,0 C 27,8 C 44,4 C 25 % 1014,1 hPa 0,0 l/m 3,4 km/h (1 Bft) W 276 2 min 0,000 mm 2,6 UV-I 562 W/m 10,3 C 33,0 C 9,7 km/h (2 Bft) 96,23 %
24.07.2019 16:54 32,8 C 27,8 C 44,4 C 26 % 1014,2 hPa 0,0 l/m 3,2 km/h (1 Bft) W 276 2 min 0,000 mm 2,6 UV-I 557 W/m 10,7 C 32,8 C 4,8 km/h (1 Bft) 98,00 %
24.07.2019 16:56 32,8 C 27,8 C 45,0 C 32 % 1014,1 hPa 0,0 l/m 3,3 km/h (1 Bft) W 277 2 min 0,000 mm 2,5 UV-I 553 W/m 13,9 C 32,8 C 4,8 km/h (1 Bft) 97,37 %
24.07.2019 16:58 32,8 C 27,8 C 44,4 C 27 % 1014,1 hPa 0,0 l/m 2,5 km/h (1 Bft) N-NO 19 2 min 0,000 mm 2,5 UV-I 548 W/m 11,3 C 32,8 C 4,8 km/h (1 Bft) 98,00 %
24.07.2019 17:00 32,9 C 27,8 C 44,4 C 29 % 1014,0 hPa 0,0 l/m 4,4 km/h (1 Bft) N 360 2 min 0,482 mm 2,5 UV-I 543 W/m 12,5 C 32,9 C 6,4 km/h (2 Bft) 96,00 %
24.07.2019 17:02 33,1 C 27,8 C 43,9 C 28 % 1014,0 hPa 0,0 l/m 5,6 km/h (1 Bft) NO 35 2 min 0,000 mm 2,4 UV-I 537 W/m 12,1 C 33,1 C 8,0 km/h (2 Bft) 97,62 %
24.07.2019 17:04 33,2 C 27,8 C 42,8 C 27 % 1014,0 hPa 0,0 l/m 5,4 km/h (1 Bft) NO 45 2 min 0,000 mm 2,4 UV-I 531 W/m 11,6 C 33,2 C 9,7 km/h (2 Bft) 92,31 %
24.07.2019 17:06 33,3 C 27,8 C 42,2 C 26 % 1014,0 hPa 0,0 l/m 6,5 km/h (2 Bft) NO 34 2 min 0,000 mm 2,3 UV-I 524 W/m 11,2 C 33,3 C 8,0 km/h (2 Bft) 97,18 %
24.07.2019 17:08 33,3 C 27,8 C 42,8 C 25 % 1013,9 hPa 0,0 l/m 3,8 km/h (1 Bft) N 360 2 min 0,000 mm 2,3 UV-I 519 W/m 10,6 C 33,3 C 6,4 km/h (2 Bft) 97,87 %
24.07.2019 17:10 33,3 C 27,8 C 43,9 C 26 % 1013,9 hPa 0,0 l/m 2,0 km/h (1 Bft) NO 34 2 min 0,000 mm 2,2 UV-I 514 W/m 11,2 C 33,3 C 4,8 km/h (1 Bft) 92,00 %
24.07.2019 17:12 33,3 C 27,8 C 43,3 C 28 % 1013,9 hPa 0,0 l/m 6,8 km/h (2 Bft) N 11 2 min 0,000 mm 2,2 UV-I 505 W/m 12,3 C 33,3 C 9,7 km/h (2 Bft) 97,56 %
24.07.2019 17:14 33,3 C 27,8 C 42,2 C 26 % 1013,9 hPa 0,0 l/m 7,0 km/h (2 Bft) NO 40 2 min 0,000 mm 2,1 UV-I 503 W/m 11,2 C 33,3 C 12,9 km/h (3 Bft) 94,00 %
24.07.2019 17:16 33,2 C 27,8 C 42,2 C 28 % 1013,9 hPa 0,0 l/m 5,1 km/h (1 Bft) NO 47 2 min 0,000 mm 2,1 UV-I 495 W/m 12,2 C 33,2 C 8,0 km/h (2 Bft) 97,37 %
24.07.2019 17:18 33,2 C 27,8 C 42,8 C 27 % 1013,9 hPa 0,0 l/m 4,3 km/h (1 Bft) O-NO 65 2 min 0,000 mm 2,1 UV-I 488 W/m 11,6 C 33,2 C 6,4 km/h (2 Bft) 98,11 %
24.07.2019 17:20 33,1 C 27,8 C 42,2 C 27 % 1013,9 hPa 0,0 l/m 4,5 km/h (1 Bft) NO 56 2 min 0,000 mm 2,0 UV-I 482 W/m 11,6 C 33,1 C 6,4 km/h (2 Bft) 98,00 %
24.07.2019 17:22 33,2 C 27,8 C 42,2 C 28 % 1013,9 hPa 0,0 l/m 7,0 km/h (2 Bft) O 84 2 min 0,000 mm 2,0 UV-I 478 W/m 12,2 C 33,2 C 11,3 km/h (2 Bft) 95,74 %
24.07.2019 17:24 33,2 C 27,8 C 42,2 C 26 % 1013,9 hPa 0,0 l/m 5,8 km/h (2 Bft) O 99 2 min 0,000 mm 1,9 UV-I 475 W/m 11,1 C 33,2 C 8,0 km/h (2 Bft) 97,87 %
24.07.2019 17:26 33,2 C 27,8 C 42,2 C 26 % 1013,9 hPa 0,0 l/m 4,1 km/h (1 Bft) O-NO 67 2 min 0,000 mm 1,9 UV-I 468 W/m 11,1 C 33,2 C 4,8 km/h (1 Bft) 95,45 %
24.07.2019 17:28 33,1 C 27,8 C 42,8 C 25 % 1013,9 hPa 0,0 l/m 4,6 km/h (1 Bft) O 99 2 min 0,000 mm 1,8 UV-I 463 W/m 10,4 C 33,1 C 6,4 km/h (2 Bft) 96,00 %
24.07.2019 17:30 33,0 C 27,8 C 43,3 C 26 % 1013,8 hPa 0,0 l/m 1,1 km/h (1 Bft) O 99 2 min 0,000 mm 1,8 UV-I 457 W/m 10,9 C 33,0 C 3,2 km/h (1 Bft) 97,37 %
24.07.2019 17:32 32,9 C 27,8 C 43,9 C 25 % 1013,8 hPa 0,0 l/m 1,5 km/h (1 Bft) O 101 2 min 0,000 mm 1,7 UV-I 453 W/m 10,2 C 32,9 C 3,2 km/h (1 Bft) 95,74 %
24.07.2019 17:34 33,1 C 27,8 C 43,9 C 26 % 1013,7 hPa 0,0 l/m 1,9 km/h (1 Bft) O 99 2 min 0,000 mm 1,7 UV-I 449 W/m 11,0 C 33,1 C 4,8 km/h (1 Bft) 98,00 %
24.07.2019 17:36 33,2 C 27,8 C 43,9 C 30 % 1013,7 hPa 0,0 l/m 3,9 km/h (1 Bft) O-NO 63 2 min 0,000 mm 1,7 UV-I 440 W/m 13,3 C 33,2 C 6,4 km/h (2 Bft) 97,87 %
24.07.2019 17:38 33,2 C 27,8 C 43,3 C 29 % 1013,7 hPa 0,0 l/m 4,9 km/h (1 Bft) NO 44 2 min 0,000 mm 1,6 UV-I 436 W/m 12,7 C 33,2 C 8,0 km/h (2 Bft) 95,83 %
24.07.2019 17:40 33,2 C 27,8 C 42,8 C 29 % 1013,7 hPa 0,0 l/m 7,1 km/h (2 Bft) NO 46 2 min 0,000 mm 1,6 UV-I 432 W/m 12,7 C 33,2 C 9,7 km/h (2 Bft) 96,00 %
24.07.2019 17:42 33,3 C 27,8 C 42,2 C 29 % 1013,7 hPa 0,0 l/m 6,9 km/h (2 Bft) NO 49 2 min 0,000 mm 1,6 UV-I 426 W/m 12,8 C 33,3 C 9,7 km/h (2 Bft) 97,37 %
24.07.2019 17:44 33,2 C 27,8 C 42,8 C 29 % 1013,7 hPa 0,0 l/m 5,3 km/h (1 Bft) O 88 2 min 0,000 mm 1,5 UV-I 421 W/m 12,7 C 33,2 C 8,0 km/h (2 Bft) 98,18 %
24.07.2019 17:46 33,2 C 27,8 C 42,2 C 25 % 1013,7 hPa 0,0 l/m 6,4 km/h (2 Bft) O-NO 65 2 min 0,000 mm 1,5 UV-I 415 W/m 10,5 C 33,2 C 9,7 km/h (2 Bft) 96,00 %
24.07.2019 17:48 33,1 C 27,8 C 42,8 C 26 % 1013,7 hPa 0,0 l/m 4,7 km/h (1 Bft) NO 55 2 min 0,000 mm 1,5 UV-I 410 W/m 11,0 C 33,1 C 8,0 km/h (2 Bft) 97,87 %
24.07.2019 17:50 33,1 C 27,8 C 42,8 C 27 % 1013,7 hPa 0,0 l/m 4,2 km/h (1 Bft) O 88 2 min 0,000 mm 1,4 UV-I 405 W/m 11,6 C 33,1 C 6,4 km/h (2 Bft) 97,87 %
24.07.2019 17:52 33,0 C 27,8 C 42,8 C 27 % 1013,6 hPa 0,0 l/m 2,6 km/h (1 Bft) O 90 2 min 0,000 mm 1,4 UV-I 400 W/m 11,5 C 33,0 C 4,8 km/h (1 Bft) 97,37 %
24.07.2019 17:54 33,0 C 27,8 C 42,8 C 26 % 1013,6 hPa 0,0 l/m 3,3 km/h (1 Bft) O 85 2 min 0,000 mm 1,3 UV-I 393 W/m 10,9 C 33,0 C 4,8 km/h (1 Bft) 97,87 %
24.07.2019 17:56 33,0 C 27,8 C 42,8 C 28 % 1013,6 hPa 0,0 l/m 3,6 km/h (1 Bft) O 88 2 min 0,000 mm 1,3 UV-I 387 W/m 12,0 C 33,0 C 6,4 km/h (2 Bft) 97,87 %
24.07.2019 17:58 33,0 C 27,8 C 42,2 C 27 % 1013,5 hPa 0,0 l/m 6,4 km/h (2 Bft) O-NO 77 2 min 0,000 mm 1,3 UV-I 382 W/m 11,5 C 33,0 C 9,7 km/h (2 Bft) 98,00 %
24.07.2019 18:00 32,9 C 27,8 C 42,2 C 26 % 1013,6 hPa 0,0 l/m 5,3 km/h (1 Bft) O-NO 67 2 min 0,000 mm 1,3 UV-I 378 W/m 10,8 C 32,9 C 6,4 km/h (2 Bft) 95,74 %
24.07.2019 18:02 32,9 C 27,8 C 41,7 C 27 % 1013,6 hPa 0,0 l/m 5,4 km/h (1 Bft) NO 47 2 min 0,381 mm 1,2 UV-I 371 W/m 11,4 C 32,9 C 8,0 km/h (2 Bft) 100,00 %
24.07.2019 18:04 32,8 C 27,8 C 40,6 C 29 % 1013,6 hPa 0,0 l/m 6,6 km/h (2 Bft) NO 44 2 min 0,000 mm 1,2 UV-I 365 W/m 12,4 C 32,8 C 9,7 km/h (2 Bft) 92,00 %
24.07.2019 18:06 32,8 C 27,8 C 40,0 C 28 % 1013,6 hPa 0,0 l/m 5,8 km/h (2 Bft) NO 48 2 min 0,000 mm 1,2 UV-I 361 W/m 11,9 C 32,8 C 8,0 km/h (2 Bft) 97,87 %
24.07.2019 18:08 32,8 C 27,8 C 40,6 C 28 % 1013,6 hPa 0,0 l/m 5,9 km/h (2 Bft) NO 45 2 min 0,000 mm 1,1 UV-I 355 W/m 11,9 C 32,8 C 8,0 km/h (2 Bft) 100,00 %
24.07.2019 18:10 32,8 C 27,8 C 40,0 C 27 % 1013,5 hPa 0,0 l/m 5,8 km/h (2 Bft) O-NO 66 2 min 0,000 mm 1,1 UV-I 348 W/m 11,3 C 32,8 C 8,0 km/h (2 Bft) 100,00 %
24.07.2019 18:12 32,9 C 27,8 C 40,6 C 28 % 1013,5 hPa 0,0 l/m 4,0 km/h (1 Bft) O-NO 66 2 min 0,000 mm 1,1 UV-I 342 W/m 11,9 C 32,9 C 6,4 km/h (2 Bft) 95,74 %
24.07.2019 18:14 32,8 C 27,8 C 41,1 C 27 % 1013,5 hPa 0,0 l/m 4,1 km/h (1 Bft) NO 52 2 min 0,000 mm 1,0 UV-I 341 W/m 11,3 C 32,8 C 6,4 km/h (2 Bft) 100,00 %
24.07.2019 18:16 32,8 C 27,8 C 41,1 C 25 % 1013,5 hPa 0,0 l/m 4,2 km/h (1 Bft) NO 34 2 min 0,000 mm 1,0 UV-I 333 W/m 10,2 C 32,8 C 6,4 km/h (2 Bft) 100,00 %
24.07.2019 18:18 32,9 C 27,8 C 41,1 C 24 % 1013,5 hPa 0,0 l/m 1,5 km/h (1 Bft) NO 34 2 min 0,000 mm 1,0 UV-I 327 W/m 9,6 C 32,9 C 3,2 km/h (1 Bft) 98,00 %
24.07.2019 18:20 33,1 C 27,8 C 41,1 C 25 % 1013,5 hPa 0,0 l/m 3,3 km/h (1 Bft) NO 37 2 min 0,000 mm 0,9 UV-I 321 W/m 10,4 C 33,1 C 4,8 km/h (1 Bft) 100,00 %
24.07.2019 18:22 33,1 C 27,8 C 40,6 C 25 % 1013,5 hPa 0,0 l/m 4,0 km/h (1 Bft) NO 42 2 min 0,000 mm 0,9 UV-I 315 W/m 10,4 C 33,1 C 6,4 km/h (2 Bft) 100,00 %
24.07.2019 18:24 33,2 C 27,8 C 40,6 C 25 % 1013,6 hPa 0,0 l/m 2,5 km/h (1 Bft) NO 42 2 min 0,000 mm 0,9 UV-I 309 W/m 10,5 C 33,2 C 3,2 km/h (1 Bft) 100,00 %
24.07.2019 18:26 33,2 C 27,8 C 40,6 C 24 % 1013,6 hPa 0,0 l/m 2,8 km/h (1 Bft) NO 42 2 min 0,000 mm 0,9 UV-I 303 W/m 9,9 C 33,2 C 4,8 km/h (1 Bft) 98,21 %
24.07.2019 18:28 33,2 C 27,8 C 41,1 C 25 % 1013,6 hPa 0,0 l/m 1,8 km/h (1 Bft) NO 42 2 min 0,000 mm 0,8 UV-I 299 W/m 10,5 C 33,2 C 4,8 km/h (1 Bft) 100,00 %
24.07.2019 18:30 33,2 C 27,8 C 41,1 C 24 % 1013,6 hPa 0,0 l/m 3,4 km/h (1 Bft) NO 42 2 min 0,000 mm 0,8 UV-I 292 W/m 9,9 C 33,2 C 4,8 km/h (1 Bft) 100,00 %
24.07.2019 18:32 33,1 C 27,8 C 40,6 C 25 % 1013,6 hPa 0,0 l/m 4,5 km/h (1 Bft) NO 44 2 min 0,000 mm 0,8 UV-I 287 W/m 10,4 C 33,1 C 6,4 km/h (2 Bft) 96,23 %
24.07.2019 18:34 33,1 C 27,8 C 40,6 C 26 % 1013,6 hPa 0,0 l/m 3,9 km/h (1 Bft) N-NO 16 2 min 0,000 mm 0,7 UV-I 282 W/m 11,0 C 33,1 C 4,8 km/h (1 Bft) 97,87 %
24.07.2019 18:36 33,2 C 27,8 C 40,0 C 25 % 1013,6 hPa 0,0 l/m 4,0 km/h (1 Bft) N-NO 16 2 min 0,000 mm 0,7 UV-I 275 W/m 10,5 C 33,2 C 6,4 km/h (2 Bft) 100,00 %
24.07.2019 18:38 33,1 C 27,8 C 40,0 C 25 % 1013,6 hPa 0,0 l/m 2,7 km/h (1 Bft) N-NO 16 2 min 0,000 mm 0,7 UV-I 271 W/m 10,4 C 33,1 C 4,8 km/h (1 Bft) 100,00 %
24.07.2019 18:40 33,1 C 27,8 C 40,6 C 24 % 1013,6 hPa 0,0 l/m 2,9 km/h (1 Bft) N-NO 16 2 min 0,000 mm 0,7 UV-I 265 W/m 9,8 C 33,1 C 4,8 km/h (1 Bft) 100,00 %
24.07.2019 18:42 33,2 C 27,8 C 40,6 C 26 % 1013,6 hPa 0,0 l/m 2,9 km/h (1 Bft) N-NO 16 2 min 0,000 mm 0,6 UV-I 260 W/m 11,1 C 33,2 C 4,8 km/h (1 Bft) 100,00 %
24.07.2019 18:44 33,2 C 27,8 C 40,6 C 26 % 1013,6 hPa 0,0 l/m 3,4 km/h (1 Bft) N-NO 16 2 min 0,000 mm 0,6 UV-I 255 W/m 11,1 C 33,2 C 4,8 km/h (1 Bft) 100,00 %
24.07.2019 18:46 33,2 C 27,8 C 40,6 C 25 % 1013,6 hPa 0,0 l/m 2,7 km/h (1 Bft) N-NO 16 2 min 0,000 mm 0,6 UV-I 250 W/m 10,5 C 33,2 C 4,8 km/h (1 Bft) 98,00 %
24.07.2019 18:48 33,2 C 27,8 C 40,0 C 27 % 1013,6 hPa 0,0 l/m 2,2 km/h (1 Bft) N-NO 16 2 min 0,000 mm 0,6 UV-I 244 W/m 11,6 C 33,2 C 4,8 km/h (1 Bft) 100,00 %
24.07.2019 18:50 33,2 C 27,8 C 40,6 C 26 % 1013,6 hPa 0,0 l/m 2,8 km/h (1 Bft) N-NO 16 2 min 0,000 mm 0,6 UV-I 239 W/m 11,1 C 33,2 C 4,8 km/h (1 Bft) 100,00 %
24.07.2019 18:52 33,2 C 27,8 C 40,0 C 25 % 1013,5 hPa 0,0 l/m 2,2 km/h (1 Bft) N-NO 16 2 min 0,000 mm 0,5 UV-I 232 W/m 10,5 C 33,2 C 3,2 km/h (1 Bft) 100,00 %
24.07.2019 18:54 33,1 C 27,8 C 40,0 C 25 % 1013,6 hPa 0,0 l/m 1,1 km/h (1 Bft) N-NO 16 2 min 0,000 mm 0,5 UV-I 227 W/m 10,4 C 33,1 C 1,6 km/h (1 Bft) 100,00 %
24.07.2019 18:56 33,1 C 27,8 C 39,4 C 25 % 1013,5 hPa 0,0 l/m 2,2 km/h (1 Bft) N-NO 16 2 min 0,000 mm 0,5 UV-I 221 W/m 10,4 C 33,1 C 3,2 km/h (1 Bft) 97,56 %
24.07.2019 18:58 33,1 C 27,8 C 39,4 C 25 % 1013,6 hPa 0,0 l/m 2,1 km/h (1 Bft) N-NO 16 2 min 0,000 mm 0,5 UV-I 215 W/m 10,4 C 33,1 C 3,2 km/h (1 Bft) 100,00 %
24.07.2019 19:00 33,1 C 27,8 C 39,4 C 25 % 1013,5 hPa 0,0 l/m 3,3 km/h (1 Bft) N-NO 16 2 min 0,000 mm 0,4 UV-I 210 W/m 10,4 C 33,1 C 4,8 km/h (1 Bft) 100,00 %
24.07.2019 19:02 32,9 C 27,8 C 40,0 C 27 % 1013,5 hPa 0,0 l/m 3,0 km/h (1 Bft) N-NO 24 2 min 0,254 mm 0,0 UV-I 206 W/m 11,4 C 32,9 C 4,8 km/h (1 Bft) 96,92 %
24.07.2019 19:04 32,8 C 27,8 C 39,4 C 26 % 1013,5 hPa 0,0 l/m 2,8 km/h (1 Bft) N-NO 26 2 min 0,000 mm 0,0 UV-I 199 W/m 10,7 C 32,8 C 4,8 km/h (1 Bft) 96,00 %
24.07.2019 19:06 32,8 C 27,8 C 39,4 C 28 % 1013,5 hPa 0,0 l/m 3,5 km/h (1 Bft) N-NO 26 2 min 0,000 mm 0,0 UV-I 193 W/m 11,9 C 32,8 C 4,8 km/h (1 Bft) 95,74 %
24.07.2019 19:08 32,7 C 27,8 C 38,9 C 28 % 1013,5 hPa 0,0 l/m 3,1 km/h (1 Bft) N-NO 26 2 min 0,000 mm 0,0 UV-I 187 W/m 11,8 C 32,7 C 4,8 km/h (1 Bft) 95,12 %
24.07.2019 19:10 32,6 C 27,8 C 38,9 C 30 % 1013,5 hPa 0,0 l/m 2,6 km/h (1 Bft) N-NO 26 2 min 0,000 mm 0,0 UV-I 183 W/m 12,7 C 32,6 C 3,2 km/h (1 Bft) 96,23 %
24.07.2019 19:12 32,4 C 27,8 C 38,9 C 31 % 1013,5 hPa 0,0 l/m 3,3 km/h (1 Bft) N-NO 32 2 min 0,000 mm 0,0 UV-I 178 W/m 13,1 C 32,4 C 4,8 km/h (1 Bft) 95,12 %
24.07.2019 19:14 32,3 C 27,8 C 38,9 C 31 % 1013,5 hPa 0,0 l/m 3,7 km/h (1 Bft) N-NO 32 2 min 0,000 mm 0,0 UV-I 173 W/m 13,0 C 32,3 C 4,8 km/h (1 Bft) 94,34 %
24.07.2019 19:16 32,3 C 27,8 C 38,3 C 31 % 1013,5 hPa 0,0 l/m 3,6 km/h (1 Bft) N-NO 32 2 min 0,000 mm 0,0 UV-I 167 W/m 13,0 C 32,3 C 4,8 km/h (1 Bft) 94,00 %
24.07.2019 19:18 32,2 C 27,8 C 38,3 C 29 % 1013,5 hPa 0,0 l/m 3,1 km/h (1 Bft) N-NO 32 2 min 0,000 mm 0,0 UV-I 162 W/m 11,9 C 32,2 C 4,8 km/h (1 Bft) 95,74 %
24.07.2019 19:20 32,3 C 27,8 C 37,8 C 29 % 1013,5 hPa 0,0 l/m 3,0 km/h (1 Bft) N-NO 32 2 min 0,000 mm 0,0 UV-I 156 W/m 12,0 C 32,3 C 4,8 km/h (1 Bft) 95,74 %
24.07.2019 19:22 32,4 C 27,8 C 37,2 C 30 % 1013,6 hPa 0,0 l/m 2,5 km/h (1 Bft) N-NO 32 2 min 0,000 mm 0,0 UV-I 151 W/m 12,6 C 32,4 C 4,8 km/h (1 Bft) 94,74 %
24.07.2019 19:24 32,4 C 27,8 C 37,2 C 31 % 1013,6 hPa 0,0 l/m 3,3 km/h (1 Bft) NO 34 2 min 0,000 mm 0,0 UV-I 148 W/m 13,1 C 32,4 C 4,8 km/h (1 Bft) 95,74 %
24.07.2019 19:26 32,3 C 27,8 C 36,7 C 29 % 1013,6 hPa 0,0 l/m 3,1 km/h (1 Bft) NO 34 2 min 0,000 mm 0,0 UV-I 142 W/m 12,0 C 32,3 C 4,8 km/h (1 Bft) 93,33 %
24.07.2019 19:29 32,2 C 27,8 C 36,7 C 30 % 1013,6 hPa 0,0 l/m 2,3 km/h (1 Bft) NO 34 3 min 0,000 mm 0,0 UV-I 136 W/m 12,4 C 32,2 C 4,8 km/h (1 Bft) 93,81 %
24.07.2019 19:30 32,2 C 27,8 C 36,7 C 31 % 1013,6 hPa 0,0 l/m 2,0 km/h (1 Bft) NO 34 1 min 0,000 mm 0,0 UV-I 134 W/m 12,9 C 32,2 C 3,2 km/h (1 Bft) 91,67 %
24.07.2019 19:32 32,3 C 27,8 C 36,1 C 30 % 1013,6 hPa 0,0 l/m 1,8 km/h (1 Bft) NO 34 2 min 0,000 mm 0,0 UV-I 129 W/m 12,5 C 32,3 C 3,2 km/h (1 Bft) 89,36 %
24.07.2019 19:34 32,3 C 27,8 C 36,1 C 30 % 1013,6 hPa 0,0 l/m 2,4 km/h (1 Bft) NO 34 2 min 0,000 mm 0,0 UV-I 125 W/m 12,5 C 32,3 C 3,2 km/h (1 Bft) 94,64 %
24.07.2019 19:36 32,3 C 27,8 C 36,1 C 29 % 1013,6 hPa 0,0 l/m 2,1 km/h (1 Bft) NO 34 2 min 0,000 mm 0,0 UV-I 119 W/m 12,0 C 32,3 C 3,2 km/h (1 Bft) 90,24 %
24.07.2019 19:39 32,3 C 27,8 C 35,6 C 30 % 1013,5 hPa 0,0 l/m 2,1 km/h (1 Bft) NO 34 3 min 0,000 mm 0,0 UV-I 115 W/m 12,5 C 32,3 C 3,2 km/h (1 Bft) 94,74 %
24.07.2019 19:40 32,3 C 27,8 C 35,6 C 30 % 1013,6 hPa 0,0 l/m 2,3 km/h (1 Bft) NO 34 1 min 0,000 mm 0,0 UV-I 111 W/m 12,5 C 32,3 C 3,2 km/h (1 Bft) 100,00 %
24.07.2019 19:42 32,2 C 27,8 C 35,0 C 31 % 1013,6 hPa 0,0 l/m 2,3 km/h (1 Bft) NO 34 2 min 0,000 mm 0,0 UV-I 107 W/m 12,9 C 32,2 C 3,2 km/h (1 Bft) 98,21 %
24.07.2019 19:44 31,9 C 27,8 C 34,4 C 29 % 1013,6 hPa 0,0 l/m 2,2 km/h (1 Bft) NO 34 2 min 0,000 mm 0,0 UV-I 103 W/m 11,6 C 31,9 C 3,2 km/h (1 Bft) 93,62 %
24.07.2019 19:46 31,8 C 27,8 C 34,4 C 30 % 1013,5 hPa 0,0 l/m 2,2 km/h (1 Bft) NO 34 2 min 0,000 mm 0,0 UV-I 99 W/m 12,1 C 31,8 C 3,2 km/h (1 Bft) 95,45 %
24.07.2019 19:49 31,4 C 27,8 C 33,9 C 31 % 1013,5 hPa 0,0 l/m 1,6 km/h (1 Bft) NO 34 3 min 0,000 mm 0,0 UV-I 94 W/m 12,2 C 31,4 C 3,2 km/h (1 Bft) 97,06 %
24.07.2019 19:50 31,3 C 27,8 C 33,9 C 33 % 1013,5 hPa 0,0 l/m 0,4 km/h (0 Bft) NO 34 1 min 0,000 mm 0,0 UV-I 89 W/m 13,1 C 31,3 C 1,6 km/h (1 Bft) 100,00 %
24.07.2019 19:52 31,1 C 27,8 C 33,3 C 35 % 1013,6 hPa 0,0 l/m 0,8 km/h (0 Bft) NO 34 2 min 0,000 mm 0,0 UV-I 87 W/m 13,8 C 31,1 C 1,6 km/h (1 Bft) 97,87 %
24.07.2019 19:54 30,9 C 27,8 C 32,8 C 35 % 1013,5 hPa 0,0 l/m 0,9 km/h (0 Bft) NO 34 2 min 0,000 mm 0,0 UV-I 84 W/m 13,6 C 30,9 C 1,6 km/h (1 Bft) 96,00 %
24.07.2019 19:56 30,8 C 27,8 C 32,2 C 40 % 1013,5 hPa 0,0 l/m 0,7 km/h (0 Bft) NO 34 2 min 0,000 mm 0,0 UV-I 80 W/m 15,6 C 30,8 C 1,6 km/h (1 Bft) 95,74 %
24.07.2019 19:58 30,6 C 27,8 C 32,2 C 41 % 1013,5 hPa 0,0 l/m 0,7 km/h (0 Bft) NO 34 2 min 0,000 mm 0,0 UV-I 76 W/m 15,8 C 30,6 C 1,6 km/h (1 Bft) 100,00 %
24.07.2019 20:00 30,2 C 27,8 C 31,7 C 43 % 1013,5 hPa 0,0 l/m 1,0 km/h (0 Bft) NO 34 2 min 0,000 mm 0,0 UV-I 74 W/m 16,2 C 30,2 C 1,6 km/h (1 Bft) 97,56 %
24.07.2019 20:02 29,8 C 27,8 C 31,1 C 42 % 1013,5 hPa 0,0 l/m 0,5 km/h (0 Bft) NO 34 2 min 0,127 mm 0,0 UV-I 70 W/m 15,5 C 29,8 C 1,6 km/h (1 Bft) 97,87 %
24.07.2019 20:04 29,6 C 27,8 C 30,0 C 37 % 1013,6 hPa 0,0 l/m 0,1 km/h (0 Bft) NO 34 2 min 0,000 mm 0,0 UV-I 67 W/m 13,3 C 29,6 C 1,6 km/h (1 Bft) 100,00 %
24.07.2019 20:06 29,4 C 27,8 C 28,9 C 40 % 1013,6 hPa 0,0 l/m 0,0 km/h (0 Bft) NO 34 2 min 0,000 mm 0,0 UV-I 63 W/m 14,4 C 29,4 C 0,0 km/h (0 Bft) 100,00 %
24.07.2019 20:09 29,2 C 27,8 C 27,8 C 40 % 1013,6 hPa 0,0 l/m 0,0 km/h (0 Bft) NO 34 3 min 0,000 mm 0,0 UV-I 60 W/m 14,2 C 29,2 C 0,0 km/h (0 Bft) 100,00 %
24.07.2019 20:10 29,3 C 27,8 C 27,2 C 39 % 1013,6 hPa 0,0 l/m 0,0 km/h (0 Bft) NO 34 1 min 0,000 mm 0,0 UV-I 57 W/m 13,9 C 29,3 C 0,0 km/h (0 Bft) 100,00 %
24.07.2019 20:12 29,2 C 27,8 C 26,7 C 40 % 1013,6 hPa 0,0 l/m 0,0 km/h (0 Bft) NO 34 2 min 0,000 mm 0,0 UV-I 54 W/m 14,2 C 29,2 C 0,0 km/h (0 Bft) 97,37 %
24.07.2019 20:14 29,1 C 27,8 C 26,1 C 40 % 1013,5 hPa 0,0 l/m 0,0 km/h (0 Bft) NO 34 2 min 0,000 mm 0,0 UV-I 52 W/m 14,1 C 29,1 C 1,6 km/h (1 Bft) 98,31 %
24.07.2019 20:16 28,8 C 27,8 C 25,6 C 40 % 1013,5 hPa 0,0 l/m 0,0 km/h (0 Bft) NO 34 2 min 0,000 mm 0,0 UV-I 48 W/m 13,8 C 28,8 C 0,0 km/h (0 Bft) 100,00 %
24.07.2019 20:18 28,6 C 27,8 C 25,0 C 40 % 1013,6 hPa 0,0 l/m 0,0 km/h (0 Bft) NO 34 2 min 0,000 mm 0,0 UV-I 45 W/m 13,7 C 28,6 C 0,0 km/h (0 Bft) 100,00 %
24.07.2019 20:20 28,4 C 27,8 C 24,4 C 41 % 1013,6 hPa 0,0 l/m 0,0 km/h (0 Bft) NO 34 2 min 0,000 mm 0,0 UV-I 42 W/m 13,9 C 28,4 C 0,0 km/h (0 Bft) 100,00 %
24.07.2019 20:22 28,3 C 27,8 C 24,4 C 39 % 1013,6 hPa 0,0 l/m 0,0 km/h (0 Bft) NO 34 2 min 0,000 mm 0,0 UV-I 40 W/m 13,0 C 28,3 C 0,0 km/h (0 Bft) 95,74 %
24.07.2019 20:24 28,2 C 27,8 C 23,9 C 40 % 1013,6 hPa 0,0 l/m 0,0 km/h (0 Bft) NO 34 2 min 0,000 mm 0,0 UV-I 38 W/m 13,3 C 28,2 C 0,0 km/h (0 Bft) 100,00 %
24.07.2019 20:26 27,9 C 27,8 C 23,3 C 42 % 1013,6 hPa 0,0 l/m 0,0 km/h (0 Bft) NO 34 2 min 0,000 mm 0,0 UV-I 35 W/m 13,8 C 27,9 C 0,0 km/h (0 Bft) 100,00 %
24.07.2019 20:29 27,4 C 27,8 C 23,3 C 48 % 1013,6 hPa 0,0 l/m 0,0 km/h (0 Bft) NO 34 3 min 0,000 mm 0,0 UV-I 32 W/m 15,4 C 27,4 C 0,0 km/h (0 Bft) 98,65 %
24.07.2019 20:30 27,2 C 27,8 C 23,3 C 47 % 1013,6 hPa 0,0 l/m 0,0 km/h (0 Bft) NO 34 1 min 0,000 mm 0,0 UV-I 28 W/m 14,9 C 27,2 C 0,0 km/h (0 Bft) 100,00 %
24.07.2019 20:32 26,9 C 27,8 C 23,3 C 47 % 1013,6 hPa 0,0 l/m 0,6 km/h (0 Bft) NO 34 2 min 0,000 mm 0,0 UV-I 24 W/m 14,6 C 26,9 C 1,6 km/h (1 Bft) 100,00 %
24.07.2019 20:34 26,7 C 27,8 C 23,3 C 46 % 1013,6 hPa 0,0 l/m 1,6 km/h (1 Bft) NO 34 2 min 0,000 mm 0,0 UV-I 16 W/m 14,1 C 26,7 C 3,2 km/h (1 Bft) 98,00 %
24.07.2019 20:36 26,6 C 27,8 C 22,8 C 42 % 1013,6 hPa 0,0 l/m 2,3 km/h (1 Bft) NO 34 0 min 0,000 mm 0,0 UV-I 12 W/m 12,6 C 26,6 C 3,2 km/h (1 Bft) 100,00 %
24.07.2019 20:38 26,4 C 27,8 C 22,8 C 42 % 1013,6 hPa 0,0 l/m 2,6 km/h (1 Bft) NO 34 2 min 0,000 mm 0,0 UV-I 13 W/m 12,4 C 26,4 C 3,2 km/h (1 Bft) 100,00 %
24.07.2019 20:40 26,4 C 27,8 C 22,8 C 42 % 1013,6 hPa 0,0 l/m 1,6 km/h (1 Bft) NO 34 0 min 0,000 mm 0,0 UV-I 14 W/m 12,4 C 26,4 C 3,2 km/h (1 Bft) 100,00 %
24.07.2019 20:42 26,4 C 27,8 C 22,2 C 42 % 1013,6 hPa 0,0 l/m 1,1 km/h (1 Bft) NO 34 0 min 0,000 mm 0,0 UV-I 12 W/m 12,4 C 26,4 C 1,6 km/h (1 Bft) 100,00 %
24.07.2019 20:44 26,3 C 27,8 C 22,2 C 42 % 1013,6 hPa 0,0 l/m 1,1 km/h (1 Bft) NO 34 0 min 0,000 mm 0,0 UV-I 12 W/m 12,3 C 26,3 C 1,6 km/h (1 Bft) 100,00 %
24.07.2019 20:46 26,1 C 27,8 C 22,2 C 41 % 1013,6 hPa 0,0 l/m 2,1 km/h (1 Bft) NO 34 0 min 0,000 mm 0,0 UV-I 11 W/m 11,8 C 26,1 C 3,2 km/h (1 Bft) 97,14 %
24.07.2019 20:48 26,0 C 27,8 C 22,2 C 42 % 1013,7 hPa 0,0 l/m 2,3 km/h (1 Bft) NO 34 0 min 0,000 mm 0,0 UV-I 11 W/m 12,1 C 26,0 C 3,2 km/h (1 Bft) 100,00 %
24.07.2019 20:50 25,8 C 27,8 C 22,2 C 43 % 1013,7 hPa 0,0 l/m 2,5 km/h (1 Bft) NO 34 0 min 0,000 mm 0,0 UV-I 9 W/m 12,3 C 25,8 C 3,2 km/h (1 Bft) 100,00 %
24.07.2019 20:52 25,8 C 27,8 C 22,2 C 42 % 1013,7 hPa 0,0 l/m 2,1 km/h (1 Bft) NO 34 0 min 0,000 mm 0,0 UV-I 9 W/m 11,9 C 25,8 C 3,2 km/h (1 Bft) 100,00 %
24.07.2019 20:54 25,7 C 27,8 C 22,2 C 44 % 1013,7 hPa 0,0 l/m 1,2 km/h (1 Bft) NO 34 0 min 0,000 mm 0,0 UV-I 8 W/m 12,5 C 25,7 C 1,6 km/h (1 Bft) 100,00 %
24.07.2019 20:56 25,6 C 27,8 C 21,7 C 44 % 1013,8 hPa 0,0 l/m 0,1 km/h (0 Bft) NO 34 0 min 0,000 mm 0,0 UV-I 7 W/m 12,4 C 25,6 C 1,6 km/h (1 Bft) 100,00 %
24.07.2019 20:58 25,7 C 27,8 C 21,1 C 41 % 1013,8 hPa 0,0 l/m 0,0 km/h (0 Bft) NO 34 0 min 0,000 mm 0,0 UV-I 7 W/m 11,4 C 25,7 C 0,0 km/h (0 Bft) 96,00 %
24.07.2019 21:00 25,7 C 27,8 C 21,1 C 43 % 1013,9 hPa 0,0 l/m 0,0 km/h (0 Bft) NO 34 0 min 0,000 mm 0,0 UV-I 5 W/m 12,2 C 25,7 C 0,0 km/h (0 Bft) 95,74 %
24.07.2019 21:02 25,6 C 27,8 C 20,6 C 43 % 1013,8 hPa 0,0 l/m 0,0 km/h (0 Bft) NO 34 0 min 0,051 mm 0,0 UV-I 5 W/m 12,1 C 25,6 C 0,0 km/h (0 Bft) 97,56 %
24.07.2019 21:04 25,4 C 27,8 C 20,6 C 43 % 1013,8 hPa 0,0 l/m 0,0 km/h (0 Bft) NO 34 0 min 0,000 mm 0,0 UV-I 5 W/m 11,9 C 25,4 C 0,0 km/h (0 Bft) 98,11 %
24.07.2019 21:06 25,2 C 27,8 C 20,6 C 43 % 1013,8 hPa 0,0 l/m 0,0 km/h (0 Bft) NO 34 0 min 0,000 mm 0,0 UV-I 5 W/m 11,7 C 25,2 C 0,0 km/h (0 Bft) 97,87 %
24.07.2019 21:08 25,1 C 27,8 C 20,6 C 45 % 1013,8 hPa 0,0 l/m 0,0 km/h (0 Bft) NO 34 0 min 0,000 mm 0,0 UV-I 2 W/m 12,3 C 25,1 C 0,0 km/h (0 Bft) 94,74 %
24.07.2019 21:10 25,1 C 27,8 C 20,6 C 44 % 1013,9 hPa 0,0 l/m 0,0 km/h (0 Bft) NO 34 0 min 0,000 mm 0,0 UV-I 0 W/m 12,0 C 25,1 C 0,0 km/h (0 Bft) 96,23 %
24.07.2019 21:12 25,2 C 27,8 C 20,6 C 43 % 1013,9 hPa 0,0 l/m 0,0 km/h (0 Bft) NO 34 0 min 0,000 mm 0,0 UV-I 0 W/m 11,7 C 25,2 C 0,0 km/h (0 Bft) 96,00 %
24.07.2019 21:14 25,0 C 27,8 C 20,6 C 44 % 1013,9 hPa 0,0 l/m 0,1 km/h (0 Bft) NO 34 0 min 0,000 mm 0,0 UV-I 0 W/m 11,9 C 25,0 C 1,6 km/h (1 Bft) 91,49 %
24.07.2019 21:16 24,7 C 27,8 C 20,0 C 48 % 1013,9 hPa 0,0 l/m 1,0 km/h (0 Bft) NO 34 0 min 0,000 mm 0,0 UV-I 0 W/m 12,9 C 24,7 C 1,6 km/h (1 Bft) 100,00 %
24.07.2019 21:18 24,6 C 27,8 C 20,0 C 50 % 1013,9 hPa 0,0 l/m 1,1 km/h (1 Bft) NO 34 0 min 0,000 mm 0,0 UV-I 0 W/m 13,5 C 24,6 C 1,6 km/h (1 Bft) 93,44 %
24.07.2019 21:20 24,7 C 27,8 C 20,0 C 51 % 1014,0 hPa 0,0 l/m 1,2 km/h (1 Bft) NO 34 0 min 0,000 mm 0,0 UV-I 0 W/m 13,9 C 24,7 C 1,6 km/h (1 Bft) 92,86 %
24.07.2019 21:22 24,7 C 27,8 C 20,0 C 51 % 1014,0 hPa 0,0 l/m 1,9 km/h (1 Bft) NO 34 0 min 0,000 mm 0,0 UV-I 0 W/m 13,9 C 24,7 C 3,2 km/h (1 Bft) 96,00 %
24.07.2019 21:24 24,7 C 27,8 C 20,0 C 51 % 1014,1 hPa 0,0 l/m 1,7 km/h (1 Bft) NO 34 0 min 0,000 mm 0,0 UV-I 0 W/m 13,9 C 24,7 C 3,2 km/h (1 Bft) 95,74 %
24.07.2019 21:26 24,7 C 27,8 C 20,0 C 51 % 1014,1 hPa 0,0 l/m 1,3 km/h (1 Bft) NO 34 0 min 0,000 mm 0,0 UV-I 0 W/m 13,9 C 24,7 C 1,6 km/h (1 Bft) 94,34 %
24.07.2019 21:28 24,7 C 27,8 C 20,0 C 52 % 1014,2 hPa 0,0 l/m 1,1 km/h (1 Bft) NO 34 0 min 0,000 mm 0,0 UV-I 0 W/m 14,2 C 24,7 C 1,6 km/h (1 Bft) 97,37 %
24.07.2019 21:30 24,6 C 27,8 C 20,0 C 52 % 1014,1 hPa 0,0 l/m 2,0 km/h (1 Bft) NO 34 0 min 0,000 mm 0,0 UV-I 0 W/m 14,1 C 24,6 C 3,2 km/h (1 Bft) 98,00 %
24.07.2019 21:32 24,4 C 27,8 C 20,0 C 51 % 1014,2 hPa 0,0 l/m 2,5 km/h (1 Bft) NO 34 0 min 0,000 mm 0,0 UV-I 0 W/m 13,6 C 24,4 C 3,2 km/h (1 Bft) 97,73 %
24.07.2019 21:34 24,4 C 27,8 C 19,4 C 51 % 1014,2 hPa 0,0 l/m 2,2 km/h (1 Bft) NO 34 0 min 0,000 mm 0,0 UV-I 0 W/m 13,6 C 24,4 C 3,2 km/h (1 Bft) 100,00 %
24.07.2019 21:36 24,3 C 27,8 C 19,4 C 51 % 1014,2 hPa 0,0 l/m 2,3 km/h (1 Bft) NO 34 0 min 0,000 mm 0,0 UV-I 0 W/m 13,5 C 24,3 C 3,2 km/h (1 Bft) 97,73 %
24.07.2019 21:38 24,1 C 27,8 C 19,4 C 51 % 1014,2 hPa 0,0 l/m 2,6 km/h (1 Bft) NO 34 0 min 0,000 mm 0,0 UV-I 0 W/m 13,3 C 24,1 C 3,2 km/h (1 Bft) 100,00 %
24.07.2019 21:40 23,9 C 27,8 C 20,0 C 53 % 1014,2 hPa 0,0 l/m 3,6 km/h (1 Bft) NO 34 0 min 0,000 mm 0,0 UV-I 0 W/m 13,7 C 23,9 C 4,8 km/h (1 Bft) 100,00 %
24.07.2019 21:42 23,8 C 27,8 C 20,0 C 51 % 1014,2 hPa 0,0 l/m 4,3 km/h (1 Bft) NO 34 0 min 0,000 mm 0,0 UV-I 0 W/m 13,0 C 23,8 C 4,8 km/h (1 Bft) 97,56 %
24.07.2019 21:44 23,8 C 27,8 C 20,0 C 51 % 1014,3 hPa 0,0 l/m 3,6 km/h (1 Bft) NO 34 0 min 0,000 mm 0,0 UV-I 0 W/m 13,0 C 23,8 C 4,8 km/h (1 Bft) 100,00 %
24.07.2019 21:46 23,8 C 27,8 C 19,4 C 50 % 1014,3 hPa 0,0 l/m 3,3 km/h (1 Bft) NO 34 0 min 0,000 mm 0,0 UV-I 0 W/m 12,7 C 23,8 C 4,8 km/h (1 Bft) 100,00 %
24.07.2019 21:48 23,7 C 27,8 C 19,4 C 51 % 1014,3 hPa 0,0 l/m 3,3 km/h (1 Bft) NO 34 0 min 0,000 mm 0,0 UV-I 0 W/m 13,0 C 23,7 C 4,8 km/h (1 Bft) 100,00 %
24.07.2019 21:50 23,7 C 27,8 C 19,4 C 50 % 1014,3 hPa 0,0 l/m 3,5 km/h (1 Bft) NO 34 0 min 0,000 mm 0,0 UV-I 0 W/m 12,6 C 23,7 C 4,8 km/h (1 Bft) 100,00 %
24.07.2019 21:52 23,7 C 27,8 C 19,4 C 49 % 1014,3 hPa 0,0 l/m 3,0 km/h (1 Bft) NO 34 0 min 0,000 mm 0,0 UV-I 0 W/m 12,3 C 23,7 C 3,2 km/h (1 Bft) 100,00 %
24.07.2019 21:54 23,6 C 27,8 C 19,4 C 49 % 1014,3 hPa 0,0 l/m 2,9 km/h (1 Bft) NO 34 0 min 0,000 mm 0,0 UV-I 0 W/m 12,2 C 23,6 C 3,2 km/h (1 Bft) 97,92 %
24.07.2019 21:56 23,4 C 27,8 C 19,4 C 50 % 1014,3 hPa 0,0 l/m 2,2 km/h (1 Bft) NO 34 0 min 0,000 mm 0,0 UV-I 0 W/m 12,4 C 23,4 C 3,2 km/h (1 Bft) 100,00 %
24.07.2019 21:58 23,3 C 27,8 C 19,4 C 48 % 1014,3 hPa 0,0 l/m 2,0 km/h (1 Bft) NO 34 0 min 0,000 mm 0,0 UV-I 0 W/m 11,7 C 23,3 C 3,2 km/h (1 Bft) 100,00 %
24.07.2019 22:00 23,2 C 27,8 C 19,4 C 50 % 1014,3 hPa 0,0 l/m 2,2 km/h (1 Bft) NO 34 0 min 0,000 mm 0,0 UV-I 0 W/m 12,2 C 23,2 C 3,2 km/h (1 Bft) 97,92 %
24.07.2019 22:02 23,3 C 27,8 C 19,4 C 49 % 1014,3 hPa 0,0 l/m 1,1 km/h (1 Bft) NO 34 0 min 0,025 mm 0,0 UV-I 0 W/m 12,0 C 23,3 C 1,6 km/h (1 Bft) 100,00 %
24.07.2019 22:04 23,4 C 27,8 C 18,9 C 48 % 1014,3 hPa 0,0 l/m 1,1 km/h (1 Bft) NO 34 0 min 0,000 mm 0,0 UV-I 0 W/m 11,8 C 23,4 C 3,2 km/h (1 Bft) 100,00 %
24.07.2019 22:06 23,2 C 27,8 C 18,9 C 53 % 1014,3 hPa 0,0 l/m 0,2 km/h (0 Bft) NO 34 0 min 0,000 mm 0,0 UV-I 0 W/m 13,1 C 23,2 C 1,6 km/h (1 Bft) 100,00 %
24.07.2019 22:08 23,2 C 27,8 C 19,4 C 55 % 1014,3 hPa 0,0 l/m 0,9 km/h (0 Bft) NO 34 0 min 0,000 mm 0,0 UV-I 0 W/m 13,6 C 23,2 C 1,6 km/h (1 Bft) 100,00 %
24.07.2019 22:10 23,1 C 27,8 C 19,4 C 54 % 1014,3 hPa 0,0 l/m 1,2 km/h (1 Bft) NO 34 0 min 0,000 mm 0,0 UV-I 0 W/m 13,3 C 23,1 C 1,6 km/h (1 Bft) 100,00 %
24.07.2019 22:12 23,0 C 27,8 C 19,4 C 54 % 1014,3 hPa 0,0 l/m 0,5 km/h (0 Bft) NO 34 0 min 0,000 mm 0,0 UV-I 0 W/m 13,2 C 23,0 C 1,6 km/h (1 Bft) 100,00 %
24.07.2019 22:14 22,9 C 27,8 C 19,4 C 50 % 1014,3 hPa 0,0 l/m 0,0 km/h (0 Bft) NO 34 0 min 0,000 mm 0,0 UV-I 0 W/m 11,9 C 22,9 C 1,6 km/h (1 Bft) 100,00 %
24.07.2019 22:16 22,8 C 27,8 C 19,4 C 53 % 1014,3 hPa 0,0 l/m 1,0 km/h (0 Bft) NO 34 0 min 0,000 mm 0,0 UV-I 0 W/m 12,7 C 22,8 C 1,6 km/h (1 Bft) 100,00 %
24.07.2019 22:18 22,7 C 27,8 C 18,9 C 52 % 1014,3 hPa 0,0 l/m 1,2 km/h (1 Bft) NO 34 0 min 0,000 mm 0,0 UV-I 0 W/m 12,3 C 22,7 C 3,2 km/h (1 Bft) 98,11 %
24.07.2019 22:20 22,8 C 27,8 C 18,9 C 51 % 1014,3 hPa 0,0 l/m 0,9 km/h (0 Bft) NO 34 0 min 0,000 mm 0,0 UV-I 0 W/m 12,1 C 22,8 C 1,6 km/h (1 Bft) 97,87 %
24.07.2019 22:22 22,7 C 27,8 C 19,4 C 53 % 1014,3 hPa 0,0 l/m 0,0 km/h (0 Bft) NO 34 0 min 0,000 mm 0,0 UV-I 0 W/m 12,6 C 22,7 C 0,0 km/h (0 Bft) 98,00 %
24.07.2019 22:24 22,6 C 27,8 C 19,4 C 55 % 1014,3 hPa 0,0 l/m 1,1 km/h (1 Bft) NO 34 0 min 0,000 mm 0,0 UV-I 0 W/m 13,1 C 22,6 C 3,2 km/h (1 Bft) 98,00 %
24.07.2019 22:26 22,7 C 27,8 C 19,4 C 53 % 1014,3 hPa 0,0 l/m 1,7 km/h (1 Bft) NO 34 0 min 0,000 mm 0,0 UV-I 0 W/m 12,6 C 22,7 C 3,2 km/h (1 Bft) 97,14 %
24.07.2019 22:28 22,8 C 27,2 C 19,4 C 54 % 1014,3 hPa 0,0 l/m 1,8 km/h (1 Bft) NO 34 0 min 0,000 mm 0,0 UV-I 0 W/m 13,0 C 22,8 C 3,2 km/h (1 Bft) 95,35 %
24.07.2019 22:30 22,8 C 27,2 C 19,4 C 56 % 1014,3 hPa 0,0 l/m 2,5 km/h (1 Bft) NO 35 0 min 0,000 mm 0,0 UV-I 0 W/m 13,6 C 22,8 C 3,2 km/h (1 Bft) 96,36 %
24.07.2019 22:32 22,7 C 27,2 C 19,4 C 57 % 1014,3 hPa 0,0 l/m 3,3 km/h (1 Bft) NO 35 0 min 0,000 mm 0,0 UV-I 0 W/m 13,7 C 22,7 C 4,8 km/h (1 Bft) 98,00 %
24.07.2019 22:34 22,6 C 27,2 C 19,4 C 56 % 1014,3 hPa 0,0 l/m 3,1 km/h (1 Bft) NO 35 0 min 0,000 mm 0,0 UV-I 0 W/m 13,4 C 22,6 C 4,8 km/h (1 Bft) 97,44 %
24.07.2019 22:36 22,5 C 27,2 C 19,4 C 56 % 1014,3 hPa 0,0 l/m 1,9 km/h (1 Bft) NO 35 0 min 0,000 mm 0,0 UV-I 0 W/m 13,3 C 22,5 C 3,2 km/h (1 Bft) 98,11 %
24.07.2019 22:38 22,4 C 27,2 C 19,4 C 56 % 1014,3 hPa 0,0 l/m 3,3 km/h (1 Bft) NO 36 0 min 0,000 mm 0,0 UV-I 0 W/m 13,2 C 22,4 C 4,8 km/h (1 Bft) 96,00 %
24.07.2019 22:40 22,4 C 27,2 C 19,4 C 55 % 1014,3 hPa 0,0 l/m 3,2 km/h (1 Bft) NO 36 0 min 0,000 mm 0,0 UV-I 0 W/m 12,9 C 22,4 C 4,8 km/h (1 Bft) 93,62 %
24.07.2019 22:42 22,6 C 27,2 C 19,4 C 55 % 1014,3 hPa 0,0 l/m 2,2 km/h (1 Bft) NO 36 0 min 0,000 mm 0,0 UV-I 0 W/m 13,1 C 22,6 C 3,2 km/h (1 Bft) 97,37 %
24.07.2019 22:44 22,6 C 27,2 C 19,4 C 57 % 1014,3 hPa 0,0 l/m 2,4 km/h (1 Bft) NO 36 0 min 0,000 mm 0,0 UV-I 0 W/m 13,6 C 22,6 C 3,2 km/h (1 Bft) 92,45 %
24.07.2019 22:46 22,4 C 27,2 C 19,4 C 58 % 1014,2 hPa 0,0 l/m 2,6 km/h (1 Bft) NO 37 0 min 0,000 mm 0,0 UV-I 0 W/m 13,7 C 22,4 C 3,2 km/h (1 Bft) 95,74 %
24.07.2019 22:48 22,3 C 27,2 C 20,0 C 56 % 1014,2 hPa 0,0 l/m 4,6 km/h (1 Bft) S-SO 164 0 min 0,000 mm 0,0 UV-I 0 W/m 13,1 C 22,3 C 6,4 km/h (2 Bft) 96,15 %
24.07.2019 22:50 22,2 C 27,2 C 20,0 C 56 % 1014,3 hPa 0,0 l/m 5,4 km/h (1 Bft) S-SO 164 0 min 0,000 mm 0,0 UV-I 0 W/m 13,0 C 22,2 C 6,4 km/h (2 Bft) 95,38 %
24.07.2019 22:52 22,2 C 27,2 C 20,0 C 58 % 1014,3 hPa 0,0 l/m 3,3 km/h (1 Bft) S-SO 164 0 min 0,000 mm 0,0 UV-I 0 W/m 13,5 C 22,2 C 6,4 km/h (2 Bft) 94,00 %
24.07.2019 22:54 22,2 C 27,2 C 20,0 C 57 % 1014,3 hPa 0,0 l/m 5,1 km/h (1 Bft) S-SO 164 0 min 0,000 mm 0,0 UV-I 0 W/m 13,3 C 22,2 C 6,4 km/h (2 Bft) 95,74 %
24.07.2019 22:56 22,1 C 27,2 C 20,6 C 56 % 1014,3 hPa 0,0 l/m 6,5 km/h (2 Bft) S-SO 165 0 min 0,000 mm 0,0 UV-I 0 W/m 12,9 C 22,1 C 8,0 km/h (2 Bft) 93,18 %
24.07.2019 22:58 21,9 C 27,2 C 20,6 C 56 % 1014,3 hPa 0,0 l/m 4,5 km/h (1 Bft) S-SO 165 0 min 0,000 mm 0,0 UV-I 0 W/m 12,7 C 21,9 C 6,4 km/h (2 Bft) 90,57 %
24.07.2019 23:00 21,8 C 27,2 C 20,0 C 59 % 1014,3 hPa 0,0 l/m 2,4 km/h (1 Bft) S-SO 165 0 min 0,000 mm 0,0 UV-I 0 W/m 13,4 C 21,8 C 6,4 km/h (2 Bft) 92,11 %
24.07.2019 23:02 21,8 C 27,2 C 20,0 C 59 % 1014,3 hPa 0,0 l/m 4,3 km/h (1 Bft) S 174 0 min 0,026 mm 0,0 UV-I 0 W/m 13,4 C 21,8 C 6,4 km/h (2 Bft) 94,00 %
24.07.2019 23:04 21,7 C 27,2 C 19,4 C 58 % 1014,4 hPa 0,0 l/m 4,8 km/h (1 Bft) S 181 0 min 0,000 mm 0,0 UV-I 0 W/m 13,1 C 21,7 C 6,4 km/h (2 Bft) 93,62 %
24.07.2019 23:06 21,6 C 27,2 C 19,4 C 57 % 1014,4 hPa 0,0 l/m 4,6 km/h (1 Bft) S 181 0 min 0,000 mm 0,0 UV-I 0 W/m 12,7 C 21,6 C 4,8 km/h (1 Bft) 94,00 %
24.07.2019 23:08 21,4 C 27,2 C 18,9 C 58 % 1014,4 hPa 0,0 l/m 4,6 km/h (1 Bft) S 181 0 min 0,000 mm 0,0 UV-I 0 W/m 12,8 C 21,4 C 4,8 km/h (1 Bft) 96,00 %
24.07.2019 23:10 21,5 C 27,2 C 18,9 C 57 % 1014,4 hPa 0,0 l/m 4,9 km/h (1 Bft) S 181 0 min 0,000 mm 0,0 UV-I 0 W/m 12,6 C 21,5 C 6,4 km/h (2 Bft) 94,87 %
24.07.2019 23:12 21,7 C 27,2 C 18,9 C 57 % 1014,4 hPa 0,0 l/m 4,5 km/h (1 Bft) S 181 0 min 0,000 mm 0,0 UV-I 0 W/m 12,8 C 21,7 C 4,8 km/h (1 Bft) 94,23 %
24.07.2019 23:14 21,8 C 27,2 C 18,3 C 56 % 1014,4 hPa 0,0 l/m 2,9 km/h (1 Bft) S 181 0 min 0,000 mm 0,0 UV-I 0 W/m 12,6 C 21,8 C 4,8 km/h (1 Bft) 97,44 %
24.07.2019 23:16 21,9 C 27,2 C 18,3 C 57 % 1014,4 hPa 0,0 l/m 0,8 km/h (0 Bft) S 181 0 min 0,000 mm 0,0 UV-I 0 W/m 13,0 C 21,9 C 1,6 km/h (1 Bft) 92,45 %
24.07.2019 23:18 21,9 C 27,2 C 18,3 C 55 % 1014,4 hPa 0,0 l/m 1,0 km/h (0 Bft) S 181 0 min 0,000 mm 0,0 UV-I 0 W/m 12,4 C 21,9 C 1,6 km/h (1 Bft) 95,74 %
24.07.2019 23:20 21,6 C 27,2 C 18,3 C 64 % 1014,4 hPa 0,0 l/m 1,7 km/h (1 Bft) S 181 0 min 0,000 mm 0,0 UV-I 0 W/m 14,5 C 21,6 C 3,2 km/h (1 Bft) 97,73 %
24.07.2019 23:22 20,8 C 27,2 C 18,3 C 64 % 1014,4 hPa 0,0 l/m 0,7 km/h (0 Bft) S 181 0 min 0,000 mm 0,0 UV-I 0 W/m 13,7 C 20,8 C 1,6 km/h (1 Bft) 98,00 %
24.07.2019 23:24 20,5 C 27,2 C 17,8 C 69 % 1014,5 hPa 0,0 l/m 1,2 km/h (1 Bft) S 181 0 min 0,000 mm 0,0 UV-I 0 W/m 14,6 C 20,5 C 1,6 km/h (1 Bft) 98,00 %
24.07.2019 23:26 20,5 C 27,2 C 18,3 C 67 % 1014,5 hPa 0,0 l/m 2,9 km/h (1 Bft) S 182 0 min 0,000 mm 0,0 UV-I 0 W/m 14,2 C 20,5 C 4,8 km/h (1 Bft) 100,00 %
24.07.2019 23:28 20,6 C 27,2 C 18,3 C 67 % 1014,6 hPa 0,0 l/m 4,3 km/h (1 Bft) SW 225 0 min 0,000 mm 0,0 UV-I 0 W/m 14,3 C 20,6 C 6,4 km/h (2 Bft) 95,74 %
24.07.2019 23:30 20,6 C 27,2 C 18,3 C 67 % 1014,5 hPa 0,0 l/m 5,1 km/h (1 Bft) SW 225 0 min 0,000 mm 0,0 UV-I 0 W/m 14,3 C 20,6 C 6,4 km/h (2 Bft) 100,00 %
24.07.2019 23:32 20,6 C 27,2 C 18,9 C 66 % 1014,5 hPa 0,0 l/m 4,6 km/h (1 Bft) SW 225 0 min 0,000 mm 0,0 UV-I 0 W/m 14,0 C 20,6 C 6,4 km/h (2 Bft) 100,00 %
24.07.2019 23:34 20,7 C 27,2 C 18,9 C 67 % 1014,6 hPa 0,0 l/m 4,3 km/h (1 Bft) SW 225 0 min 0,000 mm 0,0 UV-I 0 W/m 14,3 C 20,7 C 4,8 km/h (1 Bft) 98,11 %
24.07.2019 23:36 20,5 C 27,2 C 18,9 C 67 % 1014,6 hPa 0,0 l/m 3,3 km/h (1 Bft) SW 220 0 min 0,000 mm 0,0 UV-I 0 W/m 14,2 C 20,5 C 6,4 km/h (2 Bft) 100,00 %
24.07.2019 23:38 20,4 C 27,2 C 18,3 C 67 % 1014,6 hPa 0,0 l/m 5,0 km/h (1 Bft) SW 219 0 min 0,000 mm 0,0 UV-I 0 W/m 14,1 C 20,4 C 6,4 km/h (2 Bft) 100,00 %
24.07.2019 23:40 20,3 C 27,2 C 18,3 C 67 % 1014,7 hPa 0,0 l/m 2,8 km/h (1 Bft) SW 219 0 min 0,000 mm 0,0 UV-I 0 W/m 14,0 C 20,3 C 4,8 km/h (1 Bft) 97,87 %
24.07.2019 23:42 20,4 C 27,2 C 18,3 C 66 % 1014,6 hPa 0,0 l/m 4,2 km/h (1 Bft) SW 219 0 min 0,000 mm 0,0 UV-I 0 W/m 13,8 C 20,4 C 6,4 km/h (2 Bft) 100,00 %
24.07.2019 23:44 20,6 C 27,2 C 18,3 C 65 % 1014,6 hPa 0,0 l/m 4,3 km/h (1 Bft) SW 219 0 min 0,000 mm 0,0 UV-I 0 W/m 13,8 C 20,6 C 6,4 km/h (2 Bft) 100,00 %
24.07.2019 23:46 20,6 C 27,2 C 18,3 C 65 % 1014,7 hPa 0,0 l/m 5,1 km/h (1 Bft) S-SW 209 0 min 0,000 mm 0,0 UV-I 0 W/m 13,8 C 20,6 C 6,4 km/h (2 Bft) 100,00 %
24.07.2019 23:48 20,7 C 27,2 C 18,3 C 65 % 1014,7 hPa 0,0 l/m 4,8 km/h (1 Bft) S-SW 212 0 min 0,000 mm 0,0 UV-I 0 W/m 13,9 C 20,7 C 6,4 km/h (2 Bft) 98,11 %
24.07.2019 23:50 20,7 C 27,2 C 18,3 C 65 % 1014,7 hPa 0,0 l/m 4,2 km/h (1 Bft) S-SW 207 0 min 0,000 mm 0,0 UV-I 0 W/m 13,9 C 20,7 C 6,4 km/h (2 Bft) 97,73 %
24.07.2019 23:52 20,7 C 27,2 C 18,3 C 64 % 1014,7 hPa 0,0 l/m 6,2 km/h (2 Bft) SW 215 0 min 0,000 mm 0,0 UV-I 0 W/m 13,6 C 20,7 C 8,0 km/h (2 Bft) 97,87 %
24.07.2019 23:54 21,0 C 27,2 C 18,3 C 62 % 1014,8 hPa 0,0 l/m 5,1 km/h (1 Bft) SW 228 0 min 0,000 mm 0,0 UV-I 0 W/m 13,4 C 21,0 C 6,4 km/h (2 Bft) 100,00 %
24.07.2019 23:56 21,3 C 27,2 C 18,3 C 62 % 1014,8 hPa 0,0 l/m 5,4 km/h (1 Bft) SW 215 0 min 0,000 mm 0,0 UV-I 0 W/m 13,7 C 21,3 C 6,4 km/h (2 Bft) 100,00 %
24.07.2019 23:58 21,4 C 27,2 C 18,3 C 61 % 1014,7 hPa 0,0 l/m 5,2 km/h (1 Bft) SW 236 0 min 0,000 mm 0,0 UV-I 0 W/m 13,6 C 21,4 C 6,4 km/h (2 Bft) 100,00 %
_ Min-Zeit 05:34 05:54 04:58 18:18 17:58 - 00:48 - - - - - - 18:18 05:34 00:48 00:02
Minimum _ 16,2 C 25,6 C 14,4 C 24 % 1013,5 hPa - 0,0 km/h (0 Bft) - - - - - - 9,6 C 16,2 C 0,0 km/h (0 Bft) 11,11 %
_ Max-Zeit 17:06 15:32 14:38 05:48 00:58 00:00 12:20 - - 19:29 14:02 12:56 13:06 12:22 17:06 08:16 00:00
Maximum _ 33,3 C 27,8 C 46,1 C 90 % 1016,9 hPa 0,0 l/m 14,7 km/h
NO (3 Bft)
- - 3 min 0,660 mm 6,6 UV-I 876 W/m 20,2 C 33,3 C 20,9 km/h
O (4 Bft)
100,00 %
Durchschnitt _ 24,9 C 26,8 C 28,8 C 59 % 1015,2 hPa #0,0 l/m 4,4 km/h (1 Bft) NO - #14:56 h #5,893 mm 3,7 UV-I 482 W/m 14,8 C 24,7 C 7,0 km/h (2 Bft) 97,41 %